[[{"header":{"parameterUnit":"m.s-1","parameterCategory":1,"la1":31.0,"la2":29.5877,"lo1":-88.7671,"lo2":-86.6584,"dy":0.0162,"dx":0.0185,"nx":115,"ny":88,"refTime":"2023-05-06T00:00:00:Z","depth":0,"parameterNumber":2,"parameterNumberName":"U-component_of_WINDS"},"data":[0.0,0.0,0.0,0.0,0.0,0.0,0.0,0.0,0.0,0.0,0.0,0.0,0.0,0.0,0.0,0.0,0.0,0.0,0.0,0.0,0.0,0.0,0.0,0.0,0.0,0.0,0.0,0.0,0.0,0.0,0.0,0.0,0.0,0.0,0.0,0.0,0.0,0.0,0.0,0.0,0.0,0.0,0.0,0.0,0.0,0.0,0.0,0.0,0.0,0.0,0.0,0.0,0.0,0.0,0.0,0.0,0.0,0.0,0.0,0.0,0.0,0.0,0.0,0.0,0.0,0.0,0.0,0.0,0.0,0.0,0.0,0.0,0.0,0.0,0.0,0.0,0.0,0.0,0.0,0.0,0.0,0.0,0.0,0.0,0.0,0.0,0.0,0.0,0.0,0.0,0.0,0.0,0.0,0.0,0.0,0.0,0.0,0.0,0.0,0.0,0.0,0.0,0.0,0.0,0.0,0.0,0.0,0.0,0.0,0.0,0.0,0.0,0.0,0.0,0.0,0.0,0.0,0.0,0.0,0.0,0.0,0.0,0.0,0.0,0.0,0.0,0.0,0.0,0.0,0.0,0.0,0.0,0.0,0.0,0.0,0.0,0.0,0.0,0.0,0.0,0.0,0.0,0.0,0.0,0.0,0.0,0.0,0.0,0.0,0.0,0.0,0.0,0.0,0.0,0.0,0.0,0.0,0.0,0.0,0.0,0.0,0.0,0.0,0.0,0.0,0.0,0.0,0.0,0.0,0.0,0.0,0.0,0.0,0.0,0.0,0.0,0.0,0.0,0.0,0.0,0.0,0.0,0.0,0.0,0.0,0.0,0.0,0.0,0.0,0.0,0.0,0.0,0.0,0.0,0.0,0.0,0.0,0.0,0.0,0.0,0.0,0.0,0.0,0.0,0.0,0.0,0.0,0.0,0.0,0.0,0.0,0.0,0.0,0.0,0.0,0.0,0.0,0.0,0.0,0.0,0.0,0.0,0.0,0.0,0.0,0.0,0.0,0.0,0.0,0.0,0.0,0.0,0.0,0.0,0.0,0.0,0.0,0.0,0.0,0.0,0.0,0.0,0.0,0.0,0.0,0.0,0.0,0.0,0.0,0.0,0.0,0.0,0.0,0.0,0.0,0.0,0.0,0.0,0.0,0.0,0.0,0.0,0.0,0.0,0.0,0.0,0.0,0.0,0.0,0.0,0.0,0.0,0.0,0.0,0.0,0.0,0.0,0.0,0.0,0.0,0.0,0.0,0.0,0.0,0.0,0.0,0.0,0.0,0.0,0.0,0.0,0.0,0.0,0.0,0.0,0.0,0.0,0.0,0.0,0.0,0.0,0.0,0.0,0.0,0.0,0.0,0.0,0.0,0.0,0.0,0.0,0.0,0.0,0.0,0.0,0.0,0.0,0.0,0.0,0.0,0.0,0.0,0.0,0.0,0.0,0.0,0.0,0.0,0.0,0.0,0.0,0.0,0.0,0.0,0.0,0.0,0.0,0.0,0.0,0.0,0.0,0.0,0.0,0.0,0.0,0.0,0.0,0.0,0.0,0.0,0.0,0.0,0.0,0.0,0.0,0.0,0.0,0.0,0.0,0.0,0.0,0.0,0.0,0.0,0.0,0.0,0.0,0.0,0.0,0.0,0.0,0.0,0.0,0.0,0.0,0.0,0.0,0.0,0.0,0.0,0.0,0.0,0.0,0.0,0.0,0.0,0.0,0.0,0.0,0.0,0.0,0.0,0.0,0.0,0.0,0.0,0.0,0.0,0.0,0.0,0.0,0.0,0.0,0.0,0.0,0.0,0.0,0.0,0.0,0.0,0.0,0.0,0.0,0.0,0.0,0.0,0.0,0.0,0.0,0.0,0.0,0.0,0.0,0.0,0.0,0.0,0.0,0.0,0.0,0.0,0.0,0.0,0.0,0.0,0.0,0.0,0.0,0.0,0.0,0.0,0.0,0.0,0.0,0.0,0.0,0.0,0.0,0.0,0.0,0.0,0.0,0.0,0.0,0.0,0.0,0.0,0.0,0.0,0.0,0.0,0.0,0.0,0.0,0.0,0.0,0.0,0.0,0.0,0.0,0.0,0.0,0.0,0.0,0.0,0.0,0.0,0.0,0.0,0.0,0.0,0.0,0.0,0.0,0.0,0.0,0.0,0.0,0.0,0.0,0.0,0.0,0.0,0.0,0.0,0.0,0.0,0.0,0.0,0.0,0.0,0.0,0.0,0.0,0.0,0.0,0.0,0.0,0.0,0.0,0.0,0.0,0.0,0.0,0.0,0.0,0.0,0.0,0.0,0.0,0.0,0.0,0.0,0.0,0.0,0.0,0.0,0.0,0.0,0.0,0.0,0.0,0.0,0.0,0.0,0.0,0.0,0.0,0.0,0.0,0.0,0.0,0.0,0.0,0.0,0.0,0.0,0.0,0.0,0.0,0.0,0.0,0.0,0.0,0.0,0.0,0.0,0.0,0.0,0.0,0.0,0.0,0.0,0.0,0.0,0.0,0.0,0.0,0.0,0.0,0.0,0.0,0.0,0.0,0.0,0.0,0.0,0.0,0.0,0.0,0.0,0.0,0.0,0.0,0.0,0.0,0.0,0.0,0.0,0.0,0.0,0.0,0.0,0.0,0.0,0.0,0.0,0.0,0.0,0.0,0.0,0.0,0.0,0.0,0.0,0.0,0.0,0.0,0.0,0.0,0.0,0.0,0.0,0.0,0.0,0.0,0.0,0.0,0.0,0.0,0.0,0.0,0.0,0.0,0.0,0.0,0.0,0.0,0.0,0.0,0.0,0.0,0.0,0.0,0.0,0.0,0.0,0.0,0.0,0.0,0.0,0.0,0.0,0.0,0.0,0.0,0.0,0.0,0.0,0.0,0.0,0.0,0.0,0.0,0.0,0.0,0.0,0.0,0.0,0.0,0.0,0.0,0.0,0.0,0.0,0.0,0.0,0.0,0.0,0.0,0.0,0.0,0.0,0.0,0.0,0.0,0.0,0.0,0.0,0.0,0.0,0.0,0.0,0.0,0.0,0.0,0.0,0.0,0.0,0.0,0.0,0.0,0.0,0.0,0.0,0.0,0.0,0.0,0.0,0.0,0.0,0.0,0.0,0.0,0.0,0.0,0.0,0.0,0.0,0.0,0.0,0.0,0.0,0.0,0.0,0.0,0.0,0.0,0.0,0.0,0.0,0.0,0.0,0.0,0.0,0.0,0.0,0.0,0.0,0.0,0.0,0.0,0.0,0.0,0.0,0.0,0.0,0.0,0.0,0.0,0.0,0.0,0.0,0.0,0.0,0.0,0.0,0.0,0.0,0.0,0.0,0.0,0.0,0.0,0.0,0.0,0.0,0.0,0.0,0.0,0.0,0.0,0.0,0.0,0.0,0.0,0.0,0.0,0.0,0.0,0.0,0.0,0.0,0.0,0.0,0.0,0.0,0.0,0.0,0.0,0.0,0.0,0.0,0.0,0.0,0.0,0.0,0.0,0.0,0.0,0.0,0.0,0.0,0.0,0.0,0.0,0.0,0.0,0.0,0.0,0.0,0.0,0.0,0.0,0.0,0.0,0.0,0.0,0.0,0.0,0.0,0.0,0.0,0.0,0.0,0.0,0.0,0.0,0.0,0.0,0.0,0.0,0.0,0.0,0.0,0.0,0.0,0.0,0.0,0.0,0.0,0.0,0.0,0.0,0.0,0.0,0.0,0.0,0.0,0.0,0.0,0.0,0.0,0.0,0.0,0.0,0.0,0.0,0.0,0.0,0.0,0.0,0.0,0.0,0.0,0.0,0.0,0.0,0.0,0.0,0.0,0.0,0.0,0.0,0.0,0.0,0.0,0.0,0.0,0.0,0.0,0.0,0.0,0.0,0.0,0.0,0.0,0.0,0.0,0.0,0.0,0.0,0.0,0.0,0.0,0.0,0.0,0.0,0.0,0.0,0.0,0.0,0.0,0.0,0.0,0.0,0.0,0.0,0.0,0.0,0.0,0.0,0.0,0.0,0.0,0.0,0.0,0.0,0.0,0.0,0.0,0.0,0.0,0.0,0.0,0.0,0.0,0.0,0.0,0.0,0.0,0.0,0.0,0.0,0.0,0.0,0.0,0.0,0.0,0.0,0.0,0.0,0.0,0.0,0.0,0.0,0.0,0.0,0.0,0.0,0.0,0.0,0.0,0.0,0.0,0.0,0.0,0.0,0.0,0.0,0.0,0.0,0.0,0.0,0.0,0.0,0.0,0.0,0.0,0.0,0.0,0.0,0.0,0.0,0.0,0.0,0.0,-0.8113,0.0,0.0,0.0,0.0,0.0,0.0,0.0,0.0,0.0,0.0,0.0,0.0,0.0,0.0,0.0,0.0,0.0,0.0,0.0,0.0,0.0,0.0,0.0,0.0,0.0,0.0,0.0,0.0,0.0,0.0,0.0,0.0,0.0,0.0,0.0,0.0,0.0,0.0,0.0,0.0,0.0,0.0,0.0,0.0,0.0,0.0,0.0,0.0,0.0,0.0,0.0,0.0,0.0,0.0,0.0,0.0,0.0,0.0,0.0,0.0,0.0,0.0,0.0,0.0,0.0,0.0,0.0,0.0,0.0,0.0,0.0,0.0,0.0,0.0,0.0,0.0,0.0,0.0,0.0,0.0,0.0,0.0,0.0,0.0,0.0,0.0,0.0,0.0,0.0,0.0,0.0,0.0,0.0,0.0,0.0,0.0,0.0,0.0,0.0,0.0,0.0,0.0,0.0,0.0,0.0,0.0,0.0,0.0,0.0,0.0,-0.7524,-0.7787,-0.8044,-0.827,-0.8467,0.0,0.0,0.0,0.0,0.0,0.0,0.0,0.0,0.0,0.0,0.0,0.0,0.0,0.0,0.0,0.0,0.0,0.0,0.0,0.0,0.0,0.0,0.0,0.0,0.0,0.0,0.0,0.0,0.0,0.0,0.0,0.0,0.0,0.0,0.0,0.0,0.0,0.0,0.0,0.0,0.0,0.0,0.0,0.0,0.0,0.0,0.0,0.0,0.0,0.0,0.0,0.0,0.0,0.0,0.0,0.0,0.0,0.0,0.0,0.0,0.0,0.0,0.0,0.0,0.0,0.0,0.0,0.0,0.0,0.0,0.0,0.0,0.0,0.0,0.0,0.0,0.0,0.0,0.0,0.0,0.0,0.0,0.0,0.0,0.0,0.0,0.0,0.0,0.0,0.0,0.0,0.0,0.0,0.0,0.0,0.0,0.0,0.0,0.0,0.0,0.0,0.0,0.0,0.0,0.0,0.0,0.0,0.0,0.0,0.0,0.0,0.0,-0.8332,-0.861,-0.8817,0.0,0.0,0.0,0.0,0.0,0.0,0.0,0.0,0.0,0.0,0.0,0.0,0.0,0.0,0.0,0.0,0.0,0.0,0.0,0.0,0.0,0.0,0.0,0.0,0.0,0.0,0.0,0.0,0.0,0.0,0.0,0.0,0.0,0.0,0.0,0.0,0.0,0.0,0.0,0.0,0.0,0.0,0.0,0.0,0.0,0.0,0.0,0.0,0.0,0.0,0.0,0.0,0.0,0.0,0.0,0.0,0.0,0.0,0.0,0.0,0.0,0.0,0.0,0.0,0.0,0.0,0.0,0.0,0.0,0.0,0.0,0.0,0.0,0.0,0.0,0.0,0.0,0.0,0.0,0.0,0.0,0.0,0.0,0.0,0.0,0.0,0.0,0.0,0.0,0.0,0.0,0.0,0.0,0.0,0.0,0.0,0.0,0.0,0.0,0.0,0.0,0.0,0.0,0.0,0.0,0.0,0.0,0.0,0.0,0.0,-0.8036,-0.8353,-0.8688,0.0,-0.9239,0.0,0.0,0.0,0.0,0.0,0.0,0.0,0.0,0.0,0.0,0.0,0.0,0.0,0.0,0.0,0.0,0.0,0.0,0.0,0.0,0.0,0.0,0.0,0.0,0.0,0.0,0.0,0.0,0.0,0.0,0.0,0.0,0.0,0.0,0.0,0.0,0.0,0.0,0.0,0.0,0.0,0.0,0.0,0.0,0.0,0.0,0.0,0.0,0.0,0.0,0.0,0.0,0.0,0.0,0.0,0.0,0.0,0.0,0.0,0.0,0.0,0.0,0.0,0.0,0.0,0.0,0.0,0.0,0.0,0.0,0.0,0.0,0.0,0.0,0.0,0.0,0.0,0.0,0.0,0.0,0.0,0.0,0.0,0.0,0.0,0.0,0.0,0.0,0.0,0.0,0.0,0.0,0.0,0.0,0.0,0.0,0.0,0.0,0.0,0.0,0.0,0.0,0.0,0.0,0.0,0.0,0.0,0.0,0.0,0.0,-0.8332,-0.857,-0.9085,-0.9415,0.0,0.0,0.0,0.0,0.0,0.0,0.0,0.0,0.0,0.0,0.0,0.0,0.0,0.0,0.0,0.0,0.0,0.0,0.0,0.0,0.0,0.0,0.0,0.0,0.0,0.0,0.0,0.0,0.0,0.0,0.0,0.0,0.0,0.0,0.0,0.0,0.0,0.0,0.0,0.0,0.0,0.0,0.0,0.0,0.0,0.0,0.0,0.0,0.0,0.0,0.0,0.0,0.0,0.0,0.0,0.0,0.0,0.0,0.0,0.0,0.0,0.0,0.0,0.0,0.0,0.0,0.0,0.0,0.0,0.0,0.0,0.0,0.0,0.0,0.0,0.0,0.0,0.0,0.0,0.0,0.0,0.0,0.0,0.0,0.0,0.0,0.0,0.0,0.0,0.0,0.0,0.0,0.0,0.0,0.0,0.0,0.0,0.0,0.0,0.0,0.0,0.0,0.0,0.0,0.0,0.0,0.0,0.0,0.0,0.0,-0.827,-0.8651,-0.8967,-0.9446,-0.9723,-0.9782,0.0,0.0,0.0,0.0,0.0,0.0,0.0,0.0,0.0,0.0,0.0,0.0,0.0,0.0,0.0,0.0,0.0,0.0,0.0,0.0,0.0,0.0,0.0,0.0,0.0,0.0,0.0,0.0,0.0,0.0,0.0,0.0,0.0,0.0,0.0,0.0,0.0,0.0,0.0,0.0,0.0,0.0,0.0,0.0,0.0,0.0,0.0,0.0,0.0,0.0,0.0,0.0,0.0,0.0,0.0,0.0,0.0,0.0,0.0,0.0,0.0,0.0,0.0,0.0,0.0,0.0,0.0,0.0,0.0,0.0,0.0,0.0,0.0,0.0,0.0,0.0,0.0,0.0,0.0,0.0,0.0,0.0,0.0,0.0,0.0,0.0,0.0,0.0,0.0,0.0,0.0,0.0,0.0,0.0,0.0,0.0,0.0,0.0,0.0,0.0,0.0,0.0,0.0,0.0,0.0,0.0,0.0,0.0,-0.8175,-0.8521,-0.8987,-0.9614,-0.9683,-0.9773,0.0,0.0,0.0,0.0,0.0,0.0,0.0,0.0,0.0,0.0,0.0,0.0,0.0,0.0,0.0,0.0,0.0,0.0,0.0,0.0,0.0,0.0,0.0,0.0,0.0,0.0,0.0,0.0,0.0,0.0,0.0,0.0,0.0,0.0,0.0,0.0,0.0,0.0,0.0,0.0,0.0,0.0,0.0,0.0,0.0,0.0,0.0,0.0,0.0,0.0,0.0,0.0,0.0,0.0,0.0,0.0,0.0,0.0,0.0,0.0,0.0,0.0,0.0,0.0,0.0,0.0,0.0,0.0,0.0,0.0,0.0,0.0,0.0,0.0,0.0,0.0,0.0,0.0,0.0,0.0,0.0,0.0,0.0,0.0,0.0,0.0,0.0,0.0,0.0,0.0,0.0,0.0,0.0,0.0,0.0,0.0,0.0,0.0,0.0,0.0,0.0,0.0,0.0,0.0,0.0,0.0,0.0,0.0,0.0,-0.8386,-0.8918,-0.9377,-0.9683,-0.9862,-0.999,0.0,0.0,0.0,0.0,0.0,0.0,0.0,0.0,0.0,0.0,0.0,0.0,0.0,0.0,0.0,0.0,0.0,0.0,0.0,0.0,0.0,0.0,0.0,0.0,0.0,0.0,0.0,0.0,0.0,0.0,0.0,0.0,0.0,0.0,0.0,0.0,0.0,0.0,0.0,0.0,0.0,0.0,0.0,0.0,0.0,0.0,0.0,0.0,0.0,0.0,0.0,0.0,0.0,0.0,0.0,0.0,0.0,0.0,0.0,0.0,0.0,0.0,0.0,0.0,0.0,0.0,0.0,0.0,0.0,0.0,0.0,0.0,0.0,0.0,0.0,0.0,0.0,0.0,0.0,0.0,0.0,0.0,0.0,0.0,0.0,0.0,0.0,0.0,0.0,0.0,0.0,0.0,0.0,0.0,0.0,0.0,0.0,0.0,0.0,0.0,0.0,0.0,0.0,0.0,0.0,0.0,0.0,0.0,0.0,-0.9022,0.0,-1.0153,-1.0296,-1.0386,-1.0419,0.0,0.0,0.0,0.0,0.0,0.0,0.0,0.0,0.0,0.0,0.0,0.0,0.0,0.0,0.0,0.0,0.0,0.0,0.0,0.0,0.0,0.0,0.0,0.0,0.0,0.0,0.0,0.0,0.0,0.0,0.0,0.0,0.0,0.0,0.0,0.0,0.0,0.0,0.0,0.0,0.0,0.0,0.0,0.0,0.0,0.0,0.0,0.0,0.0,0.0,0.0,0.0,0.0,0.0,0.0,0.0,0.0,0.0,0.0,0.0,0.0,0.0,0.0,0.0,0.0,0.0,0.0,0.0,0.0,0.0,0.0,0.0,0.0,0.0,0.0,0.0,0.0,0.0,0.0,0.0,0.0,0.0,0.0,0.0,0.0,0.0,0.0,0.0,0.0,0.0,0.0,0.0,0.0,0.0,0.0,0.0,0.0,0.0,0.0,0.0,0.0,0.0,0.0,0.0,0.0,0.0,0.0,0.0,-0.9077,-1.0071,-1.0876,-1.1361,-1.1565,-1.1259,-1.1103,0.0,0.0,0.0,0.0,0.0,0.0,0.0,0.0,0.0,0.0,0.0,0.0,0.0,0.0,0.0,0.0,0.0,0.0,0.0,0.0,0.0,0.0,0.0,0.0,0.0,0.0,0.0,0.0,0.0,0.0,0.0,0.0,0.0,0.0,0.0,0.0,0.0,0.0,0.0,0.0,0.0,0.0,0.0,0.0,0.0,0.0,0.0,0.0,0.0,0.0,0.0,0.0,0.0,0.0,0.0,0.0,0.0,0.0,0.0,0.0,0.0,0.0,0.0,0.0,0.0,0.0,0.0,0.0,0.0,0.0,0.0,0.0,0.0,0.0,0.0,0.0,0.0,0.0,0.0,0.0,0.0,0.0,0.0,0.0,0.0,0.0,0.0,0.0,0.0,0.0,0.0,0.0,0.0,0.0,0.0,0.0,0.0,0.0,0.0,0.0,0.0,0.0,0.0,0.0,0.0,0.0,0.0,0.0,0.0,-1.1094,-1.1516,-1.1865,-1.2007,-1.1865,-1.1673,0.0,0.0,0.0,0.0,0.0,0.0,0.0,0.0,0.0,0.0,0.0,0.0,0.0,0.0,0.0,0.0,0.0,0.0,0.0,0.0,0.0,0.0,0.0,0.0,0.0,0.0,0.0,0.0,0.0,0.0,0.0,0.0,0.0,0.0,0.0,0.0,0.0,0.0,0.0,0.0,0.0,0.0,0.0,0.0,0.0,0.0,0.0,0.0,0.0,0.0,0.0,0.0,0.0,0.0,0.0,0.0,0.0,0.0,0.0,0.0,0.0,0.0,0.0,0.0,0.0,0.0,0.0,0.0,0.0,0.0,0.0,0.0,0.0,0.0,0.0,0.0,0.0,0.0,0.0,0.0,0.0,0.0,0.0,0.0,0.0,0.0,0.0,0.0,0.0,0.0,0.0,0.0,0.0,0.0,0.0,0.0,0.0,0.0,0.0,0.0,0.0,0.0,0.0,0.0,0.0,0.0,0.0,0.0,0.0,-1.307,-1.3279,-1.3418,-1.351,-1.3128,-1.2769,-1.2412,0.0,0.0,0.0,0.0,0.0,0.0,0.0,0.0,0.0,0.0,0.0,0.0,0.0,0.0,0.0,0.0,0.0,0.0,0.0,0.0,0.0,0.0,0.0,0.0,0.0,0.0,0.0,0.0,0.0,0.0,0.0,0.0,0.0,0.0,0.0,0.0,0.0,0.0,0.0,0.0,0.0,0.0,0.0,0.0,0.0,0.0,0.0,0.0,0.0,0.0,0.0,0.0,0.0,0.0,0.0,0.0,0.0,0.0,0.0,0.0,0.0,0.0,0.0,0.0,0.0,0.0,0.0,0.0,0.0,0.0,0.0,0.0,0.0,0.0,0.0,0.0,0.0,0.0,0.0,0.0,0.0,0.0,0.0,0.0,0.0,0.0,0.0,0.0,0.0,0.0,0.0,0.0,0.0,0.0,0.0,0.0,0.0,0.0,0.0,0.0,0.0,0.0,0.0,0.0,0.0,0.0,0.0,0.0,-1.5781,-1.5829,-1.5785,-1.5709,-1.479,-1.4206,0.0,0.0,0.0,0.0,0.0,0.0,0.0,0.0,0.0,0.0,0.0,0.0,0.0,0.0,0.0,0.0,0.0,0.0,0.0,0.0,0.0,0.0,0.0,0.0,0.0,0.0,0.0,0.0,0.0,0.0,0.0,0.0,0.0,0.0,0.0,0.0,0.0,0.0,0.0,0.0,0.0,0.0,0.0,0.0,0.0,0.0,0.0,0.0,0.0,0.0,0.0,0.0,0.0,0.0,0.0,0.0,0.0,0.0,0.0,0.0,0.0,0.0,0.0,0.0,0.0,0.0,0.0,0.0,0.0,0.0,0.0,0.0,0.0,0.0,0.0,0.0,0.0,0.0,0.0,0.0,0.0,0.0,0.0,0.0,0.0,0.0,0.0,0.0,0.0,0.0,0.0,0.0,0.0,0.0,0.0,0.0,0.0,0.0,0.0,0.0,0.0,0.0,0.0,0.0,0.0,0.0,0.0,0.0,0.0,-1.7321,-1.7603,-1.7198,-1.6157,-1.5323,-1.4649,0.0,0.0,0.0,0.0,0.0,0.0,0.0,0.0,0.0,0.0,0.0,0.0,0.0,0.0,0.0,0.0,0.0,0.0,0.0,0.0,0.0,0.0,0.0,0.0,0.0,0.0,0.0,0.0,0.0,0.0,0.0,0.0,0.0,0.0,0.0,0.0,0.0,0.0,0.0,0.0,0.0,0.0,0.0,0.0,0.0,0.0,0.0,0.0,0.0,0.0,0.0,0.0,0.0,0.0,0.0,0.0,0.0,0.0,0.0,0.0,0.0,0.0,0.0,0.0,0.0,0.0,0.0,0.0,0.0,0.0,0.0,0.0,0.0,0.0,0.0,0.0,0.0,0.0,0.0,0.0,0.0,0.0,0.0,0.0,0.0,0.0,0.0,0.0,0.0,0.0,0.0,0.0,0.0,0.0,0.0,0.0,0.0,0.0,0.0,0.0,0.0,0.0,0.0,0.0,0.0,0.0,0.0,0.0,-1.6877,-1.843,-1.8918,-1.8623,-1.7508,-1.6505,-1.5662,0.0,0.0,0.0,0.0,0.0,0.0,0.0,0.0,0.0,0.0,0.0,0.0,0.0,0.0,0.0,0.0,0.0,0.0,0.0,0.0,0.0,0.0,0.0,0.0,0.0,0.0,0.0,0.0,0.0,0.0,0.0,0.0,0.0,0.0,0.0,0.0,0.0,0.0,0.0,0.0,0.0,0.0,0.0,0.0,0.0,0.0,0.0,0.0,0.0,0.0,0.0,0.0,0.0,0.0,0.0,0.0,0.0,0.0,0.0,0.0,0.0,0.0,0.0,0.0,0.0,0.0,0.0,0.0,0.0,0.0,0.0,0.0,0.0,0.0,0.0,0.0,0.0,0.0,0.0,0.0,0.0,0.0,0.0,0.0,0.0,0.0,0.0,0.0,0.0,0.0,0.0,0.0,0.0,0.0,0.0,0.0,0.0,0.0,0.0,0.0,0.0,0.0,0.0,0.0,0.0,0.0,0.0,0.0,-1.772,-1.9214,-1.9859,-1.9912,-1.9197,-1.7947,-1.6856,0.0,0.0,0.0,0.0,0.0,0.0,0.0,0.0,0.0,0.0,0.0,0.0,0.0,0.0,0.0,0.0,0.0,0.0,0.0,0.0,0.0,0.0,0.0,0.0,0.0,0.0,0.0,0.0,0.0,0.0,0.0,0.0,0.0,0.0,0.0,0.0,0.0,0.0,0.0,0.0,0.0,0.0,0.0,0.0,0.0,0.0,0.0,0.0,0.0,0.0,0.0,0.0,0.0,0.0,0.0,0.0,0.0,0.0,0.0,0.0,0.0,0.0,0.0,0.0,0.0,0.0,0.0,0.0,0.0,0.0,0.0,0.0,0.0,0.0,0.0,0.0,0.0,0.0,0.0,0.0,0.0,0.0,0.0,0.0,0.0,0.0,0.0,0.0,0.0,0.0,0.0,0.0,0.0,0.0,0.0,0.0,0.0,0.0,0.0,0.0,0.0,0.0,0.0,0.0,0.0,0.0,0.0,0.0,-1.8532,-2.0067,-2.0279,-2.0233,-1.997,-1.8585,-1.7182,0.0,0.0,0.0,0.0,0.0,0.0,0.0,0.0,0.0,0.0,0.0,0.0,0.0,0.0,0.0,0.0,0.0,0.0,0.0,0.0,0.0,0.0,0.0,0.0,0.0,0.0,0.0,0.0,0.0,0.0,0.0,0.0,0.0,0.0,0.0,0.0,0.0,0.0,0.0,0.0,0.0,0.0,0.0,0.0,0.0,0.0,0.0,0.0,0.1895,0.0,0.0,0.0,0.0,0.0,0.0,0.0,0.0,0.0,0.0,0.0,0.0,0.0,0.0,0.0,0.0,0.0,0.0,0.0,0.0,0.0,0.0,0.0,0.0,0.0,0.0,0.0,0.0,0.0,0.0,0.0,0.0,0.0,0.0,0.0,0.0,0.0,0.0,0.0,0.0,0.0,0.0,0.0,0.0,0.0,0.0,0.0,0.0,0.0,0.0,0.0,0.0,0.0,0.0,0.0,0.0,0.0,0.0,0.0,-1.9368,-2.0464,-2.105,-2.0985,-2.0217,-1.9224,-1.7767,0.0,0.0,0.0,0.0,0.0,0.0,0.0,0.0,0.0,0.0,0.0,0.0,0.0,0.0,0.0,0.0,0.0,0.0,0.0,0.0,0.0,0.0,0.0,0.0,0.0,0.0,0.0,0.0,0.0,0.0,0.0,0.0,0.0,0.0,0.0,0.0,0.0,0.0,0.0,0.0,0.0,0.0,0.0,0.0,0.0,0.0,0.0,0.0,0.0,0.0,0.0,0.0,0.0,0.0,0.0,0.0,0.0,0.0,0.0,0.0,0.0,0.0,0.0,0.0,0.0,0.0,0.0,0.0,0.0,0.0,0.0,0.0,0.0,0.0,0.0,0.0,0.0,0.0,0.0,0.0,0.0,0.0,0.0,0.0,0.0,0.0,0.0,0.0,0.0,0.0,0.0,0.0,0.0,0.0,0.0,0.0,0.0,0.0,0.0,0.0,0.0,0.0,0.0,0.0,0.0,0.0,0.0,-1.8714,-2.0129,-2.0672,-2.1801,-2.1699,-2.0269,-1.9749,-1.8301,-1.5737,0.0,0.0,0.0,0.0,0.0,0.0,0.0,0.0,0.0,0.0,0.0,0.0,0.0,0.0,0.0,0.0,0.0,0.0,0.0,0.0,0.0,0.0,0.0,0.0,0.0,0.0,0.0,0.0,0.0,0.0,0.0,0.0,0.0,0.0,0.0,0.0,0.0,0.0,-0.0336,-0.0168,0.0,0.0,0.0,0.0,0.0,0.0,0.0,0.0,0.1433,0.0,0.0,0.0,0.0,0.0,0.0,0.0,0.0,0.0,0.0,0.0,0.0,0.0,0.0,0.0,0.0,0.0,0.0,0.0,0.0,0.0,0.0,0.0,0.0,0.0,0.0,0.0,0.0,0.0,0.0,0.0,0.0,0.0,0.0,0.0,0.0,0.0,0.0,0.0,0.0,0.0,0.0,0.0,0.0,0.0,0.0,0.0,0.0,0.0,0.0,0.0,0.0,0.0,0.0,0.0,0.0,-1.6837,-1.9329,-2.0734,-2.0958,-2.1891,-2.1759,-2.0415,-1.9807,-1.8176,-1.5525,0.0,0.0,0.0,0.0,0.0,0.0,0.0,0.0,0.0,0.0,0.0,0.0,0.0,0.0,0.0,0.0,0.0,0.0,0.0,0.0,0.0,0.0,0.0,0.0,0.0,0.0,0.0,0.0,0.0,0.0,0.0,0.0,0.0,0.0,0.0,0.0,0.0,0.0,0.0,-0.0353,-0.0151,0.0,0.0,0.0,0.0,0.0,0.0,0.0,0.0,0.119,0.0,0.0,0.0,0.0,0.0,0.0,0.0,0.0,0.0,0.0,0.0,0.0,0.0,0.0,0.0,0.0,0.0,0.0,0.0,0.0,0.0,0.0,0.0,0.0,0.0,0.0,0.0,0.0,0.0,0.0,0.0,0.0,0.0,0.0,0.0,0.0,0.0,0.0,0.0,0.0,0.0,0.0,0.0,0.0,0.0,0.0,0.0,0.0,0.0,0.0,0.0,0.0,0.0,0.0,0.0,-1.7204,-1.9736,-2.1031,-2.1027,-2.201,-2.1879,-2.0461,-1.976,-1.8113,0.0,0.0,0.0,0.0,0.0,0.0,0.0,0.0,0.0,0.0,0.0,0.0,0.0,0.0,0.0,0.0,0.0,0.0,0.0,0.0,0.0,0.0,0.0,0.0,0.0,0.0,0.0,0.0,0.0,0.0,0.0,0.0,0.0,0.0,0.0,0.0,0.0,0.0,0.0,0.0,-0.0572,-0.0407,-0.014,0.0,0.0,0.0,0.0,0.0,0.0,0.0777,0.0796,0.0,0.0,0.0,0.0,0.0,0.0,0.0,0.0,0.0,0.0,0.0,0.0,0.0,0.0,0.0,0.0,0.0,0.0,0.0,0.0,0.0,0.0,0.0,0.0,0.0,0.0,0.0,0.0,0.0,0.0,0.0,0.0,0.0,0.0,0.0,0.0,0.0,0.0,0.0,0.0,0.0,0.0,0.0,0.0,0.0,0.0,0.0,0.0,0.0,0.0,0.0,0.0,0.0,0.0,0.0,-1.7569,-2.0085,-2.1325,-2.1181,-2.2189,-2.2012,-2.0478,-1.9772,-1.8073,0.0,0.0,0.0,0.0,0.0,0.0,0.0,0.0,0.0,0.0,0.0,0.0,0.0,0.0,0.0,0.0,0.0,0.0,0.0,0.0,0.0,0.0,0.0,0.0,0.0,0.0,0.0,0.0,0.0,0.0,0.0,0.0,0.0,0.0,0.0,0.0,0.0,0.0,0.0,0.0,0.0,-0.0712,-0.0453,-0.0386,0.0,0.0,0.0,0.0,0.0378,0.0419,0.0,0.0,0.0,0.0,0.0,0.0,0.0,0.0,0.0,0.0,0.0,0.0,0.0,0.0,0.0,0.0,0.0,0.0,0.0,0.0,0.0,0.0,0.0,0.0,0.0,0.0,0.0,0.0,0.0,0.0,0.0,0.0,0.0,0.0,0.0,0.0,0.0,0.0,0.0,0.0,0.0,0.0,0.0,0.0,0.0,0.0,0.0,0.0,0.0,0.0,0.0,0.0,0.0,0.0,0.0,0.0,-1.7991,-2.0496,-2.1773,-2.1658,-2.2455,-2.2137,-2.0639,-1.9954,-1.8227,0.0,0.0,0.0,0.0,0.0,0.0,0.0,0.0,0.0,0.0,0.0,0.0,0.0,0.0,0.0,0.0,0.0,0.0,0.0,0.0,0.0,0.0,0.0,0.0,0.0,0.0,0.0,0.0,0.0,0.0,0.0,0.0,0.0,0.0,0.0,0.0,0.0,0.0,0.0,0.0,0.0,-0.1123,-0.0875,-0.0872,-0.0761,0.0,0.0,-0.023,0.0021,0.0105,0.0,0.0,0.0,0.0,0.0,0.0,0.0,0.0,0.0,0.0,0.0,0.0,0.0,0.0,0.0,0.0,0.0,0.0,0.0,0.0,0.0,0.0,0.0,0.0,0.0,0.0,0.0,0.0,0.0,0.0,0.0,0.0,0.0,0.0,0.0,0.0,0.0,0.0,0.0,0.0,0.0,0.0,0.0,0.0,0.0,0.0,0.0,0.0,0.0,0.0,0.0,0.0,0.0,0.0,0.0,-1.7883,-1.9319,-2.1012,-2.1995,-2.2226,-2.2677,-2.2167,-2.0656,-1.9925,-1.8215,0.0,0.0,0.0,0.0,0.0,0.0,0.0,0.0,0.0,0.0,0.0,0.0,0.0,0.0,0.0,0.0,0.0,0.0,0.0,0.0,0.0,0.0,0.0,0.0,0.0,0.0,0.0,0.0,0.0,0.0,0.0,0.0,0.0,0.0,0.0,0.0,0.0,0.0,0.0,0.0,0.0,0.0,-0.1499,-0.143,0.0,0.0,0.0,-0.0676,-0.0328,0.0,0.0,0.0,0.0,0.0,0.0,0.0,0.0,0.0,0.0,0.0,0.0,0.0,0.0,0.0,0.0,0.0,0.0,0.0,0.0,0.0,0.0,0.0,0.0,0.0,0.0,0.0,0.0,0.0,0.0,0.0,0.0,0.0,0.0,0.0,0.0,0.0,0.0,0.0,0.0,0.0,0.0,0.0,0.0,0.0,0.0,0.0,0.0,0.0,0.0,0.0,0.0,0.0,0.0,0.0,0.0,0.0,-2.0309,-2.1467,-2.2234,-2.2639,-2.2891,-2.2286,-2.0737,-1.9995,0.0,0.0,0.0,0.0,0.0,0.0,0.0,0.0,0.0,0.0,0.0,0.0,0.0,0.0,0.0,0.0,0.0,0.0,0.0,0.0,0.0,0.0,0.0,0.0,0.0,0.0,0.0,-0.1761,0.0,0.0,0.0,0.0,0.0,0.0,0.0,0.0,0.0,0.0,0.0,0.0,0.0,0.0,-0.2141,-0.2028,-0.193,-0.1705,0.0,0.0,-0.1075,-0.0763,-0.0651,-0.0561,0.0,0.0,0.0,0.0,0.0,0.0,0.0,0.0,0.0,0.0,0.0,0.0,0.0,0.0,0.0,0.0,0.0,0.0,0.0,0.0,0.0,0.0,0.0,0.0,0.0,0.0,0.0,0.0,0.0,0.0,0.0,0.0,0.0,0.0,0.0,0.0,0.0,0.0,0.0,0.0,0.0,0.0,0.0,0.0,0.0,0.0,0.0,0.0,0.0,0.0,0.0,0.0,0.0,0.0,0.0,-2.0461,-2.1733,-2.2495,-2.2783,-2.317,-2.2564,-2.095,-2.0286,-1.8811,0.0,0.0,0.0,0.0,0.0,0.0,0.0,0.0,0.0,0.0,0.0,0.0,0.0,0.0,0.0,0.0,0.0,0.0,0.0,0.0,0.0,0.0,0.0,0.0,0.0,0.0,0.0,0.0,0.0,0.0,0.0,0.0,0.0,0.0,0.0,0.0,0.0,0.0,0.0,0.0,0.0,-0.2592,-0.2389,-0.2301,-0.214,0.0,0.0,-0.1344,-0.1254,-0.1053,-0.0829,-0.0697,0.0,0.0,0.0,0.0,0.0,0.0,0.0,0.0,0.0,0.0,0.0,0.0,0.0,0.0,0.0,0.0,0.0,0.0,0.0,0.0,0.0,0.0,0.0,0.0,0.0,0.0,0.0,0.0,0.0,0.0,0.0,0.0,0.0,0.0,0.0,0.0,0.0,0.0,0.0,0.0,0.0,0.0,0.0,0.0,0.0,0.0,0.0,0.0,0.0,0.0,0.0,0.0,0.0,-1.928,-2.1616,-2.2152,-2.2693,-2.327,-2.3378,-2.2757,-2.1414,-2.058,-1.9171,0.0,0.0,0.0,0.0,0.0,0.0,0.0,0.0,0.0,0.0,0.0,0.0,0.0,0.0,0.0,0.0,0.0,0.0,0.0,0.0,0.0,0.0,0.0,0.0,0.0,0.0,0.0,0.0,-0.3385,-0.3487,-0.3418,0.0,0.0,0.0,0.0,0.0,0.0,0.0,0.0,0.0,0.0,-0.3076,-0.2922,-0.2766,0.0,0.0,-0.204,-0.1839,-0.1636,-0.142,-0.1232,-0.1095,-0.1047,0.0,0.0,0.0,0.0,0.0,0.0,0.0,0.0,0.0,0.0,0.0,0.0,0.0,0.0,0.0,0.0,0.0,0.0,0.0,0.0,0.0,0.0,0.0,0.0,0.0,0.0,0.0,0.0,0.0,0.0,0.0,0.0,0.0,0.0,0.0,0.0,0.0,0.0,0.0,0.0,0.0,0.0,0.0,0.0,0.0,0.0,0.0,0.0,0.0,0.0,0.0,0.0,-1.9748,-2.2389,-2.2558,-2.2953,-2.3603,-2.3509,-2.2916,-2.182,-2.0978,-1.9755,0.0,0.0,0.0,0.0,0.0,0.0,0.0,0.0,0.0,0.0,0.0,0.0,0.0,0.0,0.0,0.0,0.0,0.0,0.0,0.0,0.0,0.0,0.0,0.0,0.0,0.0,0.0,0.0,-0.403,-0.4052,-0.3943,0.0,0.0,0.0,0.0,0.0,0.0,0.0,0.0,0.0,0.0,-0.3661,-0.3497,-0.332,-0.3086,-0.2784,-0.2555,-0.2326,-0.2044,-0.1856,-0.1671,-0.1455,0.0,0.0,0.0,0.0,0.0,0.0,0.0,0.0,0.0,0.0,0.0,0.0,0.0,0.0,0.0,0.0,0.0,0.0,0.0,0.0,0.0,0.0,0.0,0.0,0.0,0.0,0.0,0.0,0.0,0.0,-1.4709,0.0,0.0,0.0,0.0,0.0,0.0,0.0,0.0,0.0,0.0,0.0,0.0,0.0,0.0,0.0,0.0,0.0,0.0,0.0,0.0,0.0,0.0,-2.0283,-2.2362,-2.2897,-2.3301,-2.356,-2.3586,-2.3048,-2.1945,-2.1564,-2.0564,-1.8873,0.0,0.0,0.0,0.0,0.0,0.0,0.0,0.0,0.0,0.0,0.0,0.0,0.0,0.0,0.0,0.0,0.0,0.0,0.0,0.0,0.0,0.0,0.0,0.0,0.0,0.0,-0.4539,-0.4596,-0.4556,0.0,0.0,0.0,0.0,0.0,0.0,0.0,0.0,0.0,0.0,-0.4353,-0.438,-0.4108,-0.3956,-0.3723,-0.3329,-0.3053,-0.2806,-0.253,-0.2361,-0.2139,0.0,0.0,0.0,0.0,0.0,0.0,0.0,0.0,0.0,0.0,0.0,0.0,0.0,0.0,0.0,0.0,0.0,0.0,0.0,0.0,0.0,0.0,0.0,0.0,0.0,0.0,0.0,-1.8508,-1.8578,0.0,0.0,0.0,0.0,0.0,0.0,0.0,0.0,0.0,0.0,0.0,-2.3344,-2.3342,0.0,0.0,0.0,0.0,0.0,0.0,0.0,0.0,0.0,0.0,0.0,0.0,-2.063,-2.2213,-2.2797,-2.3241,-2.3573,-2.3522,-2.3195,-2.2588,-2.1949,-2.0462,-1.812,0.0,0.0,0.0,0.0,0.0,0.0,0.0,0.0,0.0,0.0,0.0,0.0,0.0,0.0,0.0,0.0,0.0,0.0,0.0,0.0,0.0,0.0,0.0,0.0,0.0,-0.5031,0.0,0.0,0.0,0.0,0.0,0.0,0.0,0.0,0.0,0.0,0.0,-0.4334,-0.4387,-0.4509,-0.4515,-0.4367,-0.4264,-0.4087,0.0,0.0,0.0,0.0,0.0,0.0,0.0,0.0,0.0,0.0,0.0,0.0,0.0,0.0,0.1287,0.1774,0.2136,0.2461,0.2784,0.0,0.0,0.0,0.0,0.0,0.0,0.0,0.0,0.0,0.0,0.0,0.0,0.0,0.0,-2.1095,0.0,-2.0562,0.0,0.0,0.0,0.0,0.0,0.0,0.0,0.0,-2.4975,-2.5657,-2.5853,-2.5853,-2.5422,0.0,-2.3957,-2.2386,0.0,0.0,0.0,0.0,0.0,0.0,0.0,0.0,-2.1038,-2.236,-2.2938,-2.3315,-2.3526,-2.3463,-2.3241,-2.2896,-2.2065,-2.0575,-1.8397,-1.7208,-1.5789,0.0,0.0,0.0,0.0,0.0,0.0,0.0,0.0,0.0,0.0,0.0,0.0,0.0,0.0,0.0,0.0,0.0,0.0,0.0,0.0,0.0,0.0,0.0,-0.5862,0.0,0.0,0.0,0.0,0.0,0.0,0.0,0.0,0.0,-0.4254,-0.4549,-0.4754,-0.4704,-0.4856,-0.4896,-0.4742,0.0,0.0,0.0,0.0,0.0,0.0,0.0,-0.2952,-0.2705,-0.2425,-0.2125,-0.17,-0.1048,-0.0435,0.0054,0.0,0.0,0.158,0.1994,0.2394,0.2791,0.3068,0.3421,0.3944,0.4388,0.4779,0.0,0.0,0.0,0.0,0.0,0.0,0.0,0.0,-2.4128,-2.401,0.0,-2.3617,0.0,0.0,0.0,0.0,0.0,-2.3828,0.0,0.0,-2.6958,-2.7612,-2.8268,-2.8283,-2.7869,-2.706,-2.682,-2.6174,-2.5021,-2.2075,0.0,0.0,0.0,0.0,0.0,0.0,-2.1597,-2.2783,-2.3368,-2.359,-2.3441,-2.3441,-2.3278,-2.2896,-2.1945,-2.0879,-1.9772,-1.8368,-1.6999,-1.5605,-1.4106,0.0,0.0,0.0,0.0,0.0,0.0,0.0,0.0,0.0,0.0,0.0,0.0,0.0,0.0,0.0,0.0,0.0,0.0,0.0,0.0,-0.6534,0.0,0.0,0.0,0.0,0.0,0.0,0.0,0.0,0.0,0.0,-0.4789,-0.4952,-0.5122,-0.5126,0.0,0.0,0.0,0.0,-0.5026,-0.4761,-0.4615,-0.4363,-0.3891,-0.366,-0.3355,-0.2886,0.0,0.0,-0.1638,-0.1235,-0.0768,-0.0123,0.0552,0.107,0.1334,0.1741,0.2141,0.2562,0.2867,0.3182,0.3708,0.4185,0.4624,-2.8719,0.0,0.0,0.0,0.0,-2.6678,-2.6639,-2.6599,-2.6574,-2.6441,-2.6216,-2.6064,0.0,0.0,0.0,0.0,0.0,0.0,-2.7549,-2.8853,-2.9609,-3.0206,-3.0621,-3.0622,-3.0369,-2.9879,-2.8699,-2.797,-2.7598,-2.585,-2.4013,-2.2149,0.0,0.0,0.0,0.0,-2.2861,-2.3246,-2.4131,-2.4392,-2.3968,-2.3876,-2.3521,-2.2921,-2.2065,-2.1367,-2.0795,-1.9224,-1.7924,-1.6883,-1.5566,0.0,0.0,0.0,0.0,0.0,0.0,0.0,0.0,0.0,0.0,0.0,0.0,0.0,0.0,0.0,0.0,0.0,0.0,0.0,-0.7732,-0.7597,-0.7428,0.0,0.0,0.0,0.0,0.0,0.0,0.0,0.0,0.0,-0.6109,-0.593,-0.577,0.0,0.0,-0.5742,-0.5478,-0.545,-0.5412,-0.5214,-0.5144,0.0,-0.4332,-0.4102,-0.3829,-0.3313,-0.282,-0.2298,-0.168,-0.1252,-0.0833,-0.0309,0.0309,0.0884,0.1211,0.1778,0.2324,0.2734,0.3069,0.3447,0.3989,0.4438,0.4889,-3.2052,-3.06,-2.9516,-2.8991,-2.8895,-2.9139,-2.9158,-2.8951,-2.9222,-2.9248,-2.9089,-2.8622,-2.8438,-2.8397,-2.7971,0.0,0.0,0.0,-2.9764,-3.0778,-3.153,-3.1954,-3.2152,-3.2105,-3.1917,-3.1622,-3.0532,-2.9944,-2.9791,-2.8395,-2.6884,-2.5299,0.0,0.0,-2.2895,-2.3526,-2.3956,-2.4167,-2.4709,-2.4887,-2.457,-2.4211,-2.3635,-2.2934,-2.2388,-2.1849,-2.1278,-1.9931,-1.8743,-1.7873,-1.6539,-1.5212,0.0,0.0,0.0,0.0,0.0,0.0,0.0,0.0,0.0,0.0,0.0,-0.6588,0.0,0.0,0.0,0.0,-0.8101,-0.8394,-0.8814,-0.8583,0.0,0.0,0.0,0.0,0.0,0.0,0.0,-0.676,-0.6865,-0.6973,-0.7062,-0.6801,-0.6481,-0.6149,-0.6141,-0.6078,-0.5835,0.0,-0.5725,-0.5506,-0.543,-0.5188,-0.4573,-0.4344,-0.4023,-0.3439,-0.2905,-0.2375,-0.1827,-0.1389,-0.0927,-0.0384,0.0224,0.0764,0.1164,0.1824,0.2389,0.2753,0.3108,0.3509,0.399,0.4424,0.4873,-3.4798,-3.4289,-3.1782,-3.0672,-3.0624,-3.1194,-3.1384,-3.1293,-3.1914,-3.2159,-3.2085,-3.1259,-3.0848,-3.079,-2.9883,0.0,-3.0378,-3.0999,-3.1634,-3.2314,-3.2876,-3.314,-3.317,-3.3054,-3.2849,-3.2646,-3.2263,-3.1909,-3.1542,-3.003,-2.9013,-2.8519,-2.6383,-2.5132,-2.4801,-2.4687,-2.489,-2.5345,-2.5262,-2.5173,-2.5052,-2.4375,-2.3623,-2.2921,-2.2769,-2.2311,-2.153,-2.0517,-1.9546,-1.8622,-1.7169,-1.601,-1.5172,0.0,0.0,0.0,0.0,0.0,0.0,0.0,0.0,0.0,0.0,0.0,0.0,0.0,0.0,0.0,-0.944,0.0,-0.9583,-0.9437,0.0,0.0,0.0,-0.8569,-0.7884,-0.783,-0.7747,-0.7524,0.0,0.0,-0.7726,-0.7585,-0.7231,-0.6623,-0.6583,-0.6509,-0.6173,-0.6112,-0.5991,-0.5723,-0.5536,-0.5231,-0.4732,-0.4407,-0.3995,-0.3363,-0.2922,-0.2512,-0.2014,-0.1577,-0.1075,-0.047,0.0101,0.0633,0.1201,0.1808,0.2373,0.2653,0.3021,0.3419,0.3836,0.4267,0.4709,-3.5248,-3.4459,-3.3796,-3.3506,-3.3493,-3.3646,-3.3606,-3.3476,-3.3614,-3.3631,-3.3514,-3.3273,-3.3139,-3.302,-3.2796,-3.2691,-3.2706,-3.287,-3.3288,-3.3915,-3.4064,-3.4343,-3.4658,-3.4478,-3.4328,-3.4134,-3.3144,-3.2649,-3.2521,-3.1174,-3.0313,-2.9869,-2.8665,-2.715,-2.5462,-2.5659,-2.5865,-2.5973,-2.6217,-2.5848,-2.4897,-2.4312,-2.3697,-2.3072,-2.283,-2.2586,-2.239,-2.1272,-2.0274,-1.9453,-1.8331,-1.7104,-1.5762,-1.4607,0.0,0.0,0.0,0.0,0.0,0.0,0.0,0.0,0.0,-0.8802,-0.9213,0.0,-1.0123,0.0,-1.0332,-1.0306,-1.0216,-0.993,0.0,0.0,-0.908,-0.8651,-0.8204,-0.8174,-0.8188,-0.8221,-0.8193,-0.8198,-0.8308,-0.8131,-0.7913,-0.7644,-0.7151,-0.6715,-0.6368,-0.6306,-0.6262,-0.6085,-0.5887,-0.5578,-0.5013,-0.4358,-0.3794,-0.3458,-0.3025,-0.2586,-0.222,-0.1681,-0.1176,-0.074,-0.0101,0.0503,0.1066,0.1731,0.2293,0.2664,0.3065,0.3477,0.3834,0.4253,0.4713,-3.6024,-3.5398,-3.5398,-3.5398,-3.5383,-3.5075,-3.4892,-3.4802,-3.5109,-3.5171,-3.5065,-3.4714,-3.4273,-3.3819,-3.3804,-3.3848,-3.3964,-3.3933,-3.4324,-3.4921,-3.4936,-3.5034,-3.518,-3.5001,-3.485,-3.465,-3.3782,-3.3354,-3.3277,-3.199,-3.1124,-3.0779,-2.9832,-2.8516,-2.6928,-2.681,-2.6769,-2.6769,-2.6811,-2.616,-2.4858,-2.4487,-2.3979,-2.3158,-2.283,-2.2708,-2.2665,-2.1535,-2.0626,-2.0024,-1.885,-1.7697,-1.6574,-1.542,-1.437,0.0,0.0,0.0,0.0,0.0,0.0,0.0,0.0,0.0,0.0,0.0,-1.096,-1.116,-1.1096,-1.0953,-1.0746,-1.0438,-1.0228,-0.998,-0.9647,-0.9309,-0.8864,-0.8833,-0.88,-0.8731,-0.8685,-0.8678,-0.8716,-0.8506,-0.8312,-0.8214,-0.7725,-0.7264,-0.6939,-0.6752,-0.6569,-0.6301,-0.6086,-0.569,-0.5057,-0.4325,-0.3758,-0.3594,-0.3121,-0.2586,-0.2322,-0.1816,-0.1311,-0.0873,-0.0269,0.0336,0.0874,0.1547,0.2153,0.2546,0.305,0.3508,0.3811,0.4262,0.4726,-3.6816,-3.6492,-3.6492,-3.6492,-3.6445,-3.5891,-3.5614,-3.5645,-3.623,-3.6492,-3.6445,-3.5677,-3.4897,-3.4091,-3.4076,-3.43,-3.4638,-3.4623,-3.4921,-3.5489,-3.5472,-3.5374,-3.5195,-3.4968,-3.4817,-3.4616,-3.4137,-3.3896,-3.3779,-3.2528,-3.1742,-3.1341,-3.0387,-2.9464,-2.8525,-2.7928,-2.7535,-2.7436,-2.7134,-2.6311,-2.4946,-2.4858,-2.4286,-2.3271,-2.2898,-2.269,-2.2635,-2.1595,-2.0794,-2.0373,-1.9137,-1.809,-1.7425,-1.6203,-1.5255,0.0,-1.3792,0.0,0.0,0.0,0.0,0.0,0.0,0.0,0.0,-1.1373,-1.1654,-1.1818,-1.1685,-1.1466,-1.1153,-1.0933,-1.0681,-1.0364,-1.0301,-1.011,-0.962,-0.955,-0.946,-0.9119,-0.9087,-0.9049,-0.9022,-0.8765,-0.8576,-0.8511,-0.8242,-0.7897,-0.7587,-0.7223,-0.6868,-0.6482,-0.6086,-0.5591,-0.4927,-0.4261,-0.3825,-0.3725,-0.3188,-0.2654,-0.2455,-0.1985,-0.1445,-0.0941,-0.0437,0.0134,0.0672,0.1344,0.1951,0.2356,0.2986,0.3549,0.3799,0.4243,0.4692,-3.6816,-3.6492,-3.6492,-3.6492,-3.6476,-3.6353,-3.6292,-3.6307,-3.643,-3.6492,-3.6476,-3.6322,-3.5997,-3.5594,-3.5578,-3.5495,-3.531,-3.531,-3.5385,-3.5472,-3.5326,-3.5246,-3.518,-3.4883,-3.465,-3.4448,-3.4103,-3.3724,-3.3396,-3.282,-3.2266,-3.1775,-3.0954,-3.006,-2.914,0.0,0.0,0.0,-2.7024,-2.6477,-2.5506,-2.5001,-2.4519,-2.3853,-2.3096,0.0,-2.2451,-2.1873,-2.1148,-2.0278,-1.9797,0.0,0.0,0.0,0.0,0.0,0.0,0.0,0.0,0.0,0.0,0.0,-1.4134,-1.3432,-1.2174,-1.234,-1.2388,-1.2089,-1.1872,-1.1622,-1.1279,-1.0958,-1.0744,-1.0561,-1.0403,-1.0174,-0.9913,-0.9919,-0.9856,-0.967,-0.9492,-0.9364,-0.9242,-0.9049,-0.8861,-0.8738,-0.8549,-0.8284,-0.7954,-0.7591,-0.7199,-0.6741,-0.6083,-0.5488,-0.4894,-0.4325,-0.3928,-0.3758,-0.3188,-0.272,-0.2621,-0.2084,-0.1547,-0.121,-0.0673,-0.0067,0.0471,0.1143,0.1816,0.2322,0.2961,0.357,0.3768,0.4221,0.47,-3.6816,0.0,-3.6492,-3.6492,0.0,-3.6492,-3.6492,-3.6492,-3.6492,-3.6492,-3.6492,-3.6492,-3.6336,-3.602,-3.602,-3.5829,-3.5489,-3.5489,-3.5439,-3.5326,-3.5261,-3.5115,-3.4931,-3.4698,-3.4448,-3.4244,-3.3917,-3.3619,-3.3276,-3.2895,-3.2431,-3.189,-3.1399,-3.0669,-2.9693,-2.8725,-2.7838,-2.7024,-2.6909,-2.6447,-2.5611,-2.5335,-2.4755,-2.3904,-2.3374,0.0,0.0,0.0,0.0,0.0,0.0,0.0,0.0,0.0,0.0,-1.6767,-1.588,-1.5458,-1.5611,-1.5312,-1.5177,-1.5339,-1.5009,-1.4313,-1.3183,-1.325,-1.314,-1.2658,-1.2497,-1.2196,-1.1625,-1.1418,-1.1131,-1.0764,-1.0618,-1.0428,-1.0212,-1.0149,-1.0079,-0.9926,-0.9817,-0.969,-0.9568,-0.937,-0.9204,-0.9049,-0.8802,-0.8544,-0.8247,-0.7819,-0.7297,-0.6646,-0.6017,-0.5451,-0.5024,-0.4495,-0.4064,-0.3792,-0.3322,-0.2922,-0.272,-0.2252,-0.1782,-0.1378,-0.0807,-0.0235,0.0303,0.0975,0.1614,0.2085,0.2757,0.3298,0.3559,0.4119,0.4644,-3.6925,-3.6492,-3.6492,-3.6492,-3.6492,-3.6492,-3.6492,-3.6492,0.0,0.0,0.0,-3.6492,-3.6336,-3.602,-3.602,-3.5829,-3.5504,-3.5489,-3.5392,-3.5213,-3.5195,-3.4949,-3.4631,-3.4448,-3.423,-3.3991,-3.3695,-3.3431,-3.3171,-3.2803,-3.2372,-3.1853,-3.1633,-3.1045,-3.0025,-2.8831,-2.782,-2.7122,-2.6845,-2.6384,-2.5762,-2.5649,-2.5073,-2.3995,-2.3781,-2.3284,-2.2516,-2.2079,-2.1697,-2.1368,-2.0557,-1.9905,-1.9517,-1.8719,-1.8154,-1.7895,-1.7314,-1.6979,-1.689,-1.6498,-1.615,-1.5932,-1.5507,-1.4894,-1.4106,-1.3958,-1.3725,-1.3233,-1.3148,-1.2792,-1.2021,-1.1876,-1.1585,-1.1037,-1.0866,-1.0681,-1.0428,-1.0364,-1.0276,-1.0079,-1.0053,-0.9983,-0.983,-0.9664,-0.9492,-0.9332,-0.9087,-0.877,-0.8479,-0.7917,-0.7265,-0.6576,-0.6083,-0.5617,-0.519,-0.4728,-0.4264,-0.3961,-0.3527,-0.3092,-0.2822,-0.2455,-0.2018,-0.1547,-0.0974,-0.0437,0.0101,0.0706,0.1311,0.1782,0.2453,0.3037,0.335,0.3969,0.4548,-3.7313,-3.6492,-3.6492,-3.6492,-3.6492,-3.6492,-3.6492,-3.6492,-3.6492,-3.6492,-3.6492,-3.6492,-3.6336,-3.602,-3.602,-3.5829,-3.5489,-3.5489,-3.5407,-3.518,-3.5049,-3.4769,-3.4448,-3.423,-3.3957,-3.366,-3.3466,-3.3157,-3.2789,-3.2444,-3.2073,-3.1669,-3.1434,-3.0834,-2.9842,-2.9039,-2.827,-2.7522,-2.698,-2.662,-2.6373,-2.5862,-2.5436,-2.5087,-2.4476,-2.3802,-2.2959,-2.2582,-2.2049,-2.1276,-2.0919,-2.0523,-2.0019,-1.9488,-1.8933,-1.8353,-1.7884,-1.7582,-1.7354,-1.7252,-1.7068,-1.6766,-1.6674,-1.6034,-1.4709,-1.4255,-1.3924,-1.3559,-1.3305,-1.2998,-1.2647,-1.216,-1.179,-1.1632,-1.1149,-1.0776,-1.0713,-1.0624,-1.0498,-1.0308,-1.0276,-1.018,-1.0021,-0.9856,-0.9696,-0.9492,-0.9306,-0.9017,-0.8511,-0.7917,-0.7293,-0.6773,-0.6449,-0.6053,-0.5491,-0.5027,-0.4597,-0.4267,-0.3663,-0.3228,-0.3092,-0.2624,-0.2153,-0.1849,-0.1344,-0.0807,-0.0303,0.0235,0.0874,0.1512,0.2217,0.2803,0.3092,0.3725,0.4303,-3.7406,-3.6553,-3.6492,-3.6492,-3.6492,-3.6492,-3.6492,-3.6492,-3.6492,-3.6492,-3.6492,-3.6492,-3.6304,-3.602,-3.602,-3.5829,-3.5504,-3.5392,-3.5228,-3.5049,-3.4735,-3.4467,-3.423,-3.3971,-3.3695,-3.3431,-3.3227,-3.2931,-3.2525,-3.23,-3.2,-3.1609,-3.1286,-3.0843,-3.0271,-2.9507,-2.8913,-2.8451,-2.7508,-2.6858,-2.6499,-2.6235,-2.5857,-2.539,-2.4941,-2.4373,-2.3587,-2.3236,-2.2822,-2.2313,-2.2006,-2.1595,-2.1006,-2.0478,-1.9944,-1.934,-1.8816,-1.845,-1.8337,-1.7958,-1.7591,-1.7354,-1.7072,-1.658,-1.5794,-1.53,-1.4794,-1.4226,-1.3991,-1.367,-1.3122,-1.2802,-1.2397,-1.1844,-1.151,-1.1241,-1.0999,-1.0807,-1.0681,-1.0586,-1.0491,-1.0396,-1.0206,-1.0117,-0.9958,-0.969,-0.9466,-0.9113,-0.8576,-0.8252,-0.7819,-0.7228,-0.6708,-0.6251,-0.5756,-0.5359,-0.493,-0.44,-0.393,-0.356,-0.3293,-0.279,-0.2421,-0.2085,-0.158,-0.1042,-0.0505,0.0067,0.0706,0.1311,0.2017,0.2574,0.3029,0.3691,0.4364,-3.7545,-3.6492,-3.6492,-3.6492,-3.6492,-3.6492,-3.6492,-3.6492,-3.6492,-3.6492,-3.6492,-3.646,-3.6258,-3.6005,-3.5941,-3.5797,-3.5504,-3.5294,-3.5082,-3.4854,-3.4534,-3.4278,-3.404,-3.3695,-3.3431,-3.3227,-3.3002,-3.2704,-3.2381,-3.2205,-3.1853,-3.1485,-3.1136,-3.0874,-3.0596,-3.0021,-2.9514,-2.91,-2.8157,-2.7331,-2.67,-2.6575,-2.6217,-2.5614,-2.5373,-2.4912,-2.4211,-2.3862,-2.3546,-2.3282,-2.2945,-2.2513,-2.1945,-2.1498,-2.0974,-2.0314,-1.9754,-1.9312,-1.9019,-1.8448,-1.7964,-1.7784,-1.7323,-1.6934,-1.6647,-1.6211,-1.5584,-1.4892,-1.4645,-1.4257,-1.3615,-1.3319,-1.2949,-1.2155,-1.1887,-1.1643,-1.1301,-1.1013,-1.0839,-1.0807,-1.0719,-1.0561,-1.0434,-1.0339,-1.0149,-0.983,-0.9536,-0.9145,-0.8705,-0.8576,-0.8252,-0.7689,-0.7003,-0.6482,-0.6086,-0.569,-0.5229,-0.4564,-0.4231,-0.3861,-0.346,-0.3056,-0.2654,-0.2287,-0.1782,-0.121,-0.0672,-0.0067,0.0538,0.1143,0.1849,0.2493,0.3094,0.3777,0.4477,-3.7996,-3.6615,-3.6492,-3.6492,-3.6492,-3.6492,-3.6492,-3.6492,-3.6492,-3.6492,-3.6492,-3.632,-3.6148,-3.6005,-3.5831,-3.5653,-3.5472,-3.5294,-3.5067,-3.4868,-3.4568,-3.421,-3.3896,-3.3501,-3.3227,-3.2988,-3.2632,-3.2439,-3.2359,-3.1877,-3.1447,-3.1099,-3.1024,-3.0836,-3.047,-3.0342,-2.9846,-2.895,-2.8787,-2.8273,-2.7256,-2.6751,-2.6371,-2.6126,-2.5941,-2.5475,-2.4767,-2.439,-2.4004,-2.3508,-2.3194,-2.2877,-2.2616,-2.2412,-2.1834,-2.0895,-2.0582,-2.0005,-1.897,-1.8462,-1.8202,-1.7974,-1.7632,-1.7263,-1.6899,-1.6482,-1.5921,-1.524,-1.482,-1.4466,-1.4076,-1.3625,-1.3212,-1.2848,-1.2267,-1.1801,-1.1693,-1.133,-1.0996,-1.0807,-1.0841,-1.0713,-1.0593,-1.0403,-1.018,-0.9862,-0.9632,-0.9364,-0.899,-0.87,-0.8414,-0.7987,-0.7466,-0.6942,-0.6449,-0.5918,-0.5488,-0.5057,-0.4595,-0.4161,-0.3758,-0.3291,-0.2855,-0.2455,-0.1951,-0.1412,-0.0873,-0.0302,0.0302,0.1008,0.1742,0.2484,0.329,0.3887,0.4375,-3.8121,-3.6616,-3.6523,-3.6492,-3.6492,-3.6492,-3.6492,-3.6492,-3.6492,-3.6492,-3.646,-3.6179,-3.6037,-3.5973,-3.5784,-3.5542,-3.5326,-3.5115,-3.4868,-3.4568,-3.4244,-3.3917,-3.3536,-3.3262,-3.2966,-3.2668,-3.2489,-3.2273,-3.2046,-3.1656,-3.1286,-3.1024,-3.1024,-3.0785,-3.0444,-3.0406,-3.005,-2.944,-2.9051,-2.8512,-2.7808,-2.7266,-2.6791,-2.6399,-2.605,-2.5789,-2.5453,-2.5116,-2.4764,-2.4456,-2.4306,-2.3944,-2.3317,-2.3144,-2.2616,-2.1652,-2.0843,-2.013,-1.9421,-1.8792,-1.8347,-1.8178,-1.7769,-1.7392,-1.7107,-1.6621,-1.6026,-1.5461,-1.5133,-1.4776,-1.4338,-1.3978,-1.3605,-1.3242,-1.276,-1.2432,-1.2243,-1.198,-1.172,-1.1439,-1.1203,-1.0999,-1.0753,-1.046,-1.0212,-0.9958,-0.976,-0.9568,-0.921,-0.8952,-0.8673,-0.8317,-0.7829,-0.7269,-0.6712,-0.6247,-0.5818,-0.5326,-0.4827,-0.4361,-0.3959,-0.3493,-0.2991,-0.2621,-0.2118,-0.1614,-0.1076,-0.0538,0.0067,0.0841,0.1844,0.2718,0.3403,0.3852,0.4302,-3.8137,-3.6801,-3.6538,-3.6492,-3.6492,-3.6492,-3.6492,-3.6492,-3.6492,-3.646,-3.6383,-3.61,-3.5973,-3.5894,-3.5671,-3.5427,-3.518,-3.4949,-3.4702,-3.438,-3.4054,-3.3675,-3.3312,-3.3037,-3.2739,-3.2453,-3.2359,-3.2155,-3.1817,-3.1471,-3.1198,-3.1011,-3.1024,-3.0785,-3.0444,-3.0406,-3.019,-2.9793,-2.9365,-2.885,-2.8298,-2.7747,-2.711,-2.6483,-2.6084,-2.5875,-2.5793,-2.5488,-2.5241,-2.5182,-2.5123,-2.4767,-2.405,-2.385,-2.3302,-2.2257,-2.1016,-2.0181,-1.9896,-1.9073,-1.8516,-1.8337,-1.7906,-1.7529,-1.7245,-1.6716,-1.6158,-1.563,-1.5346,-1.4955,-1.4497,-1.4201,-1.3914,-1.3497,-1.3188,-1.2899,-1.2653,-1.2463,-1.2215,-1.1954,-1.168,-1.1372,-1.0997,-1.0716,-1.0438,-1.0245,-1.0008,-0.9734,-0.9402,-0.9139,-0.8856,-0.8544,-0.809,-0.7563,-0.6937,-0.6478,-0.605,-0.5554,-0.5024,-0.4595,-0.4161,-0.3627,-0.3192,-0.2824,-0.2287,-0.1748,-0.121,-0.0707,0.0034,0.0908,0.1846,0.276,0.332,0.3783,0.4232,-3.8153,-3.677,-3.6554,-3.6492,-3.6492,-3.6492,-3.6492,-3.6492,-3.6492,-3.6383,-3.6242,-3.6053,-3.5894,-3.5688,-3.5394,-3.5213,-3.5148,-3.4817,-3.4597,-3.4346,-3.402,-3.3689,-3.3276,-3.2895,-3.2596,-3.2381,-3.2264,-3.1986,-3.1596,-3.1397,-3.1198,-3.1024,-3.0986,-3.0785,-3.0444,-3.0368,-3.019,-2.9818,-2.9716,-2.944,-2.885,-2.8138,-2.7305,-2.6365,-2.598,-2.5793,-2.5606,-2.5418,-2.5312,-2.5312,-2.5182,-2.4993,-2.4743,-2.4515,-2.3818,-2.2631,-2.1188,-2.027,-2.0047,-1.9297,-1.8704,-1.8482,-1.8144,-1.7847,-1.7461,-1.689,-1.6324,-1.5842,-1.5409,-1.4991,-1.4497,-1.4245,-1.4021,-1.3803,-1.3298,-1.3073,-1.2994,-1.2733,-1.2453,-1.2301,-1.2069,-1.1743,-1.1404,-1.1142,-1.085,-1.0607,-1.0277,-0.9868,-0.9562,-0.921,-0.8926,-0.8576,-0.822,-0.7792,-0.7269,-0.6741,-0.6214,-0.5749,-0.5322,-0.4891,-0.4364,-0.3866,-0.3426,-0.2958,-0.2388,-0.185,-0.1345,-0.0639,0.0236,0.1043,0.1817,0.2591,0.3201,0.3749,0.4222,-3.8247,-3.6693,-3.6538,-3.6492,-3.6492,-3.6492,-3.6492,-3.6492,-3.6492,-3.6383,-3.6211,-3.6068,-3.5846,-3.5539,-3.5166,-3.5016,-3.4968,-3.465,-3.4346,-3.4054,-3.3709,-3.3312,-3.2895,-3.2632,-3.2417,-3.2264,-3.2109,-3.1803,-3.1434,-3.1211,-3.1061,-3.0986,-3.0874,-3.0647,-3.0406,-3.0267,-3.0075,-2.9818,-2.9779,-2.9465,-2.8787,-2.845,-2.7841,-2.687,-2.6113,-2.5688,-2.5606,-2.543,-2.5312,-2.5312,-2.5253,-2.5087,-2.4778,-2.4236,-2.3745,-2.3181,-2.1948,-2.1027,-2.0638,-1.9803,-1.9012,-1.8546,-1.8178,-1.7881,-1.7495,-1.6959,-1.6429,-1.6009,-1.5515,-1.5062,-1.4756,-1.4469,-1.4217,-1.3977,-1.3721,-1.3452,-1.3345,-1.3214,-1.3039,-1.2758,-1.2329,-1.184,-1.1546,-1.1336,-1.1102,-1.0757,-1.0535,-1.0211,-0.9803,-0.9466,-0.9177,-0.8829,-0.8436,-0.7987,-0.7601,-0.6975,-0.6445,-0.6013,-0.562,-0.509,-0.4595,-0.4095,-0.3658,-0.3125,-0.2522,-0.1918,-0.1412,-0.0505,0.0337,0.1009,0.1816,0.2514,0.3119,0.3698,0.4171,-3.8247,-3.7095,-3.6693,-3.6554,-3.6492,-3.6492,-3.6492,-3.6492,-3.6492,-3.6352,-3.6148,-3.6037,-3.5797,-3.5392,-3.5016,-3.4802,-3.4716,-3.4433,-3.4108,-3.3779,-3.3466,-3.3086,-3.2704,-3.2489,-3.2322,-3.2169,-3.1927,-3.1619,-3.131,-3.1099,-3.1024,-3.0986,-3.0811,-3.0609,-3.0406,-3.019,-2.9998,-2.983,-2.9753,-2.9373,-2.8884,-2.8533,-2.8097,-2.7431,-2.6518,-2.5924,-2.5767,-2.5479,-2.5312,-2.5312,-2.5312,-2.5147,-2.4778,-2.4116,-2.3677,-2.3511,-2.2531,-2.1707,-2.1222,-2.039,-1.9643,-1.9012,-1.8601,-1.8213,-1.7729,-1.7077,-1.6551,-1.6088,-1.5559,-1.5133,-1.4892,-1.4649,-1.4389,-1.4209,-1.3971,-1.3754,-1.3608,-1.3528,-1.3346,-1.3049,-1.265,-1.22,-1.183,-1.1658,-1.1427,-1.1113,-1.0902,-1.0476,-1.0108,-0.9707,-0.9396,-0.9055,-0.8598,-0.8214,-0.7792,-0.7269,-0.6642,-0.6214,-0.5782,-0.5289,-0.4791,-0.4325,-0.3828,-0.3293,-0.2656,-0.2051,-0.1278,-0.0404,0.0303,0.0975,0.1715,0.2418,0.3031,0.3638,0.4124,-3.8154,-3.7685,-3.7002,-3.6647,-3.6523,-3.6492,-3.6492,-3.6492,-3.6492,-3.632,-3.6037,-3.6005,-3.5686,-3.5213,-3.485,-3.4597,-3.438,-3.4128,-3.3888,-3.357,-3.3347,-3.3051,-3.2668,-3.2453,-3.2286,-3.2132,-3.178,-3.1471,-3.1272,-3.1099,-3.1024,-3.0949,-3.0773,-3.0571,-3.0406,-3.019,-2.9972,-2.9779,-2.9573,-2.9394,-2.9279,-2.8537,-2.81,-2.7914,-2.7265,-2.6647,-2.6166,-2.5636,-2.536,-2.5312,-2.5312,-2.5147,-2.479,-2.4189,-2.3787,-2.3537,-2.2772,-2.2143,-2.1662,-2.1028,-2.042,-1.9803,-1.9445,-1.8873,-1.8145,-1.743,-1.6763,-1.6246,-1.562,-1.5141,-1.4935,-1.4713,-1.4533,-1.4397,-1.4044,-1.3826,-1.3754,-1.3608,-1.3411,-1.3193,-1.2954,-1.2799,-1.2517,-1.2139,-1.1837,-1.1662,-1.122,-1.0691,-1.0429,-0.9934,-0.9446,-0.9081,-0.8732,-0.8376,-0.7954,-0.7531,-0.6905,-0.6346,-0.5914,-0.5455,-0.4924,-0.4425,-0.3961,-0.3395,-0.2624,-0.1985,-0.1244,-0.0404,0.0202,0.0874,0.1614,0.2321,0.2911,0.3524,0.4058,-3.8983,-3.7951,-3.7576,-3.7095,-3.6553,-3.6492,-3.6492,-3.6492,-3.6492,-3.6289,-3.6052,-3.602,-3.5621,-3.5067,-3.4783,-3.4462,-3.4054,-3.3695,-3.3486,-3.3347,-3.3051,-3.2739,-3.2525,-3.2336,-3.2082,-3.178,-3.1508,-3.1272,-3.1136,-3.1024,-3.1024,-3.0949,-3.0634,-3.0482,-3.0394,-3.0088,-2.983,-2.9792,-2.956,-2.9341,-2.9197,-2.879,-2.847,-2.8316,-2.7753,-2.7342,-2.7188,-2.6334,-2.5697,-2.5348,-2.5312,-2.5147,-2.479,-2.4236,-2.3824,-2.3593,-2.3091,-2.2451,-2.1795,-2.1381,-2.0798,-2.0092,-1.9756,-1.9328,-1.86,-1.7917,-1.7303,-1.6705,-1.5951,-1.5319,-1.5106,-1.4784,-1.4569,-1.4389,-1.4173,-1.3928,-1.379,-1.3645,-1.3426,-1.3236,-1.301,-1.2826,-1.2629,-1.2324,-1.2114,-1.1891,-1.1467,-1.1087,-1.0645,-1.0192,-0.9728,-0.9396,-0.8985,-0.8538,-0.8112,-0.7657,-0.7068,-0.6544,-0.6083,-0.555,-0.5054,-0.4558,-0.4061,-0.3426,-0.2656,-0.1918,-0.1177,-0.0538,0.0067,0.0706,0.1378,0.2051,0.2721,0.3343,0.3914,-3.98,-3.881,-3.8137,-3.7545,-3.6955,-3.6677,-3.6492,-3.6492,-3.6492,-3.6304,-3.6037,-3.602,-3.5574,-3.4968,-3.4683,-3.4327,-3.3882,-3.3403,-3.3157,-3.3051,-3.2739,-3.2525,-3.2381,-3.2205,-3.1927,-3.1596,-3.1397,-3.1198,-3.1024,-3.1024,-3.1024,-3.0949,-3.0596,-3.0406,-3.0368,-3.0011,-2.9779,-2.974,-2.9495,-2.9236,-2.9091,-2.8803,-2.8605,-2.8462,-2.8186,-2.7882,-2.7654,-2.6825,-2.6154,-2.5673,-2.5361,-2.5076,-2.4778,-2.4381,-2.4007,-2.3703,-2.3386,-2.2922,-2.2246,-2.1929,-2.1454,-2.0743,-2.0339,-1.9845,-1.9093,-1.8363,-1.7567,-1.6946,-1.6154,-1.5505,-1.5204,-1.4919,-1.4649,-1.4461,-1.4317,-1.4101,-1.387,-1.3608,-1.3455,-1.3309,-1.3163,-1.2936,-1.2746,-1.2556,-1.2311,-1.206,-1.1777,-1.1414,-1.0954,-1.0482,-1.0056,-0.9604,-0.9139,-0.8694,-0.8236,-0.7749,-0.7232,-0.6741,-0.6251,-0.5686,-0.512,-0.4725,-0.4261,-0.3426,-0.2622,-0.2018,-0.1312,-0.074,-0.0168,0.0504,0.1143,0.1915,0.2621,0.3226,0.3811,-4.0512,-4.013,-3.8685,-3.7966,-3.7638,-3.6862,-3.6492,-3.6492,-3.6492,-3.6304,-3.6052,-3.602,-3.5574,-3.4953,-3.4582,-3.4225,-3.3848,-3.3248,-3.2917,-3.2753,-3.2538,-3.2395,-3.2273,-3.2023,-3.1757,-3.1559,-3.1347,-3.1161,-3.1024,-3.1024,-3.1024,-3.0949,-3.0596,-3.0406,-3.033,-2.9998,-2.9779,-2.974,-2.9378,-2.917,-2.9131,-2.8788,-2.855,-2.859,-2.849,-2.8285,-2.7864,-2.72,-2.6561,-2.6033,-2.5385,-2.5016,-2.4825,-2.461,-2.4261,-2.3897,-2.3714,-2.3372,-2.299,-2.2504,-2.2092,-2.1604,-2.0988,-2.0404,-1.9704,-1.8739,-1.7778,-1.7125,-1.6384,-1.5698,-1.53,-1.4999,-1.4792,-1.4641,-1.4425,-1.4181,-1.3826,-1.3608,-1.3492,-1.3455,-1.3309,-1.3119,-1.2893,-1.2709,-1.2512,-1.2298,-1.2004,-1.1633,-1.1238,-1.0735,-1.0235,-0.9766,-0.9285,-0.8823,-0.8371,-0.7884,-0.733,-0.6843,-0.6383,-0.5818,-0.5219,-0.4758,-0.4192,-0.3391,-0.269,-0.2084,-0.1513,-0.0941,-0.0336,0.0269,0.1009,0.1782,0.242,0.2922,0.3594,-4.0922,-4.0208,-3.9232,-3.8418,-3.7731,-3.6862,-3.6492,-3.6492,-3.6492,-3.6304,-3.6052,-3.602,-3.5574,-3.4887,-3.4534,-3.421,-3.3799,-3.3108,-3.2775,-3.2668,-3.2386,-3.2169,-3.2023,-3.178,-3.1559,-3.1397,-3.1211,-3.1061,-3.1024,-3.1024,-3.1024,-3.0986,-3.0609,-3.0406,-3.033,-3.0011,-2.9792,-2.974,-2.9482,-2.9302,-2.9275,-2.9052,-2.8934,-2.8934,-2.8803,-2.8639,-2.8382,-2.7442,-2.6429,-2.56,-2.5266,-2.5028,-2.4825,-2.461,-2.4345,-2.397,-2.3714,-2.3409,-2.3038,-2.2628,-2.2214,-2.1845,-2.1303,-2.0843,-2.0391,-1.9459,-1.8536,-1.7731,-1.6934,-1.6107,-1.5386,-1.4999,-1.4828,-1.4605,-1.4389,-1.4101,-1.3863,-1.3645,-1.3492,-1.3455,-1.3309,-1.3119,-1.2929,-1.2746,-1.2526,-1.2331,-1.2071,-1.179,-1.1426,-1.0898,-1.0369,-0.9896,-0.944,-0.8958,-0.8474,-0.7987,-0.7466,-0.6942,-0.6482,-0.5984,-0.5319,-0.4725,-0.4025,-0.3259,-0.2824,-0.2253,-0.1681,-0.1109,-0.0504,0.0034,0.0639,0.1344,0.1848,0.2386,0.3157,-4.1319,-4.0746,-3.9593,-3.8792,-3.8214,-3.7033,-3.6492,-3.6492,-3.6492,-3.6336,-3.6052,-3.602,-3.5574,-3.4887,-3.4534,-3.421,-3.3813,-3.3072,-3.2725,-3.2632,-3.2336,-3.2109,-3.189,-3.1669,-3.1485,-3.131,-3.1099,-3.1024,-3.1024,-3.1024,-3.1024,-3.0911,-3.0596,-3.0406,-3.0368,-2.9998,-2.9779,-2.974,-2.9548,-2.938,-2.938,-2.9209,-2.9143,-2.9091,-2.8949,-2.8736,-2.8123,-2.73,-2.6405,-2.5541,-2.5218,-2.5052,-2.4837,-2.4729,-2.4418,-2.4043,-2.3787,-2.3494,-2.3224,-2.274,-2.2338,-2.1997,-2.154,-2.1079,-2.0633,-1.988,-1.8919,-1.8347,-1.7357,-1.6486,-1.5829,-1.5248,-1.4836,-1.4605,-1.4389,-1.4137,-1.3935,-1.3674,-1.3528,-1.3455,-1.3382,-1.32,-1.2936,-1.279,-1.2599,-1.2388,-1.2191,-1.1931,-1.1642,-1.1056,-1.0536,-1.0105,-0.9502,-0.8958,-0.8506,-0.8019,-0.7498,-0.6979,-0.6449,-0.6013,-0.5388,-0.4694,-0.4095,-0.346,-0.2958,-0.2455,-0.1883,-0.1312,-0.0807,-0.0235,0.0303,0.0908,0.1512,0.2118,0.2854,-4.1588,-4.1462,-3.9766,-3.909,-3.8777,-3.7249,-3.6492,-3.6492,-3.6492,-3.6336,-3.6037,-3.602,-3.5589,-3.4902,-3.4616,-3.4259,-3.3848,-3.3157,-3.2775,-3.2596,-3.2336,-3.2073,-3.183,-3.1669,-3.1434,-3.1272,-3.1061,-3.1024,-3.1024,-3.1024,-3.1024,-3.0911,-3.0596,-3.0406,-3.033,-2.9998,-2.9818,-2.974,-2.9599,-2.947,-2.947,-2.9339,-2.926,-2.926,-2.9131,-2.8448,-2.7612,-2.6987,-2.6405,-2.5348,-2.5312,-2.5123,-2.4861,-2.479,-2.4562,-2.4236,-2.3861,-2.3641,-2.3482,-2.29,-2.2451,-2.2252,-2.1655,-2.1156,-2.0817,-2.0101,-1.9373,-1.8813,-1.7777,-1.704,-1.6259,-1.5508,-1.4932,-1.4677,-1.4505,-1.4317,-1.4101,-1.3775,-1.3528,-1.3492,-1.3492,-1.3309,-1.309,-1.2863,-1.2746,-1.2445,-1.2291,-1.2064,-1.1733,-1.1199,-1.0791,-1.0441,-0.9717,-0.8894,-0.8474,-0.8084,-0.7498,-0.6979,-0.6416,-0.5885,-0.5326,-0.4697,-0.4197,-0.3663,-0.3194,-0.269,-0.2119,-0.1581,-0.1043,-0.0505,0.0067,0.074,0.1378,0.2017,0.2721,-4.1588,-4.1478,-3.9782,-3.909,-3.8808,-3.7265,-3.6492,-3.6492,-3.6492,-3.632,-3.6068,-3.602,-3.5589,-3.4902,-3.4716,-3.4346,-3.3917,-3.3382,-3.2931,-3.2467,-3.2314,-3.2,-3.1757,-3.1609,-3.141,-3.1174,-3.1024,-3.1024,-3.1024,-3.1024,-3.1024,-3.0949,-3.0634,-3.0406,-3.033,-2.9998,-2.9779,-2.9779,-2.9728,-2.9689,-2.9689,-2.9663,-2.9573,-2.9585,-2.93,-2.845,-2.7454,-2.6998,-2.6406,-2.5612,-2.5276,-2.5147,-2.4897,-2.4801,-2.461,-2.4273,-2.397,-2.3787,-2.3556,-2.3161,-2.2713,-2.2365,-2.1921,-2.154,-2.1118,-2.0643,-1.9908,-1.9229,-1.8616,-1.7717,-1.6515,-1.5516,-1.4976,-1.4792,-1.4577,-1.4389,-1.4289,-1.3971,-1.3681,-1.3564,-1.3492,-1.3426,-1.3156,-1.2966,-1.2783,-1.2556,-1.2355,-1.2194,-1.1787,-1.1348,-1.0979,-1.0634,-0.9775,-0.8978,-0.8576,-0.8117,-0.7498,-0.6975,-0.6449,-0.5984,-0.5392,-0.4897,-0.4464,-0.3964,-0.346,-0.2924,-0.2354,-0.1816,-0.1312,-0.074,-0.0135,0.0471,0.1144,0.1849,0.2555,-4.1399,-4.0987,-3.9722,-3.8935,-3.8419,-3.7188,-3.6554,-3.6523,-3.6492,-3.6352,-3.6132,-3.6037,-3.5686,-3.5162,-3.4831,-3.4462,-3.4088,-3.3521,-3.298,-3.2489,-3.2286,-3.2096,-3.1793,-3.1596,-3.141,-3.1061,-3.1024,-3.1024,-3.1024,-3.1024,-3.1024,-3.0986,-3.0596,-3.0406,-3.033,-3.0011,-2.9818,-2.9779,-2.9779,-2.9779,-2.9779,-2.9779,-2.9779,-2.974,-2.9394,-2.8641,-2.7457,-2.7136,-2.6444,-2.5612,-2.5276,-2.5147,-2.4861,-2.4801,-2.461,-2.4273,-2.4018,-2.3824,-2.3556,-2.3224,-2.2815,-2.2402,-2.2025,-2.1617,-2.1233,-2.0848,-2.0285,-1.96,-1.8971,-1.8129,-1.6594,-1.5607,-1.5111,-1.4864,-1.4685,-1.4497,-1.4361,-1.4044,-1.3754,-1.3645,-1.3572,-1.3419,-1.3229,-1.3046,-1.282,-1.2599,-1.2378,-1.2225,-1.2042,-1.1628,-1.1124,-1.061,-0.9783,-0.909,-0.8679,-0.8117,-0.7461,-0.7007,-0.6548,-0.6152,-0.5693,-0.5263,-0.4831,-0.4261,-0.3694,-0.3157,-0.2587,-0.2084,-0.1547,-0.0908,-0.0303,0.0269,0.0841,0.1513,0.2252,-4.1114,-4.053,-3.9566,-3.8717,-3.7966,-3.708,-3.6631,-3.6554,-3.6492,-3.6383,-3.6211,-3.6068,-3.5797,-3.5424,-3.4997,-3.465,-3.4244,-3.366,-3.3016,-3.2668,-3.2453,-3.2228,-3.1963,-3.1743,-3.1485,-3.1099,-3.1024,-3.1024,-3.1024,-3.1024,-3.1024,-3.0936,-3.0634,-3.0444,-3.033,-3.0049,-2.983,-2.9792,-2.9779,-2.9779,-2.9779,-2.9779,-2.9779,-2.974,-2.9496,-2.8818,-2.7827,-2.7297,-2.6651,-2.5552,-2.5348,-2.5159,-2.4933,-2.479,-2.4646,-2.4273,-2.4091,-2.3861,-2.3629,-2.3298,-2.2927,-2.244,-2.2111,-2.1693,-2.1272,-2.0935,-2.0508,-1.9907,-1.9197,-1.825,-1.6737,-1.5922,-1.5372,-1.5023,-1.4784,-1.4605,-1.4389,-1.4109,-1.3935,-1.379,-1.3681,-1.3528,-1.3273,-1.309,-1.2863,-1.2673,-1.2452,-1.2254,-1.2108,-1.1804,-1.1266,-1.0751,-0.9946,-0.9079,-0.8554,-0.8084,-0.7461,-0.7068,-0.6646,-0.6317,-0.5954,-0.5557,-0.5093,-0.4495,-0.3928,-0.3391,-0.2855,-0.2319,-0.1715,-0.1042,-0.0437,0.0067,0.0639,0.121,0.1982,-4.0704,-4.0466,-3.9078,-3.8372,-3.8106,-3.7141,-3.6693,-3.6662,-3.6554,-3.6367,-3.6211,-3.6068,-3.5829,-3.5489,-3.5261,-3.485,-3.4346,-3.373,-3.3276,-3.3016,-3.2717,-3.2359,-3.2132,-3.1927,-3.1633,-3.1323,-3.1136,-3.1061,-3.1024,-3.1024,-3.1024,-3.0949,-3.0773,-3.0571,-3.0406,-3.0139,-2.9946,-2.983,-2.9779,-2.9779,-2.9779,-2.9779,-2.9779,-2.9779,-2.956,-2.8981,-2.8221,-2.753,-2.6845,-2.6046,-2.5552,-2.5266,-2.5052,-2.4885,-2.4718,-2.4465,-2.4236,-2.397,-2.3677,-2.353,-2.3113,-2.259,-2.2289,-2.1883,-2.1397,-2.1089,-2.0731,-2.012,-1.9311,-1.8379,-1.7486,-1.6577,-1.588,-1.5364,-1.4935,-1.4756,-1.4577,-1.4397,-1.4152,-1.3935,-1.3783,-1.3637,-1.3382,-1.3127,-1.2936,-1.2709,-1.2489,-1.2342,-1.2234,-1.1824,-1.1265,-1.0757,-1.0165,-0.9258,-0.8414,-0.7932,-0.7428,-0.7134,-0.6778,-0.6544,-0.6181,-0.5818,-0.5322,-0.4725,-0.4161,-0.3627,-0.309,-0.252,-0.1849,-0.1143,-0.0605,-0.0101,0.0539,0.1144,0.1814,-3.9835,-3.9455,-3.8699,-3.8134,-3.7666,-3.7155,-3.68,-3.6693,-3.6538,-3.646,-3.632,-3.6163,-3.5973,-3.5733,-3.5472,-3.503,-3.4414,-3.3957,-3.3591,-3.3276,-3.298,-3.2632,-3.2336,-3.2132,-3.1927,-3.1633,-3.141,-3.1187,-3.1024,-3.1024,-3.1024,-3.0949,-3.0811,-3.066,-3.0508,-3.0228,-3.0088,-2.9946,-2.9869,-2.9779,-2.9779,-2.9779,-2.9779,-2.974,-2.9625,-2.9158,-2.8431,-2.8021,-2.7211,-2.6311,-2.5853,-2.5553,-2.5278,-2.5028,-2.4825,-2.4538,-2.4309,-2.408,-2.3787,-2.3677,-2.3261,-2.2665,-2.2478,-2.2063,-2.155,-2.1195,-2.0858,-2.0129,-1.935,-1.8501,-1.7641,-1.6935,-1.6127,-1.549,-1.5078,-1.49,-1.4756,-1.4613,-1.4361,-1.4072,-1.3891,-1.371,-1.3455,-1.3229,-1.2973,-1.2753,-1.2526,-1.2378,-1.2305,-1.1859,-1.135,-1.0769,-1.0198,-0.9341,-0.8505,-0.803,-0.7559,-0.7232,-0.6909,-0.6646,-0.6346,-0.5984,-0.5521,-0.499,-0.4425,-0.3828,-0.3226,-0.2589,-0.1915,-0.1277,-0.074,-0.0168,0.0438,0.1076,0.1714,-3.8981,-3.8491,-3.8365,-3.7894,-3.7287,-3.7105,-3.6923,-3.6754,-3.66,-3.6523,-3.646,-3.6274,-3.6116,-3.591,-3.5539,-3.5096,-3.4481,-3.4264,-3.3902,-3.3556,-3.3326,-3.298,-3.2646,-3.2322,-3.2132,-3.1927,-3.1706,-3.1447,-3.1174,-3.1099,-3.1061,-3.0986,-3.0811,-3.0736,-3.0609,-3.0343,-3.019,-3.0049,-2.9908,-2.9779,-2.9779,-2.9779,-2.9779,-2.9779,-2.9779,-2.9373,-2.8705,-2.8344,-2.7675,-2.6856,-2.6359,-2.6033,-2.5541,-2.5302,-2.5016,-2.4621,-2.4381,-2.4164,-2.3909,-2.3714,-2.3346,-2.2815,-2.2526,-2.2111,-2.1655,-2.1244,-2.0819,-2.0041,-1.9462,-1.8762,-1.8017,-1.716,-1.6446,-1.5796,-1.5331,-1.4971,-1.4864,-1.4713,-1.4569,-1.4325,-1.4036,-1.3819,-1.3601,-1.3266,-1.3046,-1.2826,-1.2606,-1.2415,-1.2268,-1.1972,-1.1417,-1.0804,-1.0149,-0.9364,-0.8668,-0.8225,-0.7787,-0.7428,-0.7073,-0.6749,-0.6449,-0.6119,-0.5657,-0.5156,-0.4558,-0.3925,-0.3324,-0.2656,-0.195,-0.1312,-0.0842,-0.0269,0.0404,0.0942,0.1479,-3.857,-3.8444,-3.7859,-3.7559,-3.745,-3.724,-3.7105,-3.6938,-3.6754,-3.66,-3.6523,-3.6274,-3.6148,-3.591,-3.5474,-3.5115,-3.4802,-3.4501,-3.421,-3.3902,-3.3556,-3.3326,-3.31,-3.261,-3.2372,-3.2205,-3.195,-3.1619,-3.1384,-3.1272,-3.1161,-3.1024,-3.0949,-3.0861,-3.0723,-3.0495,-3.0267,-3.0126,-2.9895,-2.9779,-2.9779,-2.9779,-2.9779,-2.9779,-2.9767,-2.96,-2.913,-2.8704,-2.8056,-2.7708,-2.7095,-2.6586,-2.6093,-2.5815,-2.5371,-2.4906,-2.4574,-2.4321,-2.3982,-2.3714,-2.3457,-2.3001,-2.2639,-2.2214,-2.1693,-2.1244,-2.078,-2.0333,-1.9905,-1.9329,-1.8556,-1.7879,-1.7151,-1.6392,-1.576,-1.5303,-1.5015,-1.4864,-1.4685,-1.4461,-1.4145,-1.3964,-1.3783,-1.3411,-1.3083,-1.29,-1.2716,-1.2489,-1.2268,-1.1929,-1.143,-1.0773,-1.025,-0.9484,-0.8832,-0.8355,-0.7982,-0.7591,-0.7204,-0.6848,-0.6585,-0.6251,-0.5793,-0.5292,-0.4658,-0.3992,-0.3326,-0.2654,-0.195,-0.1345,-0.0842,-0.0236,0.0371,0.0876,0.1344,-3.8013,-3.7891,-3.7607,-3.751,-3.748,-3.7284,-3.7164,-3.7059,-3.6816,-3.6662,-3.66,-3.6445,-3.6211,-3.5941,-3.5554,-3.5246,-3.5016,-3.4716,-3.4448,-3.4264,-3.3888,-3.3591,-3.3276,-3.3016,-3.2803,-3.2467,-3.2286,-3.2082,-3.179,-3.1458,-3.1235,-3.1161,-3.1061,-3.0949,-3.0849,-3.0685,-3.0457,-3.0228,-2.996,-2.9779,-2.9779,-2.9779,-2.9779,-2.9779,-2.9779,-2.965,-2.9369,-2.9024,-2.8474,-2.8074,-2.7555,-2.714,-2.6585,-2.6188,-2.5755,-2.5418,-2.4894,-2.4513,-2.4127,-2.3799,-2.3494,-2.3113,-2.2703,-2.2138,-2.1578,-2.1244,-2.0819,-2.0342,-2.0059,-1.9558,-1.8959,-1.8339,-1.7559,-1.6828,-1.6287,-1.5715,-1.5268,-1.4987,-1.4792,-1.4533,-1.4281,-1.4101,-1.3891,-1.3528,-1.3193,-1.2936,-1.2709,-1.2526,-1.2261,-1.1929,-1.1371,-1.0668,-1.0161,-0.9643,-0.9019,-0.8501,-0.8144,-0.7754,-0.7204,-0.6881,-0.6716,-0.635,-0.5859,-0.5359,-0.4722,-0.4056,-0.336,-0.2656,-0.1985,-0.1413,-0.0841,-0.0269,0.0304,0.0875,0.1479,-3.7658,-3.7539,-3.7494,-3.751,-3.751,-3.7329,-3.7254,-3.7164,-3.6952,-3.6769,-3.6662,-3.6507,-3.6258,-3.6037,-3.5701,-3.5442,-3.5261,-3.4964,-3.4716,-3.4515,-3.4264,-3.3971,-3.3695,-3.3486,-3.3157,-3.2846,-3.2632,-3.2417,-3.2119,-3.1827,-3.1495,-3.131,-3.1161,-3.1061,-3.0949,-3.0761,-3.0533,-3.0254,-3.0011,-2.9869,-2.9792,-2.9779,-2.9779,-2.9779,-2.9779,-2.9702,-2.9509,-2.9184,-2.8731,-2.8419,-2.805,-2.7669,-2.7126,-2.6813,-2.6402,-2.5978,-2.5404,-2.4915,-2.4457,-2.4022,-2.359,-2.3224,-2.2729,-2.2101,-2.1464,-2.1244,-2.1051,-2.0547,-2.0225,-1.9742,-1.9167,-1.874,-1.8098,-1.7439,-1.6835,-1.6195,-1.5668,-1.5452,-1.5085,-1.4721,-1.4461,-1.4201,-1.3956,-1.363,-1.3302,-1.2973,-1.2746,-1.2519,-1.2261,-1.1929,-1.1389,-1.0715,-1.025,-0.9752,-0.9112,-0.8603,-0.8274,-0.7852,-0.7302,-0.6946,-0.6782,-0.635,-0.5826,-0.5289,-0.4788,-0.409,-0.3357,-0.2688,-0.2018,-0.1447,-0.0841,-0.0337,0.0236,0.0841,0.1647,-3.77,-3.7671,-3.7569,-3.751,-3.751,-3.751,-3.7359,-3.7224,-3.7164,-3.6983,-3.6693,-3.6399,-3.6242,-3.6116,-3.5863,-3.5621,-3.5472,-3.5261,-3.5049,-3.4769,-3.4534,-3.4346,-3.4108,-3.3799,-3.3501,-3.3276,-3.3002,-3.2704,-3.2417,-3.2191,-3.1753,-3.1397,-3.1323,-3.1174,-3.1024,-3.0798,-3.0533,-3.0305,-3.0088,-2.9972,-2.9856,-2.9818,-2.9779,-2.9779,-2.9779,-2.9779,-2.9753,-2.9378,-2.9067,-2.8893,-2.8567,-2.8198,-2.7717,-2.7426,-2.7074,-2.6588,-2.5938,-2.547,-2.5011,-2.4212,-2.3652,-2.3335,-2.2852,-2.2138,-2.154,-2.1282,-2.1089,-2.078,-2.043,-2.0128,-1.9645,-1.9195,-1.8638,-1.8107,-1.7492,-1.6885,-1.6374,-1.597,-1.558,-1.5005,-1.4673,-1.4431,-1.4065,-1.3746,-1.3411,-1.3083,-1.279,-1.2562,-1.2224,-1.1896,-1.1395,-1.0856,-1.0387,-0.9843,-0.9127,-0.8679,-0.8312,-0.7852,-0.7335,-0.7073,-0.6881,-0.635,-0.5793,-0.5322,-0.4821,-0.409,-0.3357,-0.2723,-0.2085,-0.1446,-0.0875,-0.0337,0.0438,0.1212,0.2017,-3.7876,-3.77,-3.7642,-3.7583,-3.751,-3.751,-3.7464,-3.7359,-3.7254,-3.7013,-3.6677,-3.6461,-3.6305,-3.6179,-3.599,-3.5767,-3.5589,-3.5326,-3.518,-3.5049,-3.4835,-3.4616,-3.438,-3.421,-3.3951,-3.3675,-3.3382,-3.3157,-3.2945,-3.2552,-3.2191,-3.1863,-3.1532,-3.131,-3.1136,-3.0874,-3.0622,-3.0457,-3.0228,-3.0037,-3.0011,-2.9856,-2.9779,-2.9779,-2.9779,-2.9779,-2.974,-2.9443,-2.9236,-2.904,-2.8803,-2.85,-2.8162,-2.7921,-2.7591,-2.7239,-2.6584,-2.6054,-2.5417,-2.4459,-2.3689,-2.315,-2.2703,-2.2214,-2.1721,-2.1397,-2.1128,-2.0858,-2.0547,-2.0274,-2.0099,-1.9604,-1.9104,-1.8702,-1.815,-1.7549,-1.7,-1.6609,-1.6034,-1.5467,-1.5045,-1.4712,-1.4304,-1.3899,-1.3528,-1.3156,-1.29,-1.2606,-1.2268,-1.194,-1.1505,-1.1031,-1.0616,-1.0012,-0.9301,-0.8805,-0.8322,-0.7857,-0.7368,-0.7106,-0.6848,-0.6321,-0.5793,-0.5322,-0.4824,-0.4123,-0.3424,-0.2758,-0.2154,-0.1547,-0.0942,-0.0336,0.0538,0.1514,0.2287,-3.802,-3.7759,-3.7716,-3.7628,-3.751,-3.751,-3.751,-3.748,-3.7359,-3.7119,-3.68,-3.6647,-3.6445,-3.6274,-3.6116,-3.599,-3.5799,-3.5557,-3.5394,-3.5264,-3.51,-3.4868,-3.4683,-3.4515,-3.4346,-3.4054,-3.3813,-3.3591,-3.3206,-3.2824,-3.2503,-3.2191,-3.1827,-3.1569,-3.1198,-3.0986,-3.0773,-3.0622,-3.047,-3.019,-3.0126,-2.9972,-2.983,-2.983,-2.9779,-2.9779,-2.9728,-2.9521,-2.9314,-2.9118,-2.8882,-2.8685,-2.8445,-2.821,-2.7954,-2.7699,-2.7272,-2.6605,-2.5953,-2.4722,-2.3686,-2.3113,-2.274,-2.2327,-2.1921,-2.154,-2.1244,-2.1022,-2.0712,-2.043,-2.0342,-1.9855,-1.9534,-1.9116,-1.8737,-1.8202,-1.762,-1.7123,-1.6523,-1.5914,-1.5554,-1.5197,-1.456,-1.4093,-1.3557,-1.3177,-1.2826,-1.2569,-1.2342,-1.2031,-1.1737,-1.1293,-1.0829,-1.0196,-0.9529,-0.8931,-0.8333,-0.7922,-0.7466,-0.7073,-0.6716,-0.6222,-0.5793,-0.5392,-0.4824,-0.4156,-0.3525,-0.296,-0.2321,-0.1715,-0.0975,-0.0134,0.0672,0.1614,0.2321,-3.8078,-3.7876,-3.7759,-3.7612,-3.751,-3.751,-3.751,-3.751,-3.7435,-3.7255,-3.6953,-3.6785,-3.66,-3.6445,-3.6242,-3.6148,-3.6085,-3.5831,-3.5655,-3.5542,-3.5347,-3.5213,-3.5082,-3.4916,-3.4668,-3.4448,-3.421,-3.3868,-3.3382,-3.3206,-3.2874,-3.2503,-3.2191,-3.1803,-3.1347,-3.1099,-3.0874,-3.0736,-3.0685,-3.0419,-3.0228,-3.0126,-2.9972,-2.9869,-2.9792,-2.9792,-2.974,-2.9599,-2.9392,-2.9157,-2.8961,-2.8764,-2.8542,-2.845,-2.839,-2.8314,-2.7762,-2.7409,-2.7127,-2.5108,-2.3931,-2.3209,-2.2852,-2.2515,-2.2138,-2.1769,-2.1387,-2.1138,-2.0945,-2.0664,-2.0381,-2.0059,-1.9825,-1.9522,-1.9161,-1.8734,-1.8165,-1.7761,-1.7205,-1.6453,-1.6095,-1.5707,-1.4944,-1.4273,-1.3638,-1.3169,-1.2804,-1.2569,-1.2378,-1.2154,-1.1892,-1.1525,-1.1043,-1.0386,-0.9718,-0.8981,-0.8386,-0.797,-0.7498,-0.7073,-0.6679,-0.6251,-0.5855,-0.5458,-0.4891,-0.4259,-0.3692,-0.3161,-0.2386,-0.1513,-0.0672,0.0134,0.0941,0.1681,0.2386,-3.8221,-3.8078,-3.7905,-3.7775,-3.7628,-3.7524,-3.751,-3.748,-3.7375,-3.724,-3.7089,-3.6846,-3.6693,-3.6569,-3.6367,-3.6196,-3.6179,-3.6022,-3.5863,-3.5688,-3.5559,-3.5394,-3.5246,-3.5148,-3.4968,-3.4735,-3.4534,-3.4346,-3.4025,-3.3626,-3.3276,-3.2945,-3.2408,-3.1877,-3.1458,-3.1198,-3.1099,-3.0911,-3.0773,-3.0622,-3.047,-3.0279,-3.0088,-2.9972,-2.9869,-2.983,-2.9779,-2.965,-2.9534,-2.9287,-2.9079,-2.8882,-2.8697,-2.8618,-2.8498,-2.851,-2.8103,-2.7678,-2.6963,-2.5471,-2.4457,-2.3724,-2.3086,-2.274,-2.2327,-2.1949,-2.1578,-2.1244,-2.1061,-2.078,-2.0537,-2.0303,-2.004,-1.9805,-1.9471,-1.9116,-1.8655,-1.8448,-1.8009,-1.7128,-1.6563,-1.5957,-1.5257,-1.4667,-1.4022,-1.3497,-1.3158,-1.2751,-1.2532,-1.2305,-1.2067,-1.1719,-1.1268,-1.059,-0.9892,-0.9159,-0.8443,-0.7926,-0.7461,-0.6975,-0.6581,-0.6251,-0.5855,-0.5458,-0.4924,-0.4359,-0.3694,-0.2958,-0.2118,-0.1277,-0.0504,0.0235,0.0941,0.168,0.2388,-3.8363,-3.8164,-3.7992,-3.7817,-3.77,-3.7553,-3.751,-3.748,-3.7359,-3.7254,-3.7164,-3.6907,-3.677,-3.6631,-3.643,-3.6305,-3.6274,-3.6116,-3.6053,-3.5879,-3.572,-3.5574,-3.5427,-3.5311,-3.518,-3.4968,-3.4802,-3.4601,-3.4312,-3.3902,-3.3556,-3.3171,-3.2624,-3.2119,-3.168,-3.1458,-3.1198,-3.1024,-3.0849,-3.0773,-3.0622,-3.047,-3.0279,-3.0126,-2.9972,-2.9856,-2.9818,-2.974,-2.9702,-2.9431,-2.9263,-2.9079,-2.8843,-2.8685,-2.8578,-2.855,-2.8398,-2.7912,-2.7011,-2.6179,-2.5165,-2.426,-2.3542,-2.2975,-2.259,-2.2176,-2.1807,-2.1474,-2.1177,-2.0935,-2.0693,-2.0498,-2.0216,-1.9942,-1.9666,-1.9311,-1.8944,-1.8727,-1.8381,-1.7547,-1.6931,-1.63,-1.5599,-1.5019,-1.4433,-1.3976,-1.3493,-1.3098,-1.2707,-1.2459,-1.2187,-1.1777,-1.14,-1.0814,-1.0079,-0.932,-0.8617,-0.7968,-0.7409,-0.6907,-0.6581,-0.6251,-0.5855,-0.5425,-0.4927,-0.4328,-0.3493,-0.2723,-0.1983,-0.1244,-0.0504,0.0235,0.0941,0.168,0.2388,-3.8448,-3.8193,-3.7976,-3.7831,-3.77,-3.7569,-3.751,-3.751,-3.7526,-3.7405,-3.7224,-3.7075,-3.6892,-3.6723,-3.6569,-3.6476,-3.646,-3.6274,-3.6211,-3.6101,-3.5926,-3.5752,-3.5638,-3.5524,-3.5377,-3.5261,-3.5082,-3.485,-3.4481,-3.421,-3.3833,-3.3312,-3.2717,-3.2322,-3.1973,-3.1656,-3.1323,-3.1136,-3.0986,-3.0874,-3.0736,-3.066,-3.0432,-3.0267,-3.0088,-2.9934,-2.9856,-2.9779,-2.965,-2.9509,-2.938,-2.9184,-2.8949,-2.8803,-2.8697,-2.859,-2.851,-2.8032,-2.7409,-2.6659,-2.5899,-2.4915,-2.4018,-2.3457,-2.2889,-2.2402,-2.2035,-2.1703,-2.1359,-2.1128,-2.0858,-2.0537,-2.0225,-2.0029,-1.9794,-1.9439,-1.9073,-1.8754,-1.8482,-1.7923,-1.7463,-1.6823,-1.6038,-1.5427,-1.4864,-1.4461,-1.3979,-1.3426,-1.3031,-1.2657,-1.2305,-1.1786,-1.1401,-1.0979,-1.026,-0.9509,-0.8725,-0.8029,-0.7441,-0.6921,-0.6618,-0.6251,-0.5855,-0.5428,-0.4964,-0.4298,-0.3393,-0.2622,-0.195,-0.121,-0.0504,0.0235,0.0941,0.1681,0.2388,-3.8504,-3.8323,-3.8164,-3.802,-3.7801,-3.7599,-3.751,-3.751,-3.751,-3.7464,-3.7405,-3.721,-3.7044,-3.6892,-3.6723,-3.6616,-3.6507,-3.6414,-3.6305,-3.6179,-3.6085,-3.5911,-3.5752,-3.5671,-3.5539,-3.5424,-3.5261,-3.5115,-3.485,-3.4549,-3.3937,-3.3312,-3.286,-3.2516,-3.2205,-3.189,-3.1545,-3.1286,-3.1099,-3.0986,-3.0874,-3.0811,-3.0571,-3.0381,-3.019,-3.0049,-2.9869,-2.9792,-2.974,-2.9689,-2.9496,-2.9302,-2.9263,-2.8949,-2.8724,-2.855,-2.8462,-2.8242,-2.7696,-2.7252,-2.6644,-2.5648,-2.4809,-2.3955,-2.3255,-2.2649,-2.2246,-2.1883,-2.1512,-2.1205,-2.0974,-2.0664,-2.0381,-2.0147,-1.9902,-1.9587,-1.9231,-1.8843,-1.8531,-1.7968,-1.7514,-1.7058,-1.6291,-1.5797,-1.5283,-1.4905,-1.4442,-1.3851,-1.3322,-1.2901,-1.2466,-1.1946,-1.1526,-1.1162,-1.0489,-0.9749,-0.8889,-0.8088,-0.7516,-0.697,-0.6547,-0.6184,-0.5804,-0.5296,-0.4664,-0.3961,-0.3226,-0.252,-0.1849,-0.121,-0.0504,0.0235,0.0941,0.1681,0.2388,-3.8544,-3.8391,-3.8266,-3.8078,-3.7876,-3.7671,-3.7569,-3.7569,-3.7524,-3.751,-3.748,-3.73,-3.7119,-3.6969,-3.68,-3.6631,-3.6492,-3.6492,-3.6429,-3.6352,-3.6242,-3.6101,-3.5943,-3.5784,-3.5638,-3.5524,-3.5424,-3.5279,-3.5049,-3.4582,-3.3957,-3.357,-3.3108,-3.2753,-3.2431,-3.2132,-3.1817,-3.1508,-3.1248,-3.1099,-3.0986,-3.0874,-3.0723,-3.0495,-3.0305,-3.0126,-2.9934,-2.9869,-2.9792,-2.9779,-2.9599,-2.9509,-2.938,-2.9028,-2.8803,-2.8618,-2.8526,-2.8378,-2.8011,-2.7579,-2.6972,-2.6247,-2.544,-2.4536,-2.3716,-2.3015,-2.2552,-2.2111,-2.1665,-2.1254,-2.1051,-2.0819,-2.0576,-2.0294,-2.0059,-1.9784,-1.9359,-1.8971,-1.8451,-1.7878,-1.7432,-1.7057,-1.6586,-1.6087,-1.5675,-1.5264,-1.4743,-1.4117,-1.3556,-1.3084,-1.2647,-1.2144,-1.1761,-1.1403,-1.0649,-0.9913,-0.9118,-0.8322,-0.7696,-0.7155,-0.6587,-0.6116,-0.5794,-0.5044,-0.4231,-0.3567,-0.3004,-0.2389,-0.1748,-0.1109,-0.047,0.0235,0.0941,0.1681,0.2388,-3.8655,-3.8379,-3.8266,-3.8123,-3.7918,-3.7788,-3.77,-3.7671,-3.7569,-3.751,-3.748,-3.73,-3.718,-3.7014,-3.6846,-3.6662,-3.6554,-3.6523,-3.6492,-3.6492,-3.6352,-3.6211,-3.607,-3.5896,-3.5784,-3.5671,-3.5557,-3.5377,-3.5115,-3.4683,-3.4244,-3.3917,-3.3466,-3.3065,-3.2753,-3.2372,-3.2023,-3.1743,-3.1434,-3.1235,-3.1061,-3.0986,-3.0911,-3.0698,-3.0495,-3.0292,-3.0113,-2.9934,-2.983,-2.9792,-2.974,-2.9638,-2.9341,-2.9106,-2.891,-2.8764,-2.8657,-2.8514,-2.829,-2.7932,-2.7474,-2.6729,-2.5919,-2.5142,-2.4377,-2.3241,-2.2596,-2.2225,-2.1769,-2.1436,-2.1205,-2.0984,-2.0702,-2.042,-2.0147,-1.9902,-1.9597,-1.9091,-1.8371,-1.7846,-1.7473,-1.7057,-1.6681,-1.6221,-1.5937,-1.5564,-1.5014,-1.4375,-1.3856,-1.3337,-1.2806,-1.2325,-1.1885,-1.1459,-1.0816,-1.0066,-0.9332,-0.8602,-0.7911,-0.723,-0.6614,-0.6172,-0.5758,-0.494,-0.4096,-0.3434,-0.2817,-0.2197,-0.1617,-0.1008,-0.037,0.0235,0.0941,0.1681,0.2388,-3.8655,-3.8391,-3.825,-3.818,-3.8107,-3.7934,-3.7804,-3.77,-3.7671,-3.7599,-3.7494,-3.745,-3.7315,-3.7104,-3.6968,-3.6831,-3.6662,-3.6538,-3.6523,-3.6492,-3.6414,-3.632,-3.6242,-3.6101,-3.5911,-3.5752,-3.5638,-3.5492,-3.518,-3.4817,-3.453,-3.4225,-3.3744,-3.3312,-3.3086,-3.266,-3.2264,-3.2,-3.1656,-3.136,-3.1099,-3.0986,-3.0911,-3.0773,-3.0584,-3.0419,-3.0228,-3.0088,-2.9934,-2.9818,-2.9779,-2.9638,-2.9419,-2.9302,-2.9106,-2.8882,-2.8752,-2.8657,-2.8502,-2.8227,-2.7798,-2.7317,-2.6582,-2.5915,-2.4946,-2.3503,-2.2633,-2.2332,-2.1997,-2.1655,-2.1359,-2.1099,-2.0829,-2.0547,-2.0225,-1.999,-1.9794,-1.9082,-1.8331,-1.7887,-1.7473,-1.7147,-1.6738,-1.6435,-1.6165,-1.5718,-1.5201,-1.4634,-1.42,-1.3691,-1.2977,-1.2496,-1.1979,-1.1471,-1.0889,-1.0226,-0.9442,-0.8731,-0.807,-0.7379,-0.6671,-0.6068,-0.5495,-0.4827,-0.4066,-0.3346,-0.2679,-0.207,-0.1487,-0.0876,-0.0303,0.0303,0.0975,0.1681,0.2388,-3.8655,-3.8391,-3.8307,-3.8278,-3.8266,-3.8107,-3.7992,-3.7905,-3.7817,-3.77,-3.7583,-3.7494,-3.7375,-3.7224,-3.7119,-3.6907,-3.6708,-3.6631,-3.6554,-3.6523,-3.6492,-3.646,-3.6352,-3.6242,-3.6101,-3.5943,-3.5752,-3.5542,-3.5213,-3.5016,-3.4783,-3.4414,-3.3902,-3.3591,-3.3347,-3.286,-3.2503,-3.2205,-3.189,-3.1545,-3.1174,-3.1061,-3.0986,-3.0849,-3.0698,-3.0533,-3.0419,-3.0241,-3.0037,-2.9934,-2.9869,-2.974,-2.956,-2.9419,-2.9302,-2.9106,-2.891,-2.8764,-2.8605,-2.841,-2.8116,-2.7589,-2.6944,-2.6124,-2.5515,-2.421,-2.3296,-2.2913,-2.2223,-2.1818,-2.1512,-2.1215,-2.1022,-2.0751,-2.0225,-1.9794,-1.9439,-1.8891,-1.821,-1.7635,-1.7351,-1.7188,-1.6779,-1.6368,-1.609,-1.5913,-1.5375,-1.4845,-1.4406,-1.3937,-1.3261,-1.2618,-1.2098,-1.1564,-1.1062,-1.0335,-0.9552,-0.8876,-0.8174,-0.7483,-0.6741,-0.5916,-0.5177,-0.464,-0.4003,-0.3266,-0.2624,-0.1968,-0.1325,-0.0742,-0.0202,0.037,0.1043,0.1681,0.2386,-3.8639,-3.8391,-3.8391,-3.8391,-3.8363,-3.8294,-3.8209,-3.8164,-3.802,-3.7876,-3.77,-3.7583,-3.7435,-3.73,-3.7194,-3.6952,-3.6816,-3.6693,-3.66,-3.6523,-3.6492,-3.6492,-3.6414,-3.632,-3.6211,-3.6038,-3.5847,-3.5606,-3.5329,-3.5166,-3.4916,-3.4549,-3.4312,-3.4074,-3.3507,-3.3122,-3.2824,-3.2372,-3.2059,-3.173,-3.1434,-3.1136,-3.1061,-3.0949,-3.0849,-3.0736,-3.0584,-3.0432,-3.019,-3.0011,-2.9908,-2.9779,-2.974,-2.9599,-2.9457,-2.9263,-2.904,-2.8882,-2.8724,-2.8407,-2.8167,-2.774,-2.6978,-2.6371,-2.5766,-2.5072,-2.4143,-2.3374,-2.2678,-2.2043,-2.1699,-2.1341,-2.1158,-2.0867,-2.0264,-1.9636,-1.917,-1.874,-1.817,-1.7514,-1.731,-1.7188,-1.6779,-1.6327,-1.6098,-1.5928,-1.5565,-1.5042,-1.4518,-1.4044,-1.3453,-1.2791,-1.2162,-1.1676,-1.1155,-1.0432,-0.9631,-0.8936,-0.8227,-0.7543,-0.6813,-0.5912,-0.5183,-0.4628,-0.3967,-0.3197,-0.2503,-0.1833,-0.1214,-0.0646,-0.0101,0.0404,0.1009,0.168,0.2386,-3.8655,-3.8391,-3.8391,-3.8391,-3.8391,-3.8379,-3.8323,-3.8193,-3.8164,-3.8049,-3.7876,-3.773,-3.7583,-3.7435,-3.7254,-3.7074,-3.6953,-3.6816,-3.6631,-3.6523,-3.6523,-3.6492,-3.6492,-3.6414,-3.6352,-3.6148,-3.5911,-3.5688,-3.5477,-3.5297,-3.5148,-3.4983,-3.4515,-3.4244,-3.3957,-3.3528,-3.3051,-3.2624,-3.2277,-3.195,-3.1619,-3.136,-3.1136,-3.1061,-3.0986,-3.0849,-3.0736,-3.0622,-3.0394,-3.0164,-2.9946,-2.9818,-2.974,-2.9702,-2.9611,-2.9431,-2.9157,-2.9,-2.8764,-2.8419,-2.8111,-2.7869,-2.7209,-2.6764,-2.6199,-2.5702,-2.4861,-2.41,-2.3343,-2.2485,-2.203,-2.1529,-2.1257,-2.0877,-2.0381,-1.9676,-1.9121,-1.8732,-1.829,-1.7757,-1.7351,-1.7106,-1.6771,-1.6409,-1.6128,-1.5933,-1.5643,-1.5135,-1.4736,-1.417,-1.3621,-1.2916,-1.2241,-1.1683,-1.1149,-1.04,-0.9647,-0.897,-0.8241,-0.7465,-0.6687,-0.5867,-0.5201,-0.4601,-0.3885,-0.3142,-0.2428,-0.1726,-0.1198,-0.0622,-0.0068,0.0472,0.1043,0.168,0.2386]},{"header":{"parameterUnit":"m.s-1","parameterCategory":1,"la1":31.0,"la2":29.5877,"lo1":-88.7671,"lo2":-86.6584,"dy":0.0162,"dx":0.0185,"nx":115,"ny":88,"refTime":"2023-05-06T00:00:00:Z","depth":0,"parameterNumber":3,"parameterNumberName":"V-component_of_WINDS"},"data":[0.0,0.0,0.0,0.0,0.0,0.0,0.0,0.0,0.0,0.0,0.0,0.0,0.0,0.0,0.0,0.0,0.0,0.0,0.0,0.0,0.0,0.0,0.0,0.0,0.0,0.0,0.0,0.0,0.0,0.0,0.0,0.0,0.0,0.0,0.0,0.0,0.0,0.0,0.0,0.0,0.0,0.0,0.0,0.0,0.0,0.0,0.0,0.0,0.0,0.0,0.0,0.0,0.0,0.0,0.0,0.0,0.0,0.0,0.0,0.0,0.0,0.0,0.0,0.0,0.0,0.0,0.0,0.0,0.0,0.0,0.0,0.0,0.0,0.0,0.0,0.0,0.0,0.0,0.0,0.0,0.0,0.0,0.0,0.0,0.0,0.0,0.0,0.0,0.0,0.0,0.0,0.0,0.0,0.0,0.0,0.0,0.0,0.0,0.0,0.0,0.0,0.0,0.0,0.0,0.0,0.0,0.0,0.0,0.0,0.0,0.0,0.0,0.0,0.0,0.0,0.0,0.0,0.0,0.0,0.0,0.0,0.0,0.0,0.0,0.0,0.0,0.0,0.0,0.0,0.0,0.0,0.0,0.0,0.0,0.0,0.0,0.0,0.0,0.0,0.0,0.0,0.0,0.0,0.0,0.0,0.0,0.0,0.0,0.0,0.0,0.0,0.0,0.0,0.0,0.0,0.0,0.0,0.0,0.0,0.0,0.0,0.0,0.0,0.0,0.0,0.0,0.0,0.0,0.0,0.0,0.0,0.0,0.0,0.0,0.0,0.0,0.0,0.0,0.0,0.0,0.0,0.0,0.0,0.0,0.0,0.0,0.0,0.0,0.0,0.0,0.0,0.0,0.0,0.0,0.0,0.0,0.0,0.0,0.0,0.0,0.0,0.0,0.0,0.0,0.0,0.0,0.0,0.0,0.0,0.0,0.0,0.0,0.0,0.0,0.0,0.0,0.0,0.0,0.0,0.0,0.0,0.0,0.0,0.0,0.0,0.0,0.0,0.0,0.0,0.0,0.0,0.0,0.0,0.0,0.0,0.0,0.0,0.0,0.0,0.0,0.0,0.0,0.0,0.0,0.0,0.0,0.0,0.0,0.0,0.0,0.0,0.0,0.0,0.0,0.0,0.0,0.0,0.0,0.0,0.0,0.0,0.0,0.0,0.0,0.0,0.0,0.0,0.0,0.0,0.0,0.0,0.0,0.0,0.0,0.0,0.0,0.0,0.0,0.0,0.0,0.0,0.0,0.0,0.0,0.0,0.0,0.0,0.0,0.0,0.0,0.0,0.0,0.0,0.0,0.0,0.0,0.0,0.0,0.0,0.0,0.0,0.0,0.0,0.0,0.0,0.0,0.0,0.0,0.0,0.0,0.0,0.0,0.0,0.0,0.0,0.0,0.0,0.0,0.0,0.0,0.0,0.0,0.0,0.0,0.0,0.0,0.0,0.0,0.0,0.0,0.0,0.0,0.0,0.0,0.0,0.0,0.0,0.0,0.0,0.0,0.0,0.0,0.0,0.0,0.0,0.0,0.0,0.0,0.0,0.0,0.0,0.0,0.0,0.0,0.0,0.0,0.0,0.0,0.0,0.0,0.0,0.0,0.0,0.0,0.0,0.0,0.0,0.0,0.0,0.0,0.0,0.0,0.0,0.0,0.0,0.0,0.0,0.0,0.0,0.0,0.0,0.0,0.0,0.0,0.0,0.0,0.0,0.0,0.0,0.0,0.0,0.0,0.0,0.0,0.0,0.0,0.0,0.0,0.0,0.0,0.0,0.0,0.0,0.0,0.0,0.0,0.0,0.0,0.0,0.0,0.0,0.0,0.0,0.0,0.0,0.0,0.0,0.0,0.0,0.0,0.0,0.0,0.0,0.0,0.0,0.0,0.0,0.0,0.0,0.0,0.0,0.0,0.0,0.0,0.0,0.0,0.0,0.0,0.0,0.0,0.0,0.0,0.0,0.0,0.0,0.0,0.0,0.0,0.0,0.0,0.0,0.0,0.0,0.0,0.0,0.0,0.0,0.0,0.0,0.0,0.0,0.0,0.0,0.0,0.0,0.0,0.0,0.0,0.0,0.0,0.0,0.0,0.0,0.0,0.0,0.0,0.0,0.0,0.0,0.0,0.0,0.0,0.0,0.0,0.0,0.0,0.0,0.0,0.0,0.0,0.0,0.0,0.0,0.0,0.0,0.0,0.0,0.0,0.0,0.0,0.0,0.0,0.0,0.0,0.0,0.0,0.0,0.0,0.0,0.0,0.0,0.0,0.0,0.0,0.0,0.0,0.0,0.0,0.0,0.0,0.0,0.0,0.0,0.0,0.0,0.0,0.0,0.0,0.0,0.0,0.0,0.0,0.0,0.0,0.0,0.0,0.0,0.0,0.0,0.0,0.0,0.0,0.0,0.0,0.0,0.0,0.0,0.0,0.0,0.0,0.0,0.0,0.0,0.0,0.0,0.0,0.0,0.0,0.0,0.0,0.0,0.0,0.0,0.0,0.0,0.0,0.0,0.0,0.0,0.0,0.0,0.0,0.0,0.0,0.0,0.0,0.0,0.0,0.0,0.0,0.0,0.0,0.0,0.0,0.0,0.0,0.0,0.0,0.0,0.0,0.0,0.0,0.0,0.0,0.0,0.0,0.0,0.0,0.0,0.0,0.0,0.0,0.0,0.0,0.0,0.0,0.0,0.0,0.0,0.0,0.0,0.0,0.0,0.0,0.0,0.0,0.0,0.0,0.0,0.0,0.0,0.0,0.0,0.0,0.0,0.0,0.0,0.0,0.0,0.0,0.0,0.0,0.0,0.0,0.0,0.0,0.0,0.0,0.0,0.0,0.0,0.0,0.0,0.0,0.0,0.0,0.0,0.0,0.0,0.0,0.0,0.0,0.0,0.0,0.0,0.0,0.0,0.0,0.0,0.0,0.0,0.0,0.0,0.0,0.0,0.0,0.0,0.0,0.0,0.0,0.0,0.0,0.0,0.0,0.0,0.0,0.0,0.0,0.0,0.0,0.0,0.0,0.0,0.0,0.0,0.0,0.0,0.0,0.0,0.0,0.0,0.0,0.0,0.0,0.0,0.0,0.0,0.0,0.0,0.0,0.0,0.0,0.0,0.0,0.0,0.0,0.0,0.0,0.0,0.0,0.0,0.0,0.0,0.0,0.0,0.0,0.0,0.0,0.0,0.0,0.0,0.0,0.0,0.0,0.0,0.0,0.0,0.0,0.0,0.0,0.0,0.0,0.0,0.0,0.0,0.0,0.0,0.0,0.0,0.0,0.0,0.0,0.0,0.0,0.0,0.0,0.0,0.0,0.0,0.0,0.0,0.0,0.0,0.0,0.0,0.0,0.0,0.0,0.0,0.0,0.0,0.0,0.0,0.0,0.0,0.0,0.0,0.0,0.0,0.0,0.0,0.0,0.0,0.0,0.0,0.0,0.0,0.0,0.0,0.0,0.0,0.0,0.0,0.0,0.0,0.0,0.0,0.0,0.0,0.0,0.0,0.0,0.0,0.0,0.0,0.0,0.0,0.0,0.0,0.0,0.0,0.0,0.0,0.0,0.0,0.0,0.0,0.0,0.0,0.0,0.0,0.0,0.0,0.0,0.0,0.0,0.0,0.0,0.0,0.0,0.0,0.0,0.0,0.0,0.0,0.0,0.0,0.0,0.0,0.0,0.0,0.0,0.0,0.0,0.0,0.0,0.0,0.0,0.0,0.0,0.0,0.0,0.0,0.0,0.0,0.0,0.0,0.0,0.0,0.0,0.0,0.0,0.0,0.0,0.0,0.0,0.0,0.0,0.0,0.0,0.0,0.0,0.0,0.0,0.0,0.0,0.0,0.0,0.0,0.0,0.0,0.0,0.0,0.0,0.0,0.0,0.0,0.0,0.0,0.0,0.0,0.0,0.0,0.0,0.0,0.0,0.0,0.0,0.0,0.0,0.0,0.0,0.0,0.0,0.0,0.0,0.0,0.0,0.0,0.0,0.0,0.0,0.0,0.0,0.0,0.0,0.0,0.0,0.0,0.0,0.0,0.0,0.0,0.0,0.0,0.0,0.0,0.0,0.0,0.0,0.0,0.0,0.0,0.0,0.0,0.0,0.0,0.0,0.0,0.0,0.0,0.0,0.0,0.0,0.0,0.0,0.0,0.0,0.0,0.0,0.0,0.0,0.0,0.0,0.0,0.0,0.0,0.0,0.0,0.0,0.0,0.0,0.0,0.0,0.0,0.0,0.0,0.0,0.0,0.0,0.0,0.0,0.0,0.0,0.0,0.0,1.8941,0.0,0.0,0.0,0.0,0.0,0.0,0.0,0.0,0.0,0.0,0.0,0.0,0.0,0.0,0.0,0.0,0.0,0.0,0.0,0.0,0.0,0.0,0.0,0.0,0.0,0.0,0.0,0.0,0.0,0.0,0.0,0.0,0.0,0.0,0.0,0.0,0.0,0.0,0.0,0.0,0.0,0.0,0.0,0.0,0.0,0.0,0.0,0.0,0.0,0.0,0.0,0.0,0.0,0.0,0.0,0.0,0.0,0.0,0.0,0.0,0.0,0.0,0.0,0.0,0.0,0.0,0.0,0.0,0.0,0.0,0.0,0.0,0.0,0.0,0.0,0.0,0.0,0.0,0.0,0.0,0.0,0.0,0.0,0.0,0.0,0.0,0.0,0.0,0.0,0.0,0.0,0.0,0.0,0.0,0.0,0.0,0.0,0.0,0.0,0.0,0.0,0.0,0.0,0.0,0.0,0.0,0.0,0.0,0.0,0.0,1.9162,1.9035,1.8949,1.8852,1.8742,0.0,0.0,0.0,0.0,0.0,0.0,0.0,0.0,0.0,0.0,0.0,0.0,0.0,0.0,0.0,0.0,0.0,0.0,0.0,0.0,0.0,0.0,0.0,0.0,0.0,0.0,0.0,0.0,0.0,0.0,0.0,0.0,0.0,0.0,0.0,0.0,0.0,0.0,0.0,0.0,0.0,0.0,0.0,0.0,0.0,0.0,0.0,0.0,0.0,0.0,0.0,0.0,0.0,0.0,0.0,0.0,0.0,0.0,0.0,0.0,0.0,0.0,0.0,0.0,0.0,0.0,0.0,0.0,0.0,0.0,0.0,0.0,0.0,0.0,0.0,0.0,0.0,0.0,0.0,0.0,0.0,0.0,0.0,0.0,0.0,0.0,0.0,0.0,0.0,0.0,0.0,0.0,0.0,0.0,0.0,0.0,0.0,0.0,0.0,0.0,0.0,0.0,0.0,0.0,0.0,0.0,0.0,0.0,0.0,0.0,0.0,0.0,1.8824,1.8677,1.8537,0.0,0.0,0.0,0.0,0.0,0.0,0.0,0.0,0.0,0.0,0.0,0.0,0.0,0.0,0.0,0.0,0.0,0.0,0.0,0.0,0.0,0.0,0.0,0.0,0.0,0.0,0.0,0.0,0.0,0.0,0.0,0.0,0.0,0.0,0.0,0.0,0.0,0.0,0.0,0.0,0.0,0.0,0.0,0.0,0.0,0.0,0.0,0.0,0.0,0.0,0.0,0.0,0.0,0.0,0.0,0.0,0.0,0.0,0.0,0.0,0.0,0.0,0.0,0.0,0.0,0.0,0.0,0.0,0.0,0.0,0.0,0.0,0.0,0.0,0.0,0.0,0.0,0.0,0.0,0.0,0.0,0.0,0.0,0.0,0.0,0.0,0.0,0.0,0.0,0.0,0.0,0.0,0.0,0.0,0.0,0.0,0.0,0.0,0.0,0.0,0.0,0.0,0.0,0.0,0.0,0.0,0.0,0.0,0.0,0.0,1.8931,1.8815,1.8684,0.0,1.833,0.0,0.0,0.0,0.0,0.0,0.0,0.0,0.0,0.0,0.0,0.0,0.0,0.0,0.0,0.0,0.0,0.0,0.0,0.0,0.0,0.0,0.0,0.0,0.0,0.0,0.0,0.0,0.0,0.0,0.0,0.0,0.0,0.0,0.0,0.0,0.0,0.0,0.0,0.0,0.0,0.0,0.0,0.0,0.0,0.0,0.0,0.0,0.0,0.0,0.0,0.0,0.0,0.0,0.0,0.0,0.0,0.0,0.0,0.0,0.0,0.0,0.0,0.0,0.0,0.0,0.0,0.0,0.0,0.0,0.0,0.0,0.0,0.0,0.0,0.0,0.0,0.0,0.0,0.0,0.0,0.0,0.0,0.0,0.0,0.0,0.0,0.0,0.0,0.0,0.0,0.0,0.0,0.0,0.0,0.0,0.0,0.0,0.0,0.0,0.0,0.0,0.0,0.0,0.0,0.0,0.0,0.0,0.0,0.0,0.0,1.8824,1.8696,1.8473,1.8329,0.0,0.0,0.0,0.0,0.0,0.0,0.0,0.0,0.0,0.0,0.0,0.0,0.0,0.0,0.0,0.0,0.0,0.0,0.0,0.0,0.0,0.0,0.0,0.0,0.0,0.0,0.0,0.0,0.0,0.0,0.0,0.0,0.0,0.0,0.0,0.0,0.0,0.0,0.0,0.0,0.0,0.0,0.0,0.0,0.0,0.0,0.0,0.0,0.0,0.0,0.0,0.0,0.0,0.0,0.0,0.0,0.0,0.0,0.0,0.0,0.0,0.0,0.0,0.0,0.0,0.0,0.0,0.0,0.0,0.0,0.0,0.0,0.0,0.0,0.0,0.0,0.0,0.0,0.0,0.0,0.0,0.0,0.0,0.0,0.0,0.0,0.0,0.0,0.0,0.0,0.0,0.0,0.0,0.0,0.0,0.0,0.0,0.0,0.0,0.0,0.0,0.0,0.0,0.0,0.0,0.0,0.0,0.0,0.0,0.0,1.8852,1.8658,1.8487,1.8291,1.819,1.8158,0.0,0.0,0.0,0.0,0.0,0.0,0.0,0.0,0.0,0.0,0.0,0.0,0.0,0.0,0.0,0.0,0.0,0.0,0.0,0.0,0.0,0.0,0.0,0.0,0.0,0.0,0.0,0.0,0.0,0.0,0.0,0.0,0.0,0.0,0.0,0.0,0.0,0.0,0.0,0.0,0.0,0.0,0.0,0.0,0.0,0.0,0.0,0.0,0.0,0.0,0.0,0.0,0.0,0.0,0.0,0.0,0.0,0.0,0.0,0.0,0.0,0.0,0.0,0.0,0.0,0.0,0.0,0.0,0.0,0.0,0.0,0.0,0.0,0.0,0.0,0.0,0.0,0.0,0.0,0.0,0.0,0.0,0.0,0.0,0.0,0.0,0.0,0.0,0.0,0.0,0.0,0.0,0.0,0.0,0.0,0.0,0.0,0.0,0.0,0.0,0.0,0.0,0.0,0.0,0.0,0.0,0.0,0.0,1.8914,1.8697,1.8477,1.8225,1.8211,1.814,0.0,0.0,0.0,0.0,0.0,0.0,0.0,0.0,0.0,0.0,0.0,0.0,0.0,0.0,0.0,0.0,0.0,0.0,0.0,0.0,0.0,0.0,0.0,0.0,0.0,0.0,0.0,0.0,0.0,0.0,0.0,0.0,0.0,0.0,0.0,0.0,0.0,0.0,0.0,0.0,0.0,0.0,0.0,0.0,0.0,0.0,0.0,0.0,0.0,0.0,0.0,0.0,0.0,0.0,0.0,0.0,0.0,0.0,0.0,0.0,0.0,0.0,0.0,0.0,0.0,0.0,0.0,0.0,0.0,0.0,0.0,0.0,0.0,0.0,0.0,0.0,0.0,0.0,0.0,0.0,0.0,0.0,0.0,0.0,0.0,0.0,0.0,0.0,0.0,0.0,0.0,0.0,0.0,0.0,0.0,0.0,0.0,0.0,0.0,0.0,0.0,0.0,0.0,0.0,0.0,0.0,0.0,0.0,0.0,1.8779,1.8489,1.8304,1.8211,1.807,1.7977,0.0,0.0,0.0,0.0,0.0,0.0,0.0,0.0,0.0,0.0,0.0,0.0,0.0,0.0,0.0,0.0,0.0,0.0,0.0,0.0,0.0,0.0,0.0,0.0,0.0,0.0,0.0,0.0,0.0,0.0,0.0,0.0,0.0,0.0,0.0,0.0,0.0,0.0,0.0,0.0,0.0,0.0,0.0,0.0,0.0,0.0,0.0,0.0,0.0,0.0,0.0,0.0,0.0,0.0,0.0,0.0,0.0,0.0,0.0,0.0,0.0,0.0,0.0,0.0,0.0,0.0,0.0,0.0,0.0,0.0,0.0,0.0,0.0,0.0,0.0,0.0,0.0,0.0,0.0,0.0,0.0,0.0,0.0,0.0,0.0,0.0,0.0,0.0,0.0,0.0,0.0,0.0,0.0,0.0,0.0,0.0,0.0,0.0,0.0,0.0,0.0,0.0,0.0,0.0,0.0,0.0,0.0,0.0,0.0,1.8915,0.0,1.8845,1.8767,1.8404,1.8183,0.0,0.0,0.0,0.0,0.0,0.0,0.0,0.0,0.0,0.0,0.0,0.0,0.0,0.0,0.0,0.0,0.0,0.0,0.0,0.0,0.0,0.0,0.0,0.0,0.0,0.0,0.0,0.0,0.0,0.0,0.0,0.0,0.0,0.0,0.0,0.0,0.0,0.0,0.0,0.0,0.0,0.0,0.0,0.0,0.0,0.0,0.0,0.0,0.0,0.0,0.0,0.0,0.0,0.0,0.0,0.0,0.0,0.0,0.0,0.0,0.0,0.0,0.0,0.0,0.0,0.0,0.0,0.0,0.0,0.0,0.0,0.0,0.0,0.0,0.0,0.0,0.0,0.0,0.0,0.0,0.0,0.0,0.0,0.0,0.0,0.0,0.0,0.0,0.0,0.0,0.0,0.0,0.0,0.0,0.0,0.0,0.0,0.0,0.0,0.0,0.0,0.0,0.0,0.0,0.0,0.0,0.0,0.0,1.8976,1.9397,1.9875,2.003,1.998,1.9209,1.8802,0.0,0.0,0.0,0.0,0.0,0.0,0.0,0.0,0.0,0.0,0.0,0.0,0.0,0.0,0.0,0.0,0.0,0.0,0.0,0.0,0.0,0.0,0.0,0.0,0.0,0.0,0.0,0.0,0.0,0.0,0.0,0.0,0.0,0.0,0.0,0.0,0.0,0.0,0.0,0.0,0.0,0.0,0.0,0.0,0.0,0.0,0.0,0.0,0.0,0.0,0.0,0.0,0.0,0.0,0.0,0.0,0.0,0.0,0.0,0.0,0.0,0.0,0.0,0.0,0.0,0.0,0.0,0.0,0.0,0.0,0.0,0.0,0.0,0.0,0.0,0.0,0.0,0.0,0.0,0.0,0.0,0.0,0.0,0.0,0.0,0.0,0.0,0.0,0.0,0.0,0.0,0.0,0.0,0.0,0.0,0.0,0.0,0.0,0.0,0.0,0.0,0.0,0.0,0.0,0.0,0.0,0.0,0.0,0.0,1.9911,1.9896,1.9894,1.9786,1.9553,1.9189,0.0,0.0,0.0,0.0,0.0,0.0,0.0,0.0,0.0,0.0,0.0,0.0,0.0,0.0,0.0,0.0,0.0,0.0,0.0,0.0,0.0,0.0,0.0,0.0,0.0,0.0,0.0,0.0,0.0,0.0,0.0,0.0,0.0,0.0,0.0,0.0,0.0,0.0,0.0,0.0,0.0,0.0,0.0,0.0,0.0,0.0,0.0,0.0,0.0,0.0,0.0,0.0,0.0,0.0,0.0,0.0,0.0,0.0,0.0,0.0,0.0,0.0,0.0,0.0,0.0,0.0,0.0,0.0,0.0,0.0,0.0,0.0,0.0,0.0,0.0,0.0,0.0,0.0,0.0,0.0,0.0,0.0,0.0,0.0,0.0,0.0,0.0,0.0,0.0,0.0,0.0,0.0,0.0,0.0,0.0,0.0,0.0,0.0,0.0,0.0,0.0,0.0,0.0,0.0,0.0,0.0,0.0,0.0,0.0,2.138,2.1251,2.1163,2.1105,2.0607,2.0141,1.972,0.0,0.0,0.0,0.0,0.0,0.0,0.0,0.0,0.0,0.0,0.0,0.0,0.0,0.0,0.0,0.0,0.0,0.0,0.0,0.0,0.0,0.0,0.0,0.0,0.0,0.0,0.0,0.0,0.0,0.0,0.0,0.0,0.0,0.0,0.0,0.0,0.0,0.0,0.0,0.0,0.0,0.0,0.0,0.0,0.0,0.0,0.0,0.0,0.0,0.0,0.0,0.0,0.0,0.0,0.0,0.0,0.0,0.0,0.0,0.0,0.0,0.0,0.0,0.0,0.0,0.0,0.0,0.0,0.0,0.0,0.0,0.0,0.0,0.0,0.0,0.0,0.0,0.0,0.0,0.0,0.0,0.0,0.0,0.0,0.0,0.0,0.0,0.0,0.0,0.0,0.0,0.0,0.0,0.0,0.0,0.0,0.0,0.0,0.0,0.0,0.0,0.0,0.0,0.0,0.0,0.0,0.0,0.0,2.3563,2.3578,2.3513,2.34,2.2135,2.1514,0.0,0.0,0.0,0.0,0.0,0.0,0.0,0.0,0.0,0.0,0.0,0.0,0.0,0.0,0.0,0.0,0.0,0.0,0.0,0.0,0.0,0.0,0.0,0.0,0.0,0.0,0.0,0.0,0.0,0.0,0.0,0.0,0.0,0.0,0.0,0.0,0.0,0.0,0.0,0.0,0.0,0.0,0.0,0.0,0.0,0.0,0.0,0.0,0.0,0.0,0.0,0.0,0.0,0.0,0.0,0.0,0.0,0.0,0.0,0.0,0.0,0.0,0.0,0.0,0.0,0.0,0.0,0.0,0.0,0.0,0.0,0.0,0.0,0.0,0.0,0.0,0.0,0.0,0.0,0.0,0.0,0.0,0.0,0.0,0.0,0.0,0.0,0.0,0.0,0.0,0.0,0.0,0.0,0.0,0.0,0.0,0.0,0.0,0.0,0.0,0.0,0.0,0.0,0.0,0.0,0.0,0.0,0.0,0.0,2.4566,2.4509,2.4055,2.3236,2.2505,2.1923,0.0,0.0,0.0,0.0,0.0,0.0,0.0,0.0,0.0,0.0,0.0,0.0,0.0,0.0,0.0,0.0,0.0,0.0,0.0,0.0,0.0,0.0,0.0,0.0,0.0,0.0,0.0,0.0,0.0,0.0,0.0,0.0,0.0,0.0,0.0,0.0,0.0,0.0,0.0,0.0,0.0,0.0,0.0,0.0,0.0,0.0,0.0,0.0,0.0,0.0,0.0,0.0,0.0,0.0,0.0,0.0,0.0,0.0,0.0,0.0,0.0,0.0,0.0,0.0,0.0,0.0,0.0,0.0,0.0,0.0,0.0,0.0,0.0,0.0,0.0,0.0,0.0,0.0,0.0,0.0,0.0,0.0,0.0,0.0,0.0,0.0,0.0,0.0,0.0,0.0,0.0,0.0,0.0,0.0,0.0,0.0,0.0,0.0,0.0,0.0,0.0,0.0,0.0,0.0,0.0,0.0,0.0,0.0,2.4328,2.5309,2.5508,2.5168,2.4265,2.3517,2.2841,0.0,0.0,0.0,0.0,0.0,0.0,0.0,0.0,0.0,0.0,0.0,0.0,0.0,0.0,0.0,0.0,0.0,0.0,0.0,0.0,0.0,0.0,0.0,0.0,0.0,0.0,0.0,0.0,0.0,0.0,0.0,0.0,0.0,0.0,0.0,0.0,0.0,0.0,0.0,0.0,0.0,0.0,0.0,0.0,0.0,0.0,0.0,0.0,0.0,0.0,0.0,0.0,0.0,0.0,0.0,0.0,0.0,0.0,0.0,0.0,0.0,0.0,0.0,0.0,0.0,0.0,0.0,0.0,0.0,0.0,0.0,0.0,0.0,0.0,0.0,0.0,0.0,0.0,0.0,0.0,0.0,0.0,0.0,0.0,0.0,0.0,0.0,0.0,0.0,0.0,0.0,0.0,0.0,0.0,0.0,0.0,0.0,0.0,0.0,0.0,0.0,0.0,0.0,0.0,0.0,0.0,0.0,0.0,2.4786,2.5848,2.6414,2.6424,2.5885,2.4815,2.3962,0.0,0.0,0.0,0.0,0.0,0.0,0.0,0.0,0.0,0.0,0.0,0.0,0.0,0.0,0.0,0.0,0.0,0.0,0.0,0.0,0.0,0.0,0.0,0.0,0.0,0.0,0.0,0.0,0.0,0.0,0.0,0.0,0.0,0.0,0.0,0.0,0.0,0.0,0.0,0.0,0.0,0.0,0.0,0.0,0.0,0.0,0.0,0.0,0.0,0.0,0.0,0.0,0.0,0.0,0.0,0.0,0.0,0.0,0.0,0.0,0.0,0.0,0.0,0.0,0.0,0.0,0.0,0.0,0.0,0.0,0.0,0.0,0.0,0.0,0.0,0.0,0.0,0.0,0.0,0.0,0.0,0.0,0.0,0.0,0.0,0.0,0.0,0.0,0.0,0.0,0.0,0.0,0.0,0.0,0.0,0.0,0.0,0.0,0.0,0.0,0.0,0.0,0.0,0.0,0.0,0.0,0.0,0.0,2.5332,2.633,2.6488,2.6548,2.6502,2.5462,2.4425,0.0,0.0,0.0,0.0,0.0,0.0,0.0,0.0,0.0,0.0,0.0,0.0,0.0,0.0,0.0,0.0,0.0,0.0,0.0,0.0,0.0,0.0,0.0,0.0,0.0,0.0,0.0,0.0,0.0,0.0,0.0,0.0,0.0,0.0,0.0,0.0,0.0,0.0,0.0,0.0,0.0,0.0,0.0,0.0,0.0,0.0,0.0,0.0,1.5293,0.0,0.0,0.0,0.0,0.0,0.0,0.0,0.0,0.0,0.0,0.0,0.0,0.0,0.0,0.0,0.0,0.0,0.0,0.0,0.0,0.0,0.0,0.0,0.0,0.0,0.0,0.0,0.0,0.0,0.0,0.0,0.0,0.0,0.0,0.0,0.0,0.0,0.0,0.0,0.0,0.0,0.0,0.0,0.0,0.0,0.0,0.0,0.0,0.0,0.0,0.0,0.0,0.0,0.0,0.0,0.0,0.0,0.0,0.0,2.5586,2.637,2.7003,2.7103,2.6707,2.6278,2.5256,0.0,0.0,0.0,0.0,0.0,0.0,0.0,0.0,0.0,0.0,0.0,0.0,0.0,0.0,0.0,0.0,0.0,0.0,0.0,0.0,0.0,0.0,0.0,0.0,0.0,0.0,0.0,0.0,0.0,0.0,0.0,0.0,0.0,0.0,0.0,0.0,0.0,0.0,0.0,0.0,0.0,0.0,0.0,0.0,0.0,0.0,0.0,0.0,0.0,0.0,0.0,0.0,0.0,0.0,0.0,0.0,0.0,0.0,0.0,0.0,0.0,0.0,0.0,0.0,0.0,0.0,0.0,0.0,0.0,0.0,0.0,0.0,0.0,0.0,0.0,0.0,0.0,0.0,0.0,0.0,0.0,0.0,0.0,0.0,0.0,0.0,0.0,0.0,0.0,0.0,0.0,0.0,0.0,0.0,0.0,0.0,0.0,0.0,0.0,0.0,0.0,0.0,0.0,0.0,0.0,0.0,0.0,2.4611,2.5764,2.6282,2.7531,2.7711,2.6716,2.6934,2.5955,2.3663,0.0,0.0,0.0,0.0,0.0,0.0,0.0,0.0,0.0,0.0,0.0,0.0,0.0,0.0,0.0,0.0,0.0,0.0,0.0,0.0,0.0,0.0,0.0,0.0,0.0,0.0,0.0,0.0,0.0,0.0,0.0,0.0,0.0,0.0,0.0,0.0,0.0,0.0,1.5406,1.5409,0.0,0.0,0.0,0.0,0.0,0.0,0.0,0.0,1.5598,0.0,0.0,0.0,0.0,0.0,0.0,0.0,0.0,0.0,0.0,0.0,0.0,0.0,0.0,0.0,0.0,0.0,0.0,0.0,0.0,0.0,0.0,0.0,0.0,0.0,0.0,0.0,0.0,0.0,0.0,0.0,0.0,0.0,0.0,0.0,0.0,0.0,0.0,0.0,0.0,0.0,0.0,0.0,0.0,0.0,0.0,0.0,0.0,0.0,0.0,0.0,0.0,0.0,0.0,0.0,0.0,2.265,2.4852,2.6008,2.6054,2.7459,2.7663,2.6605,2.6891,2.6018,2.3849,0.0,0.0,0.0,0.0,0.0,0.0,0.0,0.0,0.0,0.0,0.0,0.0,0.0,0.0,0.0,0.0,0.0,0.0,0.0,0.0,0.0,0.0,0.0,0.0,0.0,0.0,0.0,0.0,0.0,0.0,0.0,0.0,0.0,0.0,0.0,0.0,0.0,0.0,0.0,1.5406,1.5409,0.0,0.0,0.0,0.0,0.0,0.0,0.0,0.0,1.65,0.0,0.0,0.0,0.0,0.0,0.0,0.0,0.0,0.0,0.0,0.0,0.0,0.0,0.0,0.0,0.0,0.0,0.0,0.0,0.0,0.0,0.0,0.0,0.0,0.0,0.0,0.0,0.0,0.0,0.0,0.0,0.0,0.0,0.0,0.0,0.0,0.0,0.0,0.0,0.0,0.0,0.0,0.0,0.0,0.0,0.0,0.0,0.0,0.0,0.0,0.0,0.0,0.0,0.0,0.0,2.2471,2.4756,2.5971,2.6024,2.7363,2.7568,2.6545,2.695,2.611,0.0,0.0,0.0,0.0,0.0,0.0,0.0,0.0,0.0,0.0,0.0,0.0,0.0,0.0,0.0,0.0,0.0,0.0,0.0,0.0,0.0,0.0,0.0,0.0,0.0,0.0,0.0,0.0,0.0,0.0,0.0,0.0,0.0,0.0,0.0,0.0,0.0,0.0,0.0,0.0,1.5419,1.5561,1.6015,0.0,0.0,0.0,0.0,0.0,0.0,1.7365,1.7365,0.0,0.0,0.0,0.0,0.0,0.0,0.0,0.0,0.0,0.0,0.0,0.0,0.0,0.0,0.0,0.0,0.0,0.0,0.0,0.0,0.0,0.0,0.0,0.0,0.0,0.0,0.0,0.0,0.0,0.0,0.0,0.0,0.0,0.0,0.0,0.0,0.0,0.0,0.0,0.0,0.0,0.0,0.0,0.0,0.0,0.0,0.0,0.0,0.0,0.0,0.0,0.0,0.0,0.0,0.0,2.2187,2.4474,2.5755,2.5924,2.7219,2.7487,2.6507,2.6965,2.6113,0.0,0.0,0.0,0.0,0.0,0.0,0.0,0.0,0.0,0.0,0.0,0.0,0.0,0.0,0.0,0.0,0.0,0.0,0.0,0.0,0.0,0.0,0.0,0.0,0.0,0.0,0.0,0.0,0.0,0.0,0.0,0.0,0.0,0.0,0.0,0.0,0.0,0.0,0.0,0.0,0.0,1.5902,1.6595,1.6851,0.0,0.0,0.0,0.0,1.8258,1.8276,0.0,0.0,0.0,0.0,0.0,0.0,0.0,0.0,0.0,0.0,0.0,0.0,0.0,0.0,0.0,0.0,0.0,0.0,0.0,0.0,0.0,0.0,0.0,0.0,0.0,0.0,0.0,0.0,0.0,0.0,0.0,0.0,0.0,0.0,0.0,0.0,0.0,0.0,0.0,0.0,0.0,0.0,0.0,0.0,0.0,0.0,0.0,0.0,0.0,0.0,0.0,0.0,0.0,0.0,0.0,0.0,2.1922,2.4104,2.5325,2.5527,2.6999,2.7337,2.6357,2.6782,2.603,0.0,0.0,0.0,0.0,0.0,0.0,0.0,0.0,0.0,0.0,0.0,0.0,0.0,0.0,0.0,0.0,0.0,0.0,0.0,0.0,0.0,0.0,0.0,0.0,0.0,0.0,0.0,0.0,0.0,0.0,0.0,0.0,0.0,0.0,0.0,0.0,0.0,0.0,0.0,0.0,0.0,1.6583,1.6696,1.7361,1.7874,0.0,0.0,1.9139,1.9141,1.916,0.0,0.0,0.0,0.0,0.0,0.0,0.0,0.0,0.0,0.0,0.0,0.0,0.0,0.0,0.0,0.0,0.0,0.0,0.0,0.0,0.0,0.0,0.0,0.0,0.0,0.0,0.0,0.0,0.0,0.0,0.0,0.0,0.0,0.0,0.0,0.0,0.0,0.0,0.0,0.0,0.0,0.0,0.0,0.0,0.0,0.0,0.0,0.0,0.0,0.0,0.0,0.0,0.0,0.0,0.0,2.2035,2.267,2.4332,2.547,2.5966,2.7145,2.7312,2.6319,2.6804,2.6014,0.0,0.0,0.0,0.0,0.0,0.0,0.0,0.0,0.0,0.0,0.0,0.0,0.0,0.0,0.0,0.0,0.0,0.0,0.0,0.0,0.0,0.0,0.0,0.0,0.0,0.0,0.0,0.0,0.0,0.0,0.0,0.0,0.0,0.0,0.0,0.0,0.0,0.0,0.0,0.0,0.0,0.0,1.8043,1.8421,0.0,0.0,0.0,1.9989,2.0036,0.0,0.0,0.0,0.0,0.0,0.0,0.0,0.0,0.0,0.0,0.0,0.0,0.0,0.0,0.0,0.0,0.0,0.0,0.0,0.0,0.0,0.0,0.0,0.0,0.0,0.0,0.0,0.0,0.0,0.0,0.0,0.0,0.0,0.0,0.0,0.0,0.0,0.0,0.0,0.0,0.0,0.0,0.0,0.0,0.0,0.0,0.0,0.0,0.0,0.0,0.0,0.0,0.0,0.0,0.0,0.0,0.0,2.326,2.4479,2.5521,2.6332,2.722,2.7216,2.6305,2.6776,0.0,0.0,0.0,0.0,0.0,0.0,0.0,0.0,0.0,0.0,0.0,0.0,0.0,0.0,0.0,0.0,0.0,0.0,0.0,0.0,0.0,0.0,0.0,0.0,0.0,0.0,0.0,1.7882,0.0,0.0,0.0,0.0,0.0,0.0,0.0,0.0,0.0,0.0,0.0,0.0,0.0,0.0,1.8431,1.9092,1.9377,1.9731,0.0,0.0,2.0519,2.0572,2.0576,2.0578,0.0,0.0,0.0,0.0,0.0,0.0,0.0,0.0,0.0,0.0,0.0,0.0,0.0,0.0,0.0,0.0,0.0,0.0,0.0,0.0,0.0,0.0,0.0,0.0,0.0,0.0,0.0,0.0,0.0,0.0,0.0,0.0,0.0,0.0,0.0,0.0,0.0,0.0,0.0,0.0,0.0,0.0,0.0,0.0,0.0,0.0,0.0,0.0,0.0,0.0,0.0,0.0,0.0,0.0,0.0,2.3127,2.4296,2.537,2.6208,2.7009,2.701,2.6161,2.6557,2.607,0.0,0.0,0.0,0.0,0.0,0.0,0.0,0.0,0.0,0.0,0.0,0.0,0.0,0.0,0.0,0.0,0.0,0.0,0.0,0.0,0.0,0.0,0.0,0.0,0.0,0.0,0.0,0.0,0.0,0.0,0.0,0.0,0.0,0.0,0.0,0.0,0.0,0.0,0.0,0.0,0.0,1.9043,1.9109,1.9808,2.0357,0.0,0.0,2.0503,2.0509,2.052,2.053,2.0594,0.0,0.0,0.0,0.0,0.0,0.0,0.0,0.0,0.0,0.0,0.0,0.0,0.0,0.0,0.0,0.0,0.0,0.0,0.0,0.0,0.0,0.0,0.0,0.0,0.0,0.0,0.0,0.0,0.0,0.0,0.0,0.0,0.0,0.0,0.0,0.0,0.0,0.0,0.0,0.0,0.0,0.0,0.0,0.0,0.0,0.0,0.0,0.0,0.0,0.0,0.0,0.0,0.0,2.2524,2.4112,2.4602,2.5481,2.6769,2.7191,2.718,2.674,2.67,2.6146,0.0,0.0,0.0,0.0,0.0,0.0,0.0,0.0,0.0,0.0,0.0,0.0,0.0,0.0,0.0,0.0,0.0,0.0,0.0,0.0,0.0,0.0,0.0,0.0,0.0,0.0,0.0,0.0,1.9573,1.9773,1.9765,0.0,0.0,0.0,0.0,0.0,0.0,0.0,0.0,0.0,0.0,1.9841,1.9845,2.0163,0.0,0.0,2.0485,2.0504,2.0501,2.0968,2.1292,2.1339,2.1791,0.0,0.0,0.0,0.0,0.0,0.0,0.0,0.0,0.0,0.0,0.0,0.0,0.0,0.0,0.0,0.0,0.0,0.0,0.0,0.0,0.0,0.0,0.0,0.0,0.0,0.0,0.0,0.0,0.0,0.0,0.0,0.0,0.0,0.0,0.0,0.0,0.0,0.0,0.0,0.0,0.0,0.0,0.0,0.0,0.0,0.0,0.0,0.0,0.0,0.0,0.0,0.0,2.2868,2.4757,2.4998,2.5773,2.7152,2.7284,2.725,2.7066,2.6911,2.6395,0.0,0.0,0.0,0.0,0.0,0.0,0.0,0.0,0.0,0.0,0.0,0.0,0.0,0.0,0.0,0.0,0.0,0.0,0.0,0.0,0.0,0.0,0.0,0.0,0.0,0.0,0.0,0.0,2.0148,2.0143,2.0165,0.0,0.0,0.0,0.0,0.0,0.0,0.0,0.0,0.0,0.0,2.1031,2.1039,2.1108,2.1123,2.1146,2.1194,2.124,2.123,2.1757,2.2164,2.2198,0.0,0.0,0.0,0.0,0.0,0.0,0.0,0.0,0.0,0.0,0.0,0.0,0.0,0.0,0.0,0.0,0.0,0.0,0.0,0.0,0.0,0.0,0.0,0.0,0.0,0.0,0.0,0.0,0.0,0.0,1.7844,0.0,0.0,0.0,0.0,0.0,0.0,0.0,0.0,0.0,0.0,0.0,0.0,0.0,0.0,0.0,0.0,0.0,0.0,0.0,0.0,0.0,0.0,2.3179,2.4781,2.5429,2.6221,2.7163,2.7192,2.7165,2.704,2.717,2.686,2.5977,0.0,0.0,0.0,0.0,0.0,0.0,0.0,0.0,0.0,0.0,0.0,0.0,0.0,0.0,0.0,0.0,0.0,0.0,0.0,0.0,0.0,0.0,0.0,0.0,0.0,0.0,2.0059,2.0006,2.0035,0.0,0.0,0.0,0.0,0.0,0.0,0.0,0.0,0.0,0.0,2.2135,2.2667,2.2717,2.2725,2.2705,2.2785,2.2804,2.2856,2.2868,2.2945,2.3006,0.0,0.0,0.0,0.0,0.0,0.0,0.0,0.0,0.0,0.0,0.0,0.0,0.0,0.0,0.0,0.0,0.0,0.0,0.0,0.0,0.0,0.0,0.0,0.0,0.0,0.0,0.0,1.8834,1.9365,0.0,0.0,0.0,0.0,0.0,0.0,0.0,0.0,0.0,0.0,0.0,2.3858,2.3805,0.0,0.0,0.0,0.0,0.0,0.0,0.0,0.0,0.0,0.0,0.0,0.0,2.368,2.4888,2.5598,2.6327,2.7178,2.7299,2.7399,2.7523,2.7287,2.6667,2.558,0.0,0.0,0.0,0.0,0.0,0.0,0.0,0.0,0.0,0.0,0.0,0.0,0.0,0.0,0.0,0.0,0.0,0.0,0.0,0.0,0.0,0.0,0.0,0.0,0.0,2.1469,0.0,0.0,0.0,0.0,0.0,0.0,0.0,0.0,0.0,0.0,0.0,2.2297,2.2307,2.2542,2.27,2.2729,2.2728,2.2741,0.0,0.0,0.0,0.0,0.0,0.0,0.0,0.0,0.0,0.0,0.0,0.0,0.0,0.0,2.2228,2.2234,2.2183,2.2031,2.1697,0.0,0.0,0.0,0.0,0.0,0.0,0.0,0.0,0.0,0.0,0.0,0.0,0.0,0.0,2.0019,0.0,2.0428,0.0,0.0,0.0,0.0,0.0,0.0,0.0,0.0,2.4436,2.494,2.513,2.5075,2.4873,0.0,2.4379,2.3642,0.0,0.0,0.0,0.0,0.0,0.0,0.0,0.0,2.4309,2.5385,2.6098,2.6703,2.7244,2.735,2.7514,2.7775,2.737,2.6753,2.5911,2.5333,2.4724,0.0,0.0,0.0,0.0,0.0,0.0,0.0,0.0,0.0,0.0,0.0,0.0,0.0,0.0,0.0,0.0,0.0,0.0,0.0,0.0,0.0,0.0,0.0,2.2168,0.0,0.0,0.0,0.0,0.0,0.0,0.0,0.0,0.0,2.2015,2.2613,2.311,2.312,2.3348,2.3539,2.3571,0.0,0.0,0.0,0.0,0.0,0.0,0.0,2.5179,2.5207,2.6393,2.7006,2.594,2.5271,2.4918,2.4902,0.0,0.0,2.3325,2.3078,2.302,2.2936,2.292,2.289,2.2806,2.2705,2.2606,0.0,0.0,0.0,0.0,0.0,0.0,0.0,0.0,2.1393,2.1524,0.0,2.1927,0.0,0.0,0.0,0.0,0.0,2.3011,0.0,0.0,2.536,2.5918,2.6361,2.6374,2.6216,2.5905,2.6013,2.5947,2.5741,2.4144,0.0,0.0,0.0,0.0,0.0,0.0,2.5065,2.6208,2.6941,2.7318,2.7446,2.7446,2.7558,2.7775,2.7466,2.7209,2.6965,2.5931,2.5262,2.5095,2.4128,0.0,0.0,0.0,0.0,0.0,0.0,0.0,0.0,0.0,0.0,0.0,0.0,0.0,0.0,0.0,0.0,0.0,0.0,0.0,0.0,2.2325,0.0,0.0,0.0,0.0,0.0,0.0,0.0,0.0,0.0,0.0,2.3023,2.3547,2.397,2.399,0.0,0.0,0.0,0.0,2.5267,2.5378,2.5365,2.539,2.5466,2.625,2.6842,2.6896,0.0,0.0,2.8292,2.8293,2.8173,2.8261,2.812,2.7245,2.3947,2.3431,2.33,2.3159,2.3143,2.3004,2.2925,2.3001,2.2857,2.2438,0.0,0.0,0.0,0.0,2.1894,2.2156,2.2568,2.2597,2.2783,2.3041,2.3212,0.0,0.0,0.0,0.0,0.0,0.0,2.4805,2.5866,2.6369,2.7019,2.7814,2.7754,2.7828,2.7984,2.7413,2.7128,2.7062,2.6652,2.5864,2.4762,0.0,0.0,0.0,0.0,2.6708,2.7098,2.8192,2.856,2.8125,2.8204,2.8094,2.7806,2.737,2.7226,2.7347,2.6398,2.5718,2.5387,2.4911,0.0,0.0,0.0,0.0,0.0,0.0,0.0,0.0,0.0,0.0,0.0,0.0,0.0,0.0,0.0,0.0,0.0,0.0,0.0,2.4615,2.4186,2.383,0.0,0.0,0.0,0.0,0.0,0.0,0.0,0.0,0.0,2.6071,2.5812,2.5628,0.0,0.0,2.6034,2.6051,2.6057,2.6305,2.6981,2.7094,0.0,2.7157,2.7449,2.7686,2.7732,2.8003,2.8403,2.9033,2.8684,2.8288,2.8299,2.8299,2.7935,2.7063,2.6248,2.5598,2.4968,2.4771,2.4722,2.466,2.4543,2.4438,2.4706,2.4123,2.3321,2.3009,2.3191,2.3386,2.3612,2.3865,2.4089,2.4272,2.4463,2.45,2.4504,2.4522,2.4476,0.0,0.0,0.0,2.6045,2.6933,2.7408,2.7962,2.8446,2.8529,2.8739,2.8976,2.8659,2.8541,2.8644,2.8395,2.7961,2.7309,0.0,0.0,2.6396,2.7244,2.7802,2.8109,2.8931,2.9139,2.8768,2.8662,2.8355,2.7821,2.7585,2.7468,2.7419,2.6751,2.6216,2.5824,2.5286,2.4763,0.0,0.0,0.0,0.0,0.0,0.0,0.0,0.0,0.0,0.0,0.0,2.1718,0.0,0.0,0.0,0.0,2.4125,2.4995,2.5967,2.5653,0.0,0.0,0.0,0.0,0.0,0.0,0.0,2.5789,2.6307,2.6964,2.7809,2.7532,2.7127,2.6904,2.6866,2.686,2.6874,0.0,2.7077,2.768,2.7775,2.7821,2.7889,2.8222,2.8625,2.9055,2.9172,2.9357,2.9866,2.9596,2.9302,2.9314,2.9315,2.917,2.8824,2.8301,2.7651,2.6753,2.6262,2.5995,2.5925,2.5577,2.5217,2.6581,2.6729,2.4831,2.4126,2.425,2.4757,2.502,2.5227,2.5671,2.5926,2.5924,2.5825,2.577,2.5778,2.5579,0.0,2.6291,2.6828,2.7378,2.7905,2.839,2.8682,2.8707,2.8988,2.9191,2.933,2.9693,3.0017,3.0261,2.9575,2.946,2.9857,2.8541,2.7911,2.7971,2.815,2.8569,2.9156,2.9383,2.9409,2.9332,2.8856,2.834,2.7806,2.793,2.7799,2.7371,2.7043,2.6719,2.6349,2.5454,2.507,2.5313,0.0,0.0,0.0,0.0,0.0,0.0,0.0,0.0,0.0,0.0,0.0,0.0,0.0,0.0,0.0,2.6203,0.0,2.6691,2.6743,0.0,0.0,0.0,2.6972,2.716,2.7196,2.724,2.7363,0.0,0.0,2.8584,2.8682,2.8471,2.7856,2.7685,2.7642,2.7699,2.7713,2.7739,2.7975,2.7993,2.8052,2.8279,2.8845,2.9595,3.04,3.0701,3.0639,3.0735,3.0741,3.0782,3.0778,3.082,3.054,2.9741,2.9554,2.9338,2.8529,2.7589,2.6873,2.6659,2.602,2.5407,2.6925,2.6861,2.6345,2.6178,2.6226,2.6347,2.6493,2.6688,2.6797,2.6932,2.7078,2.7065,2.7136,2.728,2.7215,2.7371,2.7626,2.7765,2.8118,2.8647,2.8773,2.9138,2.9732,2.9971,3.0172,3.0332,3.0438,3.0512,3.0592,3.0501,3.0646,3.0998,3.0472,2.9693,2.8716,2.9323,2.9688,2.9879,3.0494,3.0398,2.954,2.891,2.8304,2.768,2.788,2.7953,2.7835,2.7597,2.7274,2.6836,2.6363,2.578,2.5042,2.4491,0.0,0.0,0.0,0.0,0.0,0.0,0.0,0.0,0.0,2.3858,2.4642,0.0,2.5863,0.0,2.6829,2.7382,2.7416,2.7563,0.0,0.0,2.7237,2.6925,2.7045,2.7054,2.7315,2.7977,2.8108,2.8472,2.9334,2.9445,2.9403,2.9292,2.8813,2.8517,2.8576,2.859,2.884,2.9416,2.9596,2.9735,2.9756,3.0057,3.035,3.0645,3.0711,3.0712,3.0779,3.0794,3.0798,3.0831,3.0859,3.0758,3.0528,3.0478,3.0402,3.0077,2.8861,2.7575,2.6857,2.6477,2.6062,2.7518,2.7594,2.7594,2.7594,2.7582,2.7342,2.7322,2.7436,2.7678,2.7851,2.7954,2.7799,2.7754,2.7816,2.7804,2.8027,2.8436,2.8473,2.8737,2.9302,2.9315,2.9593,3.0113,3.0292,3.0495,3.0723,3.0956,3.1103,3.1099,3.1231,3.1465,3.1803,3.1574,3.0984,3.0104,3.0236,3.0324,3.0324,3.091,3.0697,2.9624,2.9247,2.8577,2.766,2.788,2.798,2.7989,2.7813,2.7621,2.7434,2.6858,2.6299,2.5892,2.5163,2.4517,0.0,0.0,0.0,0.0,0.0,0.0,0.0,0.0,0.0,0.0,0.0,2.6874,2.7194,2.7725,2.8076,2.8177,2.8292,2.839,2.8478,2.8117,2.7923,2.8006,2.8015,2.8231,2.8783,2.8858,2.9064,2.9542,2.9664,2.9719,2.9746,2.9473,2.9268,2.9327,2.9391,2.9632,3.0129,3.0253,3.033,3.0422,3.0535,3.061,3.0649,3.0662,3.0712,3.0791,3.0786,3.0792,3.0788,3.0819,3.0838,3.0808,3.0801,3.0784,3.0637,2.9962,2.883,2.755,2.6911,2.6297,2.8122,2.851,2.851,2.851,2.8474,2.7978,2.7825,2.7849,2.8306,2.851,2.8474,2.8188,2.8008,2.7978,2.7965,2.8338,2.9001,2.8988,2.9302,2.9779,2.983,2.9946,3.0126,3.033,3.0533,3.0761,3.1349,3.1609,3.1706,3.1826,3.209,3.2455,3.2231,3.1944,3.1611,3.1018,3.0715,3.0672,3.094,3.0671,2.9729,2.9624,2.9007,2.7794,2.7901,2.802,2.8014,2.789,2.791,2.7977,2.7205,2.6882,2.7156,2.6057,2.5514,0.0,2.527,0.0,0.0,0.0,0.0,0.0,0.0,0.0,0.0,2.6957,2.7707,2.8443,2.8562,2.865,2.8773,2.8858,2.8952,2.9067,2.9089,2.9156,2.928,2.9283,2.9332,2.9481,2.9491,2.9482,2.9511,2.9589,2.9664,2.9683,2.9718,2.9731,2.9872,2.9942,3.0045,3.0171,3.0253,3.0349,3.0463,3.0564,3.0602,3.0614,3.0655,3.0725,3.0762,3.0795,3.0786,3.0786,3.0798,3.082,3.0793,3.0791,3.0798,3.0789,3.0656,2.9986,2.838,2.7368,2.6442,2.8122,2.851,2.851,2.851,2.8498,2.8402,2.8354,2.8366,2.8462,2.851,2.8498,2.8442,2.857,2.8823,2.8874,2.913,2.9628,2.9628,2.9691,2.983,2.9972,3.0037,3.0113,3.0457,3.0723,3.0949,3.1386,3.1793,3.2109,3.2393,3.2835,3.3338,3.2905,3.259,3.2292,0.0,0.0,0.0,3.1087,3.0863,3.033,2.9861,2.922,2.8427,2.8142,0.0,2.8162,2.8441,2.845,2.8167,2.8078,0.0,0.0,0.0,0.0,0.0,0.0,0.0,0.0,0.0,0.0,0.0,2.9222,2.8561,2.6948,2.7473,2.8071,2.8393,2.8484,2.8587,2.8724,2.8827,2.8929,2.9017,2.9074,2.9134,2.9203,2.9222,2.9243,2.9326,2.9322,2.9363,2.9423,2.9482,2.956,2.9617,2.9692,2.9747,2.9816,2.9891,2.9988,3.0094,3.0234,3.0348,3.0469,3.0535,3.0608,3.061,3.0655,3.07,3.0728,3.0769,3.0801,3.0796,3.0852,3.0859,3.0817,3.0799,3.0786,3.0791,3.0756,3.0161,2.8384,2.7826,2.7175,2.8122,0.0,2.851,2.851,0.0,2.851,2.851,2.851,2.851,2.851,2.851,2.851,2.8709,2.9104,2.9104,2.9339,2.9779,2.9779,2.9869,2.9972,3.0049,3.019,3.0432,3.0698,3.0949,3.1174,3.1559,3.1904,3.2205,3.2538,3.3002,3.3605,3.3451,3.325,3.2977,3.2113,3.1465,3.1087,3.1161,3.0966,3.0522,3.0193,2.9633,2.8741,2.8545,0.0,0.0,0.0,0.0,0.0,0.0,0.0,0.0,0.0,0.0,2.7361,2.696,2.7114,2.7947,2.8201,2.8694,2.9624,2.9858,2.9591,2.8678,2.8991,2.934,2.9551,2.962,2.9534,2.9323,2.9362,2.9284,2.8983,2.8975,2.9044,2.9141,2.9163,2.9167,2.924,2.9235,2.9278,2.9339,2.9382,2.9414,2.9482,2.9598,2.9673,2.9737,2.9832,2.9964,3.0135,3.0247,3.0334,3.0428,3.053,3.061,3.0606,3.0641,3.0701,3.07,3.0757,3.0788,3.0789,3.0829,3.0839,3.0858,3.0824,3.0798,3.0789,3.0736,3.0113,2.847,2.798,2.7382,2.8205,2.851,2.851,2.851,2.851,2.851,2.851,2.851,0.0,0.0,0.0,2.851,2.8709,2.9104,2.9104,2.9339,2.9792,2.9779,2.9895,3.0075,3.0126,3.0381,3.0773,3.0949,3.1161,3.1421,3.1767,3.2073,3.2314,3.266,3.3086,3.364,3.3848,3.3806,3.3493,3.2516,3.1793,3.1338,3.1293,3.1097,3.0702,3.0567,3.0081,2.9173,2.9171,2.8946,2.8434,2.8774,2.899,2.8943,2.8688,2.8693,2.8935,2.8551,2.8359,2.85,2.8674,2.8897,2.9107,2.9309,2.9591,2.9886,3.0108,3.0286,3.0338,3.0363,3.0469,3.0708,3.0787,3.0598,3.0132,2.9958,2.9695,2.9132,2.8966,2.8952,2.9044,2.9067,2.9119,2.9167,2.9197,2.92,2.9272,2.9307,2.9322,2.9373,2.9491,2.9607,2.9692,2.9806,2.9972,3.013,3.0234,3.0304,3.04,3.0495,3.0583,3.0604,3.0657,3.0704,3.071,3.0762,3.0793,3.0801,3.0785,3.0817,3.0879,3.0832,3.0792,3.0788,3.0742,3.016,2.8574,2.8021,2.7359,2.8502,2.851,2.851,2.851,2.851,2.851,2.851,2.851,2.851,2.851,2.851,2.851,2.8709,2.9104,2.9104,2.9339,2.9779,2.9779,2.9908,3.0113,3.0267,3.0558,3.0949,3.1161,3.1458,3.1803,3.2036,3.23,3.2646,3.3016,3.3431,3.3813,3.4005,3.3946,3.3656,3.3113,3.2592,3.2154,3.1589,3.1306,3.1361,3.0821,3.0516,3.05,3.0091,2.9657,2.9254,2.9496,2.946,2.9084,2.9125,2.931,2.961,2.9096,2.8878,2.9158,2.8691,2.8832,2.9831,2.9958,3.0399,3.1367,3.1526,3.1133,3.0159,3.0225,3.0379,3.0544,3.0783,3.0808,3.0721,3.0287,2.993,2.9719,2.9235,2.8917,2.894,2.8994,2.904,2.9108,2.9119,2.9152,2.9207,2.9243,2.9296,2.9322,2.9402,2.9492,2.9683,2.9806,2.9945,3.0087,3.0178,3.026,3.0367,3.0447,3.0535,3.0602,3.0661,3.071,3.0704,3.0767,3.0784,3.0784,3.0791,3.081,3.0877,3.0839,3.0808,3.0783,3.074,3.0143,2.8524,2.8055,2.7359,2.8573,2.8495,2.851,2.851,2.851,2.851,2.851,2.851,2.851,2.851,2.851,2.851,2.8749,2.9104,2.9104,2.9339,2.9792,2.9895,3.0088,3.0267,3.0596,3.0898,3.1161,3.1471,3.1767,3.2073,3.2228,3.2503,3.2881,3.3157,3.3501,3.3896,3.4142,3.4254,3.4215,3.3794,3.3482,3.3312,3.2422,3.1796,3.1511,3.1197,3.0953,3.0732,3.0594,3.0301,2.9853,3.0078,3.0149,3.0017,3.0219,3.0275,3.014,3.0006,2.9848,2.9639,2.9535,2.9742,3.0293,3.0564,3.0934,3.147,3.169,3.1598,3.1081,3.1283,3.1547,3.1765,3.189,3.1817,3.1582,3.1291,3.0781,2.9971,2.9598,2.9284,2.8937,2.8905,2.8952,2.8987,2.9021,2.9055,2.9123,2.9175,2.9229,2.9278,2.9351,2.9463,2.9664,2.9756,2.9832,2.9961,3.0101,3.0219,3.0318,3.039,3.0483,3.0583,3.0628,3.0653,3.0683,3.0733,3.0764,3.0789,3.0799,3.0803,3.0836,3.084,3.0812,3.0792,3.0774,3.0183,2.912,2.8039,2.6795,2.868,2.851,2.851,2.851,2.851,2.851,2.851,2.851,2.851,2.851,2.851,2.855,2.8776,2.9091,2.917,2.9378,2.9792,3.0011,3.0228,3.0432,3.0823,3.1136,3.1397,3.1767,3.2073,3.2228,3.2431,3.2704,3.3023,3.3276,3.364,3.3985,3.4278,3.4515,3.4735,3.4383,3.4253,3.4222,3.3408,3.2572,3.175,3.16,3.1314,3.1003,3.1124,3.097,3.0505,3.068,3.0825,3.0756,3.1008,3.0986,3.0625,3.0845,3.0732,3.0188,3.0418,3.0608,3.0584,3.0932,3.1193,3.1274,3.1576,3.1764,3.1893,3.2161,3.2491,3.2771,3.2797,3.269,3.237,3.2155,3.1653,3.0562,3.008,2.9652,2.9156,2.8973,2.8893,2.8905,2.8959,2.9017,2.9062,2.9096,2.9163,2.9272,2.9349,2.9453,2.9626,2.9664,2.9756,2.9866,3.0034,3.0171,3.0253,3.033,3.0433,3.054,3.0588,3.0617,3.0665,3.0688,3.0725,3.0774,3.0788,3.0796,3.0793,3.0801,3.0796,3.0799,3.0784,3.0406,2.9133,2.7752,2.64,2.9024,2.8543,2.851,2.851,2.851,2.851,2.851,2.851,2.851,2.851,2.851,2.8697,2.8882,2.9091,2.9275,2.9521,2.983,3.0011,3.0216,3.0444,3.0785,3.1211,3.1609,3.2,3.2228,3.2417,3.2775,3.2938,3.3072,3.3591,3.402,3.4312,3.438,3.4549,3.482,3.4828,3.4715,3.4502,3.4384,3.3694,3.2482,3.1809,3.1567,3.1694,3.1821,3.167,3.1136,3.1358,3.1212,3.0706,3.092,3.1058,3.1128,3.1275,3.1182,3.0833,3.0949,3.0953,3.073,3.0878,3.1055,3.121,3.1404,3.1631,3.1783,3.2001,3.2284,3.2589,3.2804,3.2876,3.296,3.2493,3.2094,3.1799,3.0749,2.9862,2.9779,2.9229,2.8834,2.8905,2.8997,2.894,2.9005,2.9074,2.9152,2.9262,2.9318,2.9363,2.9521,2.9608,2.971,2.9808,2.9943,3.0068,3.0178,3.0267,3.0348,3.0422,3.0515,3.0577,3.061,3.0664,3.0707,3.0762,3.0798,3.0788,3.0788,3.0799,3.0799,3.0784,3.0673,3.0289,2.86,2.7441,2.6497,2.8988,2.8351,2.8471,2.851,2.851,2.851,2.851,2.851,2.851,2.851,2.855,2.8843,2.9052,2.9131,2.9302,2.9625,2.9972,3.019,3.0444,3.0785,3.1174,3.1559,3.1963,3.2191,3.2467,3.2739,3.2917,3.3129,3.3403,3.3799,3.4142,3.438,3.438,3.4568,3.4868,3.4902,3.4952,3.5085,3.4698,3.4054,3.314,3.2422,3.1928,3.1671,3.1883,3.1918,3.1713,3.1931,3.1983,3.18,3.1891,3.1847,3.1656,3.1782,3.1706,3.1356,3.1268,3.1221,3.1231,3.1044,3.0992,3.1092,3.1327,3.1538,3.1671,3.1929,3.2232,3.2506,3.2639,3.2802,3.2975,3.2832,3.2544,3.2166,3.1582,3.1062,3.059,3.0316,3.0041,2.9605,2.957,2.9417,2.905,2.9033,2.9141,2.9229,2.9275,2.9339,2.9433,2.9512,2.9636,2.9738,2.987,2.9991,3.0121,3.02,3.0286,3.0396,3.0479,3.055,3.0585,3.0661,3.0714,3.0728,3.0767,3.0798,3.0801,3.0835,3.084,3.0828,3.0706,3.0308,2.902,2.8077,2.7161,2.8934,2.8302,2.8419,2.851,2.851,2.851,2.851,2.851,2.851,2.855,2.8618,2.8973,2.9131,2.9197,2.947,2.9793,3.0113,3.0381,3.0634,3.1024,3.141,3.1817,3.2169,3.2395,3.2668,3.2952,3.3072,3.3297,3.3675,3.3971,3.4196,3.4366,3.438,3.4568,3.4868,3.4902,3.5115,3.5427,3.4996,3.4459,3.38,3.3141,3.2451,3.1702,3.1855,3.2025,3.2066,3.2259,3.2453,3.2523,3.2594,3.2497,3.228,3.2379,3.2295,3.1935,3.1528,3.1375,3.1533,3.1125,3.0892,3.0975,3.1249,3.1462,3.1596,3.1857,3.2144,3.2404,3.2539,3.2721,3.2948,3.3055,3.288,3.2483,3.2336,3.1926,3.1415,3.1238,3.0812,3.0348,3.0329,3.0216,2.971,2.9542,2.9476,2.9544,2.9377,2.9304,2.9372,2.9434,2.9541,2.9673,2.98,2.9918,3.0049,3.0152,3.0241,3.0336,3.0428,3.0515,3.0577,3.0645,3.0694,3.073,3.0774,3.079,3.0796,3.0851,3.0879,3.0826,3.0726,3.0402,2.9423,2.8736,2.7903,2.8946,2.8279,2.8431,2.851,2.851,2.851,2.851,2.851,2.851,2.8618,2.8764,2.9,2.9197,2.9419,2.9831,3.0075,3.0152,3.0533,3.0811,3.1061,3.1447,3.183,3.2205,3.2538,3.281,3.3023,3.3192,3.3486,3.3882,3.404,3.4196,3.438,3.4414,3.4568,3.4868,3.4935,3.5115,3.5457,3.5415,3.5085,3.4459,3.3908,3.3051,3.2054,3.194,3.2066,3.2191,3.2315,3.2398,3.2398,3.2523,3.2645,3.2834,3.298,3.2934,3.2698,3.186,3.1363,3.1391,3.1032,3.0824,3.0912,3.1112,3.1305,3.15,3.1765,3.2038,3.2301,3.2488,3.2705,3.2948,3.3057,3.3132,3.3118,3.2607,3.2256,3.2162,3.1614,3.1116,3.1029,3.1037,3.0995,3.1121,3.0613,3.0221,3.0058,2.9636,2.928,2.932,2.9433,2.954,2.9664,2.9765,2.9859,2.9991,3.0094,3.0207,3.0279,3.0377,3.0449,3.0569,3.0656,3.0668,3.0717,3.0767,3.0804,3.081,3.0833,3.0858,3.0822,3.0806,3.0378,2.9829,2.9469,2.8675,2.8756,2.8219,2.8419,2.851,2.851,2.851,2.851,2.851,2.851,2.8618,2.8803,2.9013,2.9287,2.9689,3.0101,3.0305,3.033,3.0723,3.1061,3.141,3.178,3.2169,3.2538,3.2775,3.2988,3.3192,3.3396,3.366,3.4005,3.421,3.4346,3.4414,3.4515,3.4716,3.4902,3.5049,3.5213,3.5457,3.5489,3.5192,3.4689,3.4436,3.4001,3.333,3.2536,3.215,3.2191,3.233,3.2398,3.2398,3.2468,3.2621,3.2881,3.3282,3.3443,3.3338,3.2925,3.2456,3.2009,3.1615,3.1254,3.0942,3.1092,3.1286,3.1481,3.1728,3.1984,3.2197,3.2437,3.2672,3.2854,3.2981,3.3091,3.3129,3.3024,3.2882,3.2926,3.2705,3.2375,3.1878,3.1501,3.125,3.1402,3.1146,3.0815,3.0378,3.0063,2.9762,2.9405,2.9351,2.9443,2.9569,2.9664,2.9808,2.9929,3.0061,3.0159,3.0228,3.0323,3.0417,3.0515,3.0586,3.0622,3.0701,3.0756,3.08,3.0807,3.0836,3.0857,3.0823,3.0786,3.0659,3.0309,2.985,2.9215,2.8626,2.8464,2.8411,2.8431,2.851,2.851,2.851,2.851,2.851,2.8657,2.8882,2.9052,2.9378,2.9895,3.0305,3.052,3.0647,3.0936,3.1323,3.1706,3.2036,3.2372,3.2704,3.2917,3.3108,3.3312,3.357,3.3833,3.4094,3.4312,3.438,3.4414,3.4597,3.475,3.4902,3.5115,3.5279,3.5472,3.5537,3.5396,3.504,3.4923,3.4774,3.4408,3.3487,3.2811,3.2612,3.2465,3.2398,3.2398,3.2398,3.2551,3.2881,3.3346,3.3658,3.3656,3.3404,3.3108,3.2679,3.2238,3.1898,3.1641,3.15,3.1546,3.182,3.1865,3.1965,3.2179,3.2438,3.2639,3.2771,3.2902,3.2995,3.3073,3.3216,3.3307,3.3367,3.3378,3.3136,3.2708,3.232,3.2095,3.2067,3.1922,3.1611,3.106,3.0679,3.0104,2.9776,2.9437,2.9353,2.9501,2.9617,2.9746,2.9859,2.9991,3.0116,3.0207,3.0273,3.0383,3.0465,3.0535,3.0621,3.0683,3.0745,3.0772,3.0813,3.0837,3.0838,3.0805,3.0792,3.0725,3.0435,3.0172,2.9577,2.8555,2.8786,2.8393,2.8375,2.8471,2.851,2.851,2.851,2.851,2.8697,2.9052,2.9091,2.9482,3.0075,3.0495,3.0811,3.1024,3.1272,3.1532,3.1927,3.2132,3.2408,3.2739,3.2952,3.3143,3.3347,3.3709,3.3971,3.4128,3.4312,3.438,3.4448,3.4631,3.4783,3.4902,3.5115,3.5326,3.5489,3.5636,3.5657,3.5676,3.5398,3.5248,3.5171,3.4663,3.4106,3.349,3.2813,3.2459,3.2398,3.2398,3.2551,3.2897,3.3293,3.3581,3.3614,3.3288,3.3218,3.3277,3.285,3.268,3.2715,3.2361,3.2201,3.2483,3.2185,3.2031,3.2318,3.2474,3.2657,3.2773,3.2852,3.2932,3.3013,3.3186,3.3277,3.3307,3.3367,3.3404,3.3386,3.3312,3.356,3.3479,3.3015,3.2522,3.2149,3.125,3.0401,3.0182,2.9691,2.9399,2.9472,2.9598,2.9701,2.9816,2.9926,3.0057,3.018,3.0248,3.0354,3.0444,3.0521,3.0604,3.0692,3.0767,3.0795,3.0815,3.0837,3.0839,3.0808,3.0798,3.0772,3.0584,3.0343,3.0059,2.911,2.8728,2.8703,2.8593,2.8495,2.851,2.851,2.851,2.851,2.8736,2.9064,2.9104,2.956,3.0216,3.0571,3.0962,3.141,3.1767,3.1986,3.2132,3.2408,3.2668,3.2881,3.3122,3.3368,3.3709,3.3937,3.4128,3.4278,3.438,3.438,3.4448,3.4702,3.4835,3.4887,3.5228,3.5472,3.5504,3.5621,3.5752,3.5894,3.5872,3.5952,3.5999,3.5522,3.5075,3.4799,3.3706,3.289,3.2444,3.2398,3.2551,3.2897,3.3282,3.3555,3.3694,3.3756,3.36,3.3401,3.332,3.3204,3.3111,3.288,3.2976,3.3213,3.2743,3.2541,3.2786,3.2704,3.2574,3.2673,3.282,3.2916,3.2995,3.3088,3.3214,3.3292,3.3352,3.3441,3.3495,3.3563,3.3633,3.3666,3.3405,3.317,3.2669,3.1721,3.0986,3.0376,2.981,2.9286,2.9353,2.9502,2.9655,2.9754,2.9874,3.0019,3.0138,3.0234,3.0316,3.0403,3.0501,3.0591,3.0668,3.0745,3.08,3.0817,3.0816,3.082,3.0812,3.0789,3.0772,3.0719,3.0521,3.0236,2.9451,2.9047,2.8869,2.8744,2.8614,2.8527,2.851,2.851,2.851,2.8749,2.9052,2.9104,2.9586,3.033,3.0685,3.1112,3.1596,3.2046,3.23,3.2408,3.2668,3.2881,3.3023,3.3276,3.357,3.3882,3.404,3.4196,3.438,3.438,3.438,3.4448,3.4735,3.4902,3.4935,3.5294,3.5489,3.5522,3.5701,3.5863,3.6005,3.6211,3.6367,3.643,3.6076,3.5768,3.5475,3.4412,3.3475,3.2859,3.2607,3.2605,3.2881,3.3176,3.3424,3.3617,3.379,3.3824,3.3689,3.3849,3.3921,3.3767,3.3601,3.3691,3.3832,3.33,3.2865,3.308,3.2757,3.2507,3.2606,3.2737,3.2902,3.2963,3.3026,3.3119,3.328,3.3367,3.3408,3.3466,3.3524,3.3591,3.3643,3.3694,3.3597,3.3023,3.2357,3.1574,3.0826,3.0123,2.9732,2.945,2.9434,2.9589,2.9699,2.983,2.998,3.0094,3.0219,3.0311,3.0392,3.0476,3.0564,3.0668,3.0748,3.0793,3.0812,3.0811,3.082,3.0816,3.0799,3.0761,3.0728,3.069,3.0485,2.9637,2.9695,2.8953,2.874,2.8816,2.8606,2.851,2.851,2.851,2.8749,2.9064,2.9104,2.9586,3.0317,3.0798,3.1224,3.1633,3.2178,3.2489,3.2682,3.2895,3.3037,3.3129,3.3452,3.3758,3.3917,3.4059,3.423,3.438,3.438,3.438,3.4448,3.4735,3.4902,3.4968,3.5279,3.5489,3.5522,3.5797,3.5941,3.5973,3.6273,3.646,3.6429,3.6384,3.6122,3.5584,3.4814,3.4073,3.3396,3.2786,3.2676,3.287,3.3032,3.324,3.3503,3.3633,3.3848,3.4084,3.4244,3.4511,3.4658,3.4418,3.4382,3.4563,3.3806,3.3173,3.3339,3.2861,3.2545,3.2626,3.2722,3.2838,3.2884,3.2979,3.3106,3.3277,3.3367,3.3393,3.3408,3.3466,3.352,3.3587,3.3657,3.3689,3.356,3.2981,3.218,3.1409,3.0634,3.0043,2.9726,2.945,2.9551,2.9682,2.9815,2.9956,3.0091,3.0192,3.0286,3.0375,3.0471,3.0554,3.0653,3.0742,3.0769,3.0803,3.0806,3.0818,3.0839,3.0823,3.0788,3.0745,3.0701,3.0649,2.9937,2.9753,2.9363,2.9081,2.8887,2.8606,2.851,2.851,2.851,2.8749,2.9064,2.9104,2.9586,3.0394,3.0823,3.1211,3.1656,3.2322,3.2632,3.2739,3.31,3.3312,3.3452,3.3709,3.3917,3.404,3.421,3.4346,3.438,3.438,3.438,3.4414,3.475,3.4902,3.4968,3.5294,3.5504,3.5522,3.5686,3.5784,3.5831,3.6037,3.6132,3.6132,3.6211,3.6166,3.5922,3.5046,3.3904,3.2767,3.2631,3.2691,3.287,3.3032,3.3203,3.345,3.3633,3.3822,3.4075,3.4349,3.4618,3.4875,3.4935,3.5121,3.5318,3.4746,3.4229,3.3971,3.3415,3.2932,3.2715,3.2722,3.2821,3.29,3.2995,3.3119,3.3262,3.3352,3.3393,3.3408,3.3466,3.352,3.3573,3.3643,3.3726,3.3652,3.3164,3.2394,3.1715,3.0991,3.0327,2.9683,2.938,2.9531,2.9673,2.9808,2.9943,3.0068,3.0171,3.0254,3.0358,3.0476,3.0576,3.0687,3.073,3.0777,3.0794,3.08,3.0816,3.0859,3.0833,3.0791,3.0765,3.0747,3.0678,3.0089,2.9945,2.9566,2.9298,2.9059,2.8674,2.851,2.851,2.851,2.8709,2.9064,2.9104,2.9586,3.0394,3.0823,3.1211,3.1669,3.2359,3.2654,3.2775,3.3122,3.3396,3.3605,3.3813,3.3985,3.4094,3.4312,3.438,3.438,3.438,3.438,3.4481,3.4735,3.4902,3.4935,3.5279,3.5489,3.5522,3.5606,3.572,3.572,3.591,3.5988,3.6005,3.607,3.5965,3.5355,3.4785,3.3873,3.2764,3.2496,3.2648,3.2885,3.2966,3.315,3.3398,3.3581,3.3787,3.3949,3.4275,3.4562,3.478,3.5065,3.5344,3.538,3.5137,3.4754,3.4596,3.3791,3.3246,3.3002,3.2887,3.2839,3.29,3.2995,3.3104,3.3232,3.3319,3.3378,3.3408,3.3437,3.3509,3.3591,3.3647,3.3698,3.3693,3.3495,3.2779,3.2094,3.1329,3.06,2.9984,2.9463,2.9531,2.9664,2.9799,2.9934,3.008,3.0178,3.0228,3.0365,3.05,3.0586,3.0665,3.0717,3.0762,3.0782,3.0812,3.0829,3.0839,3.0838,3.0807,3.0783,3.0767,3.0688,3.0216,3.0124,2.9627,2.939,2.9287,2.8777,2.851,2.851,2.851,2.8709,2.9052,2.9104,2.9599,3.0406,3.0761,3.1187,3.1633,3.23,3.2632,3.281,3.3122,3.3431,3.3689,3.3813,3.4005,3.4128,3.4346,3.438,3.438,3.438,3.438,3.4481,3.4735,3.4902,3.4968,3.5279,3.5457,3.5522,3.5589,3.5671,3.5671,3.5829,3.5893,3.5893,3.5973,3.5445,3.4713,3.431,3.3873,3.2444,3.2398,3.2594,3.2843,3.2897,3.3043,3.3282,3.3529,3.3684,3.3771,3.4192,3.4489,3.4594,3.4994,3.5297,3.534,3.5169,3.504,3.5012,3.4058,3.3624,3.3336,3.3068,3.286,3.2868,3.2965,3.3026,3.3119,3.3256,3.3378,3.3393,3.3393,3.3466,3.3553,3.3619,3.3643,3.3734,3.3542,3.3146,3.2456,3.1734,3.1008,3.0323,2.9906,2.955,2.9673,2.9782,2.9934,3.008,3.0185,3.0273,3.0396,3.0519,3.0592,3.0661,3.0713,3.0742,3.0786,3.0819,3.0842,3.0855,3.084,3.0811,3.0789,3.0774,3.0719,3.0216,3.0135,2.9639,2.939,2.931,2.8789,2.851,2.851,2.851,2.8697,2.9013,2.9104,2.9599,3.0406,3.0647,3.1061,3.1559,3.2096,3.2503,3.2966,3.3171,3.3501,3.3758,3.3896,3.4054,3.4244,3.438,3.438,3.438,3.438,3.438,3.4448,3.4702,3.4902,3.4968,3.5279,3.5489,3.5489,3.5507,3.5539,3.5539,3.5587,3.5636,3.5651,3.5861,3.5368,3.4514,3.4401,3.3798,3.2782,3.2425,3.2551,3.2816,3.2912,3.3032,3.3256,3.345,3.3581,3.372,3.4016,3.4316,3.4521,3.4828,3.5065,3.5321,3.5397,3.5278,3.5141,3.4829,3.4308,3.3581,3.3085,3.2862,3.2838,3.2934,3.2995,3.306,3.3216,3.3337,3.3364,3.3393,3.3441,3.3506,3.3559,3.3629,3.3694,3.3601,3.339,3.2831,3.2158,3.1439,3.0773,3.0196,2.9831,2.9664,2.9773,2.9934,3.0061,3.0178,3.0254,3.0385,3.0488,3.0554,3.0623,3.0665,3.072,3.0769,3.0786,3.0812,3.0831,3.0859,3.0836,3.0819,3.0784,3.0753,3.0078,2.9847,2.9393,2.9141,2.8951,2.8536,2.8431,2.8471,2.851,2.8657,2.8934,2.9052,2.9482,3.0164,3.0546,3.0962,3.1373,3.195,3.248,3.2917,3.3143,3.3382,3.3724,3.3882,3.4054,3.4346,3.438,3.438,3.438,3.438,3.438,3.4414,3.4735,3.4902,3.4968,3.5294,3.5457,3.5489,3.5489,3.5489,3.5489,3.5489,3.5489,3.5522,3.5657,3.5289,3.4211,3.4268,3.3619,3.2782,3.2425,3.2551,3.2843,3.2912,3.3032,3.3256,3.344,3.3555,3.372,3.3949,3.4226,3.4497,3.4739,3.5018,3.5251,3.5481,3.5581,3.545,3.5215,3.4733,3.365,3.2999,3.2778,3.2805,3.2886,3.2948,3.3028,3.3186,3.3307,3.3352,3.3382,3.3422,3.3477,3.3549,3.3615,3.3698,3.378,3.3587,3.3424,3.2722,3.1967,3.1256,3.0562,3.0082,2.9776,2.9773,2.9924,3.0053,3.0157,3.024,3.0349,3.0427,3.0499,3.0564,3.0637,3.0678,3.0731,3.0769,3.0801,3.0826,3.0838,3.0839,3.0828,3.0803,3.0757,2.9871,2.9447,2.9077,2.878,2.8545,2.8324,2.8299,2.8431,2.851,2.8618,2.8803,2.9013,2.9378,2.9856,3.0356,3.0723,3.1174,3.1803,3.2444,3.2739,3.2952,3.3227,3.3536,3.3744,3.3985,3.4312,3.438,3.438,3.438,3.438,3.438,3.4433,3.4702,3.4868,3.4968,3.5261,3.5472,3.5504,3.5489,3.5489,3.5489,3.5489,3.5489,3.5522,3.5623,3.5271,3.444,3.4164,3.373,3.2631,3.2444,3.2566,3.2788,3.2897,3.3005,3.3256,3.3388,3.3529,3.3668,3.3899,3.4151,3.4472,3.4707,3.497,3.5228,3.5452,3.5611,3.5637,3.5448,3.478,3.3754,3.3195,3.2872,3.2776,3.282,3.29,3.2995,3.3137,3.3232,3.3292,3.3337,3.3378,3.3481,3.3553,3.3619,3.3671,3.3753,3.3784,3.3608,3.3219,3.2373,3.1559,3.0838,3.0167,2.9833,2.9782,2.9924,3.0019,3.0135,3.0206,3.0279,3.0355,3.0436,3.053,3.0608,3.0653,3.0707,3.0752,3.0792,3.0803,3.0837,3.0859,3.0833,3.0796,3.0756,2.9573,2.9468,2.8719,2.8393,2.8326,2.8243,2.8219,2.8259,2.8431,2.8605,2.8803,2.9013,2.9339,2.9779,3.0049,3.0495,3.1061,3.173,3.2205,3.2444,3.2717,3.3072,3.3347,3.357,3.3848,3.4108,3.4278,3.4346,3.438,3.438,3.438,3.4448,3.4631,3.4783,3.4902,3.5133,3.5374,3.5472,3.5489,3.5489,3.5489,3.5489,3.5489,3.5489,3.5621,3.5314,3.485,3.4378,3.39,3.3262,3.2705,3.2557,3.2648,3.28,3.2951,3.3139,3.3282,3.345,3.3658,3.3761,3.4025,3.4374,3.457,3.4851,3.5175,3.536,3.5549,3.5652,3.5475,3.4933,3.4318,3.3615,3.3107,3.2855,3.2773,3.2854,3.2934,3.3013,3.314,3.3232,3.3274,3.3334,3.3437,3.3538,3.3591,3.3657,3.3739,3.3793,3.3728,3.3274,3.2601,3.1804,3.1054,3.0399,2.9832,2.9863,2.9932,3.0003,3.0106,3.0138,3.0214,3.0286,3.0377,3.0476,3.0577,3.0645,3.0685,3.0737,3.0784,3.0799,3.0834,3.0879,3.0855,3.0819,3.0767,2.8941,2.8666,2.8311,2.8025,2.7935,2.7998,2.8111,2.8219,2.8419,2.855,2.8697,2.8895,2.9131,2.9456,2.983,3.0318,3.0986,3.1458,3.1877,3.2205,3.248,3.2775,3.3122,3.3347,3.357,3.3848,3.4054,3.4259,3.438,3.438,3.438,3.4448,3.4597,3.4731,3.4865,3.5082,3.5228,3.5374,3.5439,3.5489,3.5489,3.5489,3.5489,3.5522,3.5542,3.5371,3.5032,3.4836,3.4208,3.3525,3.309,3.278,3.2647,3.2691,3.287,3.3085,3.3229,3.3372,3.3581,3.3658,3.3924,3.4325,3.4448,3.4715,3.5081,3.5274,3.5498,3.5669,3.5454,3.4979,3.4436,3.3874,3.3248,3.2752,3.2707,3.2789,3.2854,3.2918,3.3028,3.3152,3.3229,3.3304,3.3408,3.3477,3.3577,3.3661,3.3726,3.378,3.3807,3.3489,3.2964,3.2068,3.127,3.0435,2.9908,2.9837,2.9899,2.998,3.0076,3.0135,3.018,3.0254,3.0342,3.0433,3.0521,3.0621,3.069,3.0751,3.0761,3.0794,3.085,3.0878,3.0856,3.0821,3.0773,2.8322,2.7966,2.7874,2.7658,2.7528,2.7708,2.795,2.8139,2.8339,2.8471,2.855,2.8724,2.8922,2.9209,2.9689,3.0241,3.0911,3.1123,3.1545,3.1913,3.2182,3.248,3.2789,3.3108,3.3347,3.357,3.3779,3.402,3.4244,3.4312,3.4346,3.4414,3.4597,3.4664,3.475,3.4983,3.5115,3.5261,3.5407,3.5489,3.5489,3.5489,3.5489,3.5489,3.5489,3.5396,3.5212,3.5002,3.4637,3.4066,3.3662,3.3321,3.2764,3.2752,3.2897,3.3047,3.3176,3.3335,3.3519,3.3633,3.3889,3.4226,3.444,3.4707,3.4994,3.5268,3.552,3.5786,3.5659,3.5194,3.4703,3.4045,3.344,3.2931,3.2784,3.2756,3.2805,3.2852,3.2916,3.3044,3.3168,3.3259,3.3349,3.3462,3.3549,3.3633,3.3716,3.3766,3.382,3.3926,3.3395,3.2407,3.147,3.0509,2.9983,2.9784,2.9841,2.9932,3.0038,3.0132,3.0178,3.0246,3.0336,3.0406,3.0501,3.0589,3.066,3.0745,3.0778,3.0812,3.0867,3.0878,3.0876,3.0845,3.0785,2.8023,2.7931,2.7506,2.7288,2.7272,2.7493,2.7708,2.7962,2.8139,2.8339,2.8471,2.8724,2.8882,2.9209,2.9767,3.019,3.052,3.0861,3.1211,3.1545,3.1913,3.2182,3.2386,3.2824,3.3086,3.3276,3.3521,3.3833,3.4025,3.4128,3.423,3.438,3.4448,3.4501,3.465,3.485,3.5049,3.5195,3.5392,3.5489,3.5489,3.5489,3.5489,3.5489,3.5474,3.5512,3.5495,3.5288,3.4958,3.4911,3.4524,3.4029,3.3473,3.3491,3.3289,3.3127,3.3058,3.3245,3.3466,3.3633,3.3813,3.4101,3.4366,3.4618,3.497,3.5268,3.5543,3.5756,3.5817,3.5599,3.5082,3.4621,3.4027,3.3423,3.2948,3.2818,3.2758,3.2805,3.2886,3.2963,3.3122,3.3198,3.3274,3.3404,3.3534,3.3605,3.3675,3.3739,3.382,3.3921,3.3432,3.2314,3.1663,3.0779,2.9935,2.9747,2.9789,2.9891,3.0007,3.011,3.0169,3.0219,3.0331,3.0402,3.0486,3.058,3.068,3.0725,3.0778,3.081,3.0867,3.0897,3.0916,3.0866,3.0791,2.7428,2.7529,2.7323,2.719,2.7231,2.74,2.7563,2.7736,2.8059,2.8259,2.8339,2.8538,2.8803,2.917,2.9702,3.0037,3.0305,3.0647,3.0949,3.1123,3.1532,3.1877,3.2205,3.2444,3.266,3.2966,3.3143,3.3368,3.3646,3.3957,3.4162,3.423,3.4346,3.4448,3.4563,3.4683,3.4883,3.5082,3.5311,3.5489,3.5489,3.5489,3.5489,3.5489,3.5489,3.5572,3.5627,3.5682,3.5399,3.5294,3.5032,3.4737,3.4104,3.3746,3.3413,3.3426,3.3111,3.3128,3.3361,3.3597,3.3787,3.4025,3.43,3.4667,3.5041,3.5268,3.552,3.5773,3.591,3.5741,3.5377,3.5042,3.4368,3.3752,3.3301,3.2948,3.2835,3.2792,3.2838,3.2932,3.3042,3.3119,3.3229,3.3378,3.3491,3.3591,3.3657,3.3726,3.3802,3.3921,3.3142,3.1999,3.1507,3.1057,3.0206,2.9645,2.9745,2.9849,3.0007,3.0102,3.014,3.0199,3.0318,3.039,3.0456,3.0552,3.0676,3.0745,3.0795,3.0827,3.0848,3.0878,3.0916,3.0847,3.0785,2.6985,2.7149,2.7179,2.719,2.719,2.7371,2.7441,2.7563,2.7846,2.8087,2.8259,2.8459,2.8776,2.9052,2.9495,2.9805,3.0049,3.0394,3.0647,3.0874,3.1123,3.1471,3.1767,3.1986,3.23,3.2561,3.2775,3.2988,3.3333,3.3612,3.3922,3.4094,3.423,3.4346,3.4448,3.4616,3.4817,3.5034,3.5294,3.5439,3.5504,3.5489,3.5489,3.5489,3.5489,3.5554,3.5638,3.5879,3.5718,3.5568,3.5661,3.5414,3.4797,3.4397,3.4098,3.3932,3.3559,3.3365,3.3508,3.3678,3.3768,3.3949,3.4259,3.4691,3.5111,3.5268,3.5383,3.5678,3.5839,3.5707,3.5486,3.5338,3.4859,3.4319,3.3858,3.3389,3.3035,3.3137,3.3005,3.287,3.2963,3.3055,3.318,3.3316,3.3448,3.3577,3.3643,3.3707,3.3802,3.3921,3.3075,3.2024,3.1663,3.1166,3.0157,2.9636,2.9709,2.9823,2.9983,3.0087,3.0125,3.0199,3.0324,3.0383,3.0446,3.0548,3.0656,3.0722,3.0793,3.0825,3.0848,3.0897,3.0897,3.0828,3.0776,2.6891,2.6933,2.7108,2.719,2.719,2.719,2.733,2.7482,2.7563,2.7805,2.8219,2.8566,2.8764,2.8922,2.9236,2.956,2.983,3.0049,3.0267,3.0558,3.0823,3.1061,3.1323,3.1656,3.2,3.2205,3.2431,3.2704,3.2988,3.3262,3.3681,3.404,3.4108,3.4244,3.438,3.4582,3.4817,3.5016,3.5228,3.5326,3.5424,3.5457,3.5489,3.5489,3.5489,3.5489,3.5537,3.5797,3.5975,3.5839,3.6075,3.6091,3.5476,3.5183,3.4887,3.4572,3.411,3.3876,3.3877,3.371,3.37,3.3873,3.4201,3.4667,3.5065,3.5245,3.536,3.5543,3.5745,3.5849,3.5715,3.5538,3.5238,3.4876,3.4424,3.4051,3.3758,3.367,3.3508,3.302,3.2955,3.319,3.3135,3.3289,3.3404,3.3534,3.3647,3.3712,3.3815,3.3828,3.3093,3.2327,3.1968,3.1219,2.9969,2.9655,2.9719,2.9823,2.9975,3.0038,3.0102,3.0199,3.0331,3.0377,3.0441,3.0548,3.0656,3.0739,3.0789,3.0806,3.0847,3.0877,3.0876,3.0836,3.0774,2.6644,2.6891,2.6974,2.7056,2.719,2.719,2.7219,2.733,2.7441,2.7765,2.8207,2.8486,2.8685,2.8843,2.9079,2.9353,2.9599,2.9972,3.0113,3.0267,3.0482,3.0761,3.1024,3.1211,3.1522,3.1817,3.2096,3.23,3.2516,3.2909,3.3262,3.3577,3.3888,3.4094,3.4278,3.4515,3.4765,3.4883,3.5082,3.5246,3.5294,3.5424,3.5489,3.5489,3.5489,3.5489,3.5522,3.5718,3.5863,3.6022,3.6211,3.6152,3.6045,3.5737,3.5475,3.5179,3.4723,3.434,3.4038,3.382,3.3674,3.4,3.43,3.4618,3.493,3.5175,3.5337,3.5498,3.5678,3.5834,3.5798,3.5827,3.5742,3.5359,3.5052,3.4723,3.4473,3.4339,3.4093,3.3646,3.3495,3.3536,3.3394,3.3247,3.3378,3.3506,3.3605,3.3716,3.382,3.3834,3.3179,3.2495,3.2078,3.1514,3.0304,2.9964,2.9757,2.9842,2.9967,3.003,3.011,3.0225,3.0331,3.0377,3.046,3.0543,3.0649,3.0755,3.0804,3.0801,3.0825,3.0838,3.0835,3.0822,3.0774,2.6437,2.6809,2.6903,2.7026,2.719,2.719,2.719,2.7231,2.733,2.7655,2.8111,2.8311,2.8538,2.8724,2.8922,2.9079,2.9314,2.9638,2.9831,2.9985,3.0177,3.0444,3.0685,3.0874,3.1061,3.141,3.1669,3.1877,3.2277,3.261,3.2931,3.3262,3.3612,3.3854,3.4196,3.4414,3.4631,3.4765,3.4898,3.5115,3.5195,3.5326,3.5472,3.5472,3.5489,3.5489,3.5507,3.5653,3.5799,3.5958,3.6148,3.6305,3.6245,3.6107,3.586,3.5613,3.5302,3.4829,3.4441,3.3871,3.3748,3.4025,3.4275,3.4546,3.4828,3.5065,3.5268,3.5423,3.5605,3.5745,3.5773,3.5912,3.5976,3.5669,3.5803,3.5531,3.5147,3.4914,3.464,3.4322,3.4229,3.4133,3.3687,3.3504,3.3451,3.356,3.3633,3.373,3.3793,3.3739,3.3491,3.2798,3.213,3.1496,3.0806,3.0272,2.9794,2.9825,2.9943,3.0038,3.014,3.0245,3.0331,3.0385,3.046,3.0539,3.0638,3.0737,3.0772,3.0792,3.0805,3.082,3.0813,3.0798,3.0772,2.6354,2.6644,2.6809,2.7015,2.719,2.719,2.719,2.719,2.726,2.7505,2.7909,2.8099,2.8339,2.8538,2.8764,2.8882,2.8961,2.9275,2.9457,2.9625,2.9857,3.0075,3.0228,3.0419,3.0672,3.0949,3.1211,3.1582,3.2096,3.2277,3.2588,3.2931,3.3262,3.366,3.4059,3.4312,3.4515,3.4664,3.4683,3.4916,3.5082,3.5195,3.5326,3.5439,3.5504,3.5504,3.5522,3.5589,3.5735,3.5926,3.6085,3.6242,3.6368,3.6415,3.6338,3.6322,3.5936,3.564,3.5512,3.4242,3.3862,3.4007,3.4201,3.4423,3.4667,3.4923,3.5158,3.5354,3.5469,3.5611,3.5751,3.591,3.595,3.6049,3.6132,3.618,3.5747,3.5622,3.5374,3.5084,3.5013,3.4868,3.4266,3.3831,3.365,3.3647,3.3684,3.373,3.378,3.3737,3.3582,3.3234,3.2532,3.1845,3.1177,3.0319,2.986,2.9873,2.9934,3.0038,3.0128,3.0219,3.0299,3.0373,3.0449,3.0544,3.0618,3.0717,3.0747,3.0803,3.0793,3.08,3.0786,3.0794,3.0747,2.6146,2.6354,2.6603,2.682,2.7026,2.7138,2.719,2.7231,2.7342,2.7493,2.7696,2.8018,2.8219,2.8379,2.8605,2.8791,2.8843,2.904,2.9236,2.9419,2.9574,2.9831,3.0037,3.0152,3.033,3.0596,3.0823,3.1061,3.1384,3.184,3.2205,3.2516,3.3051,3.3591,3.3957,3.4196,3.4312,3.4481,3.4631,3.4765,3.4898,3.5063,3.5228,3.5326,3.5439,3.5472,3.5489,3.5572,3.5668,3.5846,3.599,3.6148,3.632,3.6383,3.6476,3.6492,3.6214,3.5827,3.5219,3.4265,3.3895,3.396,3.4066,3.4275,3.4546,3.4787,3.5041,3.5268,3.54,3.5543,3.5661,3.5795,3.5876,3.6006,3.6143,3.6333,3.622,3.6304,3.6219,3.5909,3.5722,3.5526,3.5088,3.4449,3.4168,3.3938,3.3945,3.3766,3.3744,3.3807,3.3726,3.3559,3.3075,3.2354,3.1613,3.0796,3.0189,3.0107,3.0065,3.0061,3.015,3.0219,3.0299,3.0373,3.0444,3.053,3.0637,3.0717,3.0767,3.0794,3.0797,3.08,3.0786,3.0774,3.0767,2.5937,2.6229,2.6479,2.6727,2.6891,2.7097,2.719,2.7231,2.733,2.7441,2.7563,2.7938,2.8151,2.8299,2.8526,2.8685,2.8724,2.8922,2.9,2.9184,2.938,2.9586,2.9793,2.996,3.0113,3.033,3.052,3.0748,3.1099,3.1545,3.1913,3.2314,3.2838,3.3333,3.375,3.3957,3.4196,3.438,3.4563,3.4631,3.4765,3.4898,3.5063,3.5195,3.5326,3.5424,3.5457,3.5522,3.5554,3.5703,3.5816,3.599,3.6179,3.6305,3.6414,3.646,3.643,3.5967,3.5281,3.4662,3.4321,3.4012,3.4015,3.4142,3.4374,3.4643,3.4899,3.5128,3.5331,3.5452,3.5571,3.5684,3.5822,3.5975,3.6127,3.6318,3.6489,3.6557,3.6666,3.638,3.6412,3.6185,3.5876,3.5276,3.4738,3.4482,3.4255,3.401,3.3762,3.3771,3.3829,3.3725,3.3463,3.2794,3.2087,3.1339,3.081,3.0399,3.0278,3.0217,3.015,3.0219,3.0299,3.0379,3.0463,3.0554,3.0661,3.0739,3.0776,3.0795,3.0797,3.08,3.0786,3.0774,3.0767,2.5812,2.6188,2.6467,2.6674,2.6891,2.7108,2.719,2.719,2.7201,2.7301,2.7482,2.7748,2.799,2.8179,2.8379,2.8498,2.855,2.8724,2.8803,2.891,2.9157,2.9341,2.9509,2.9677,2.9882,3.0049,3.0228,3.0495,3.0911,3.1211,3.1619,3.2169,3.2717,3.3108,3.3472,3.3799,3.4108,3.4278,3.4414,3.4515,3.4664,3.4731,3.4931,3.5049,3.5228,3.5359,3.5424,3.5489,3.5572,3.5638,3.572,3.5879,3.607,3.6211,3.632,3.6429,3.6492,3.6122,3.564,3.5058,3.4604,3.4214,3.4064,3.405,3.4176,3.4497,3.4756,3.4987,3.5198,3.5337,3.5498,3.5661,3.5839,3.5949,3.6079,3.6272,3.6444,3.6609,3.6768,3.6849,3.7026,3.6914,3.6558,3.6015,3.5447,3.5128,3.4818,3.4302,3.4057,3.3739,3.3807,3.3867,3.3586,3.3172,3.2542,3.1975,3.1327,3.0908,3.0552,3.0434,3.0321,3.0219,3.0299,3.0398,3.0477,3.0578,3.0672,3.0748,3.0778,3.0796,3.0797,3.08,3.0786,3.0794,3.0767,2.5728,2.6032,2.6229,2.6437,2.6715,2.7067,2.719,2.719,2.719,2.7219,2.7301,2.7534,2.7788,2.799,2.8179,2.8351,2.8459,2.8578,2.8685,2.8843,2.8961,2.9145,2.9341,2.947,2.9689,2.9856,3.0049,3.019,3.0495,3.0836,3.1508,3.2169,3.2574,3.2945,3.3276,3.3605,3.3902,3.4142,3.4312,3.4414,3.4515,3.4597,3.4783,3.4949,3.5115,3.5261,3.5439,3.5504,3.5522,3.5539,3.5623,3.5784,3.5816,3.607,3.6274,3.646,3.643,3.623,3.569,3.5515,3.5118,3.4425,3.4146,3.4132,3.4235,3.4382,3.4668,3.4851,3.5105,3.5291,3.5429,3.5611,3.5751,3.5883,3.5997,3.617,3.636,3.6585,3.6766,3.7044,3.7239,3.7322,3.7024,3.677,3.6224,3.5874,3.541,3.4827,3.4258,3.3939,3.3789,3.3852,3.3833,3.3481,3.3268,3.278,3.2052,3.1417,3.1157,3.0803,3.0476,3.0393,3.0388,3.0421,3.0525,3.0604,3.069,3.0737,3.0784,3.0796,3.0797,3.08,3.0786,3.0794,3.0767,2.5633,2.5895,2.6115,2.6354,2.6644,2.6933,2.7108,2.7108,2.7138,2.719,2.7231,2.7412,2.7655,2.7921,2.8111,2.8299,2.851,2.851,2.859,2.8657,2.8764,2.891,2.9106,2.9302,2.9509,2.9677,2.9856,2.9998,3.0267,3.0798,3.1458,3.1927,3.2322,3.2682,3.3002,3.3347,3.3675,3.3937,3.4176,3.4312,3.4414,3.4515,3.465,3.485,3.5016,3.5195,3.5359,3.5439,3.5504,3.5489,3.5589,3.5638,3.572,3.6006,3.6211,3.6383,3.643,3.6322,3.6014,3.578,3.531,3.4831,3.4459,3.4319,3.4346,3.4444,3.4562,3.4707,3.5011,3.5285,3.5383,3.552,3.5639,3.5778,3.591,3.6062,3.6314,3.6541,3.6806,3.7066,3.7278,3.7429,3.7363,3.7219,3.6928,3.6402,3.5814,3.5162,3.4524,3.3974,3.3826,3.3823,3.3917,3.3833,3.3648,3.3465,3.288,3.2325,3.2058,3.1622,3.0987,3.0745,3.0887,3.0761,3.0588,3.0711,3.085,3.0786,3.079,3.08,3.0797,3.08,3.0786,3.0794,3.0767,2.5464,2.5948,2.6115,2.6324,2.655,2.6768,2.6891,2.6933,2.7108,2.719,2.7231,2.7412,2.7574,2.7829,2.8018,2.8259,2.8431,2.8471,2.851,2.851,2.8657,2.8803,2.8949,2.9133,2.9302,2.947,2.9638,2.9882,3.019,3.0685,3.1174,3.1559,3.2036,3.2422,3.2682,3.3086,3.3452,3.3744,3.4005,3.4162,3.4346,3.4414,3.4481,3.4698,3.485,3.5001,3.518,3.5359,3.5472,3.5504,3.5522,3.5557,3.5752,3.5943,3.6101,3.6242,3.6352,3.6414,3.6292,3.6075,3.5886,3.5471,3.5027,3.4845,3.4814,3.4457,3.4464,3.4635,3.4923,3.5152,3.5291,3.5446,3.5588,3.5728,3.5883,3.5997,3.6187,3.6478,3.6846,3.7103,3.7259,3.7429,3.7577,3.7416,3.7432,3.689,3.6358,3.569,3.4951,3.4295,3.3913,3.3862,3.3915,3.4,3.4046,3.3847,3.3652,3.3261,3.295,3.2446,3.18,3.157,3.145,3.1411,3.1374,3.1041,3.1025,3.0938,3.0856,3.0784,3.0798,3.08,3.0786,3.0794,3.0767,2.5464,2.5895,2.6104,2.624,2.6313,2.6561,2.6779,2.6891,2.6933,2.7067,2.7179,2.7272,2.7423,2.7644,2.7857,2.807,2.8259,2.8419,2.8471,2.851,2.8578,2.8697,2.8764,2.891,2.9145,2.9341,2.9509,2.9715,3.0113,3.0533,3.0887,3.1224,3.1743,3.2169,3.2372,3.2803,3.3192,3.3501,3.3799,3.4074,3.4312,3.4414,3.4481,3.4631,3.4798,3.4916,3.5082,3.5228,3.5359,3.5457,3.5489,3.5557,3.5688,3.5784,3.5943,3.6148,3.6227,3.6352,3.6399,3.6292,3.6228,3.6005,3.5678,3.5587,3.5297,3.4681,3.4439,3.4636,3.478,3.4994,3.5198,3.5377,3.5537,3.5678,3.5839,3.5971,3.6079,3.6461,3.6866,3.7083,3.7259,3.741,3.7594,3.7685,3.7738,3.7482,3.7041,3.6449,3.5592,3.4869,3.414,3.3986,3.3944,3.4037,3.4146,3.4248,3.4047,3.3914,3.3615,3.3113,3.2606,3.2346,3.2191,3.2297,3.2245,3.1836,3.1409,3.1064,3.096,3.0866,3.0819,3.0819,3.0805,3.0794,3.0767,2.5464,2.5895,2.6021,2.6063,2.6115,2.6313,2.6479,2.6603,2.6727,2.6891,2.7056,2.7179,2.7342,2.7482,2.7655,2.7938,2.8167,2.8299,2.8431,2.8471,2.851,2.855,2.8657,2.8764,2.891,2.9106,2.9341,2.9625,3.0075,3.0305,3.0571,3.0986,3.1545,3.1877,3.2132,3.2574,3.2931,3.3276,3.3605,3.3902,3.4244,3.4346,3.4414,3.4563,3.4698,3.4817,3.4916,3.5096,3.5246,3.5359,3.5439,3.5522,3.5621,3.5688,3.5784,3.5943,3.6101,3.6242,3.6367,3.6446,3.6476,3.6363,3.6164,3.6039,3.6186,3.5641,3.5196,3.5283,3.4799,3.4916,3.5105,3.5308,3.5423,3.5583,3.5839,3.6079,3.6272,3.6582,3.6926,3.7182,3.7316,3.7391,3.7576,3.7757,3.7791,3.7718,3.735,3.6743,3.5994,3.5381,3.4659,3.4087,3.4047,3.4067,3.4172,3.4338,3.4442,3.432,3.4213,3.3931,3.3508,3.3128,3.2916,3.3015,3.2902,3.2434,3.2002,3.1618,3.1124,3.0929,3.0878,3.0857,3.0822,3.0794,3.0747,2.5454,2.5895,2.5895,2.5895,2.5937,2.6074,2.6199,2.6229,2.6437,2.6644,2.6891,2.7056,2.726,2.7412,2.7522,2.7846,2.8059,2.8219,2.8339,2.8471,2.851,2.851,2.8578,2.8697,2.8803,2.8988,2.9223,2.9548,2.9908,3.0101,3.0419,3.0836,3.1099,3.136,3.1936,3.2336,3.261,3.3086,3.3417,3.373,3.4005,3.4278,3.4346,3.4448,3.4563,3.4664,3.4798,3.4931,3.5115,3.5294,3.5407,3.5489,3.5522,3.5589,3.5655,3.5816,3.6022,3.6148,3.6274,3.6523,3.6708,3.6812,3.6625,3.6632,3.6798,3.6566,3.6133,3.5822,3.5342,3.4936,3.515,3.5255,3.5388,3.5514,3.5817,3.6165,3.6437,3.6681,3.6946,3.7239,3.7334,3.7391,3.7576,3.7775,3.7809,3.7754,3.7461,3.6768,3.6159,3.5654,3.5046,3.444,3.4107,3.4153,3.4204,3.439,3.4582,3.4708,3.4602,3.4557,3.445,3.418,3.3923,3.3727,3.3516,3.3206,3.2717,3.2272,3.1774,3.1185,3.0937,3.0876,3.0823,3.0774,3.0747,2.5464,2.5895,2.5895,2.5895,2.5895,2.5948,2.6032,2.6188,2.6229,2.6396,2.6644,2.685,2.7056,2.726,2.7441,2.7684,2.7909,2.8059,2.8299,2.8471,2.8471,2.851,2.851,2.8578,2.8657,2.8882,2.9145,2.9419,2.9703,2.9947,3.0152,3.0343,3.0874,3.1174,3.1458,3.1886,3.2408,3.2838,3.3206,3.3521,3.3833,3.4074,3.4278,3.4346,3.4414,3.4563,3.4664,3.4765,3.4964,3.5162,3.5374,3.5457,3.5522,3.5554,3.5604,3.5703,3.5926,3.6053,3.6242,3.6538,3.68,3.6984,3.6939,3.7263,3.7329,3.7223,3.6945,3.6934,3.6377,3.5465,3.5428,3.5392,3.5465,3.5531,3.5751,3.6144,3.644,3.6664,3.6886,3.7124,3.7316,3.7428,3.7558,3.7739,3.7881,3.7879,3.8,3.7342,3.6703,3.6087,3.5483,3.4893,3.4328,3.4171,3.4185,3.442,3.4639,3.484,3.5,3.4934,3.5012,3.5297,3.5065,3.4657,3.443,3.4192,3.3662,3.2943,3.2282,3.1693,3.1172,3.0914,3.0842,3.0774,3.0747]}]]